[[{"header":{"parameterUnit":"m.s-1","parameterCategory":1,"la1":30.6,"la2":29.2853,"lo1":-89.7004,"lo2":-87.6739,"dx":0.0162,"dy":0.0183,"nx":112,"ny":82,"refTime":"2023-02-14T06:00:00:Z","depth":0,"parameterNumber":2,"parameterNumberName":"U-component_of_WINDS"},"data":[0.0,0.0,0.0,0.0,0.0,0.0,0.0,0.0,0.0,0.0,0.0,0.0,0.0,0.0,0.0,0.0,0.0,0.0,0.0,0.0,0.0,0.0,0.0,0.0,0.0,0.0,0.0,0.0,0.0,0.0,0.0,0.0,0.0,0.0,0.0,0.0,0.0,0.0,0.0,0.0,0.0,0.0,0.0,0.0,0.0,0.0,0.0,0.0,0.0,0.0,0.0,0.0,0.0,0.0,0.0,0.0,0.0,0.0,0.0,0.0,0.0,0.0,0.0,0.0,0.0,0.0,0.0,0.0,0.0,0.0,0.0,0.0,0.0,0.0,0.0,0.0,0.0,0.0,0.0,0.0,0.0,0.0,0.0,0.0,0.0,0.0,0.0,0.0,0.0,0.0,-3.0358,-3.0304,-3.0342,-3.0398,-3.0404,-2.9707,-2.8933,-2.8135,0.0,0.0,0.0,0.0,0.0,0.0,0.0,0.0,0.0,0.0,0.0,0.0,0.0,0.0,0.0,0.0,0.0,0.0,0.0,0.0,0.0,0.0,0.0,0.0,0.0,0.0,0.0,0.0,0.0,0.0,0.0,0.0,0.0,0.0,0.0,0.0,0.0,0.0,0.0,0.0,0.0,0.0,0.0,0.0,0.0,0.0,0.0,0.0,0.0,0.0,0.0,0.0,0.0,0.0,0.0,0.0,0.0,0.0,0.0,0.0,0.0,0.0,0.0,0.0,0.0,0.0,0.0,0.0,0.0,0.0,0.0,0.0,0.0,0.0,0.0,0.0,0.0,0.0,0.0,0.0,0.0,0.0,0.0,0.0,0.0,0.0,0.0,0.0,0.0,0.0,0.0,0.0,0.0,0.0,0.0,0.0,0.0,0.0,0.0,0.0,0.0,0.0,0.0,0.0,-3.0311,-3.0299,-3.0311,-3.0342,-3.0404,-3.0226,-2.9772,-2.8966,0.0,0.0,0.0,0.0,0.0,0.0,0.0,0.0,0.0,0.0,0.0,0.0,0.0,0.0,0.0,0.0,0.0,0.0,0.0,0.0,0.0,0.0,0.0,0.0,0.0,0.0,0.0,0.0,0.0,0.0,0.0,0.0,0.0,0.0,0.0,0.0,0.0,0.0,0.0,0.0,0.0,0.0,0.0,0.0,0.0,0.0,0.0,0.0,0.0,0.0,0.0,0.0,0.0,0.0,0.0,0.0,0.0,0.0,0.0,0.0,0.0,0.0,0.0,0.0,0.0,0.0,0.0,0.0,0.0,0.0,0.0,0.0,0.0,0.0,0.0,0.0,0.0,0.0,0.0,0.0,0.0,0.0,0.0,0.0,0.0,0.0,0.0,0.0,0.0,0.0,0.0,0.0,0.0,0.0,0.0,0.0,0.0,0.0,0.0,0.0,0.0,0.0,0.0,-3.0324,-3.0279,-3.0241,-3.0273,-3.0304,-3.0336,-3.0324,-2.9959,-2.9152,-2.833,0.0,0.0,0.0,0.0,0.0,0.0,0.0,0.0,0.0,0.0,0.0,0.0,0.0,0.0,0.0,0.0,0.0,0.0,0.0,0.0,0.0,0.0,0.0,0.0,0.0,0.0,0.0,0.0,0.0,0.0,0.0,0.0,0.0,0.0,0.0,0.0,0.0,0.0,0.0,0.0,0.0,0.0,0.0,0.0,0.0,0.0,0.0,0.0,0.0,0.0,0.0,0.0,0.0,0.0,0.0,0.0,0.0,0.0,0.0,0.0,0.0,0.0,0.0,0.0,0.0,0.0,0.0,0.0,0.0,0.0,0.0,0.0,0.0,0.0,0.0,0.0,0.0,0.0,0.0,0.0,0.0,0.0,0.0,0.0,0.0,0.0,0.0,0.0,0.0,0.0,0.0,0.0,0.0,0.0,0.0,0.0,0.0,0.0,0.0,0.0,0.0,0.0,-3.026,-3.026,-3.0214,-3.0248,-3.0273,-3.0292,-3.0279,-3.0018,-2.9391,-2.9302,0.0,0.0,0.0,0.0,0.0,0.0,0.0,0.0,0.0,0.0,0.0,0.0,0.0,0.0,0.0,0.0,0.0,0.0,0.0,0.0,0.0,0.0,0.0,0.0,0.0,0.0,0.0,0.0,0.0,0.0,0.0,0.0,0.0,0.0,0.0,0.0,0.0,0.0,0.0,0.0,0.0,0.0,0.0,0.0,0.0,0.0,0.0,0.0,0.0,0.0,0.0,0.0,0.0,0.0,0.0,0.0,0.0,0.0,0.0,0.0,0.0,0.0,0.0,0.0,0.0,0.0,0.0,0.0,0.0,0.0,0.0,0.0,0.0,0.0,0.0,0.0,0.0,0.0,0.0,0.0,0.0,0.0,0.0,0.0,0.0,0.0,0.0,0.0,0.0,0.0,0.0,0.0,0.0,0.0,0.0,0.0,0.0,0.0,0.0,0.0,0.0,0.0,-3.0233,-3.0206,-3.0207,-3.0195,-3.0234,-3.0286,-3.0234,-3.0176,-3.0125,-3.011,0.0,0.0,0.0,0.0,0.0,0.0,0.0,0.0,0.0,0.0,0.0,0.0,0.0,0.0,0.0,0.0,0.0,0.0,0.0,0.0,0.0,0.0,0.0,0.0,0.0,0.0,0.0,0.0,0.0,0.0,0.0,0.0,0.0,0.0,0.0,0.0,0.0,0.0,0.0,0.0,0.0,0.0,0.0,0.0,0.0,0.0,0.0,0.0,0.0,0.0,0.0,0.0,0.0,0.0,0.0,0.0,0.0,0.0,0.0,0.0,0.0,0.0,0.0,0.0,0.0,0.0,0.0,0.0,0.0,0.0,0.0,0.0,0.0,0.0,0.0,0.0,0.0,0.0,0.0,0.0,0.0,0.0,0.0,0.0,0.0,0.0,0.0,0.0,0.0,0.0,0.0,0.0,0.0,0.0,0.0,0.0,0.0,0.0,0.0,0.0,0.0,0.0,-3.0214,-3.0194,-3.0206,-3.02,-3.0154,-3.0064,-3.0026,-3.0015,-3.0015,0.0,0.0,0.0,0.0,0.0,0.0,0.0,0.0,0.0,0.0,0.0,0.0,0.0,0.0,0.0,0.0,0.0,0.0,0.0,0.0,0.0,0.0,0.0,0.0,0.0,0.0,0.0,0.0,0.0,0.0,0.0,0.0,0.0,0.0,0.0,0.0,0.0,0.0,0.0,0.0,0.0,0.0,0.0,0.0,0.0,0.0,0.0,0.0,0.0,0.0,0.0,0.0,0.0,0.0,0.0,0.0,0.0,0.0,0.0,0.0,0.0,0.0,0.0,0.0,0.0,0.0,0.0,0.0,0.0,0.0,0.0,0.0,0.0,0.0,0.0,0.0,0.0,0.0,0.0,0.0,0.0,0.0,0.0,0.0,0.0,0.0,0.0,0.0,0.0,0.0,0.0,0.0,0.0,0.0,0.0,0.0,0.0,0.0,0.0,0.0,0.0,0.0,-3.0214,-3.02,-3.0173,-3.0101,-3.009,-3.003,-2.9811,-2.9792,-2.9771,-2.9807,0.0,0.0,0.0,0.0,0.0,0.0,0.0,0.0,0.0,0.0,0.0,0.0,0.0,0.0,0.0,0.0,0.0,0.0,0.0,0.0,0.0,0.0,0.0,0.0,0.0,0.0,0.0,0.0,0.0,0.0,0.0,0.0,0.0,0.0,0.0,0.0,0.0,0.0,0.0,0.0,0.0,0.0,0.0,0.0,0.0,0.0,0.0,0.0,0.0,0.0,0.0,0.0,0.0,0.0,0.0,0.0,0.0,0.0,0.0,0.0,0.0,0.0,0.0,0.0,0.0,0.0,0.0,0.0,0.0,0.0,0.0,0.0,0.0,0.0,0.0,0.0,0.0,0.0,0.0,0.0,0.0,0.0,0.0,0.0,0.0,0.0,0.0,0.0,0.0,0.0,0.0,0.0,0.0,0.0,0.0,0.0,0.0,0.0,0.0,0.0,0.0,0.0,-3.02,-3.0206,-3.0121,-2.9913,-2.9888,-2.9803,-2.9617,-2.9523,-2.9523,0.0,0.0,0.0,0.0,0.0,0.0,0.0,0.0,0.0,0.0,0.0,0.0,0.0,0.0,0.0,0.0,0.0,0.0,0.0,0.0,0.0,0.0,0.0,0.0,0.0,0.0,0.0,0.0,0.0,0.0,0.0,0.0,0.0,0.0,0.0,0.0,0.0,0.0,0.0,0.0,0.0,0.0,0.0,0.0,0.0,0.0,0.0,0.0,0.0,0.0,0.0,0.0,0.0,0.0,0.0,0.0,0.0,0.0,0.0,0.0,0.0,0.0,0.0,0.0,0.0,0.0,0.0,0.0,0.0,0.0,0.0,0.0,0.0,0.0,0.0,0.0,0.0,0.0,0.0,0.0,0.0,0.0,0.0,0.0,0.0,0.0,0.0,0.0,0.0,0.0,0.0,0.0,0.0,0.0,0.0,0.0,0.0,0.0,0.0,0.0,0.0,0.0,0.0,-3.0,-2.9961,-2.9861,-2.9707,-2.9689,-2.9598,-2.9345,-2.9295,-2.9275,-2.9246,0.0,0.0,0.0,0.0,0.0,0.0,0.0,0.0,0.0,0.0,0.0,0.0,0.0,0.0,0.0,0.0,0.0,0.0,0.0,0.0,0.0,0.0,0.0,0.0,0.0,0.0,0.0,0.0,0.0,0.0,0.0,0.0,0.0,0.0,0.0,0.0,0.0,0.0,0.0,0.0,0.0,0.0,0.0,0.0,0.0,0.0,0.0,0.0,0.0,0.0,0.0,0.0,0.0,0.0,0.0,0.0,0.0,0.0,0.0,0.0,0.0,0.0,0.0,0.0,0.0,0.0,0.0,0.0,0.0,0.0,0.0,0.0,0.0,0.0,0.0,0.0,0.0,0.0,0.0,0.0,0.0,0.0,0.0,0.0,0.0,0.0,0.0,0.0,0.0,0.0,0.0,0.0,0.0,0.0,0.0,0.0,0.0,0.0,0.0,0.0,0.0,0.0,-2.9741,-2.967,-2.9579,-2.9426,-2.9407,-2.9306,-2.9064,-2.9019,-2.8989,-2.8978,0.0,0.0,0.0,0.0,0.0,0.0,0.0,0.0,0.0,0.0,0.0,0.0,0.0,0.0,0.0,0.0,0.0,0.0,0.0,0.0,0.0,0.0,0.0,0.0,0.0,0.0,0.0,0.0,0.0,0.0,0.0,0.0,0.0,0.0,0.0,0.0,0.0,0.0,0.0,0.0,0.0,0.0,0.0,0.0,0.0,0.0,0.0,0.0,0.0,0.0,0.0,0.0,0.0,0.0,0.0,0.0,0.0,0.0,0.0,0.0,0.0,0.0,0.0,0.0,0.0,0.0,0.0,0.0,0.0,0.0,0.0,0.0,0.0,0.0,0.0,0.0,0.0,0.0,0.0,0.0,0.0,0.0,0.0,0.0,0.0,0.0,0.0,0.0,0.0,0.0,0.0,0.0,0.0,0.0,0.0,0.0,0.0,0.0,0.0,0.0,0.0,0.0,-2.97,-2.9632,-2.952,-2.9315,-2.9293,-2.9184,-2.8919,-2.8846,-2.8809,-2.8773,0.0,0.0,0.0,0.0,0.0,0.0,0.0,0.0,0.0,0.0,0.0,0.0,0.0,0.0,0.0,0.0,0.0,0.0,0.0,0.0,0.0,0.0,0.0,0.0,0.0,0.0,0.0,0.0,0.0,0.0,0.0,0.0,0.0,0.0,0.0,0.0,0.0,0.0,0.0,0.0,0.0,0.0,0.0,0.0,0.0,0.0,0.0,0.0,0.0,0.0,0.0,0.0,0.0,0.0,0.0,0.0,0.0,0.0,0.0,0.0,-3.2403,-3.2164,0.0,0.0,0.0,0.0,0.0,0.0,0.0,0.0,0.0,0.0,0.0,0.0,0.0,0.0,0.0,0.0,0.0,0.0,0.0,0.0,0.0,0.0,0.0,0.0,0.0,0.0,0.0,0.0,0.0,0.0,0.0,0.0,0.0,0.0,0.0,0.0,0.0,0.0,0.0,0.0,-3.1155,-3.106,-3.0906,-3.0771,-3.0746,-3.0471,-2.9737,-2.9657,-2.9359,-2.8704,-2.8687,0.0,0.0,0.0,0.0,0.0,0.0,0.0,0.0,0.0,0.0,0.0,0.0,0.0,0.0,0.0,0.0,0.0,0.0,0.0,0.0,0.0,0.0,0.0,0.0,0.0,0.0,0.0,0.0,0.0,0.0,0.0,0.0,0.0,0.0,0.0,0.0,0.0,0.0,0.0,0.0,0.0,0.0,0.0,0.0,0.0,0.0,0.0,0.0,0.0,0.0,0.0,0.0,0.0,0.0,0.0,0.0,0.0,0.0,0.0,-3.2864,-3.2387,0.0,0.0,0.0,0.0,0.0,0.0,0.0,0.0,0.0,0.0,0.0,0.0,0.0,0.0,0.0,0.0,0.0,0.0,0.0,0.0,0.0,0.0,0.0,0.0,0.0,0.0,0.0,0.0,0.0,0.0,0.0,0.0,0.0,0.0,0.0,0.0,0.0,0.0,0.0,0.0,-3.1353,-3.1283,-3.118,-3.1106,-3.1093,-3.0916,-3.0458,-3.0422,-3.0232,-2.9737,-2.9745,0.0,0.0,0.0,0.0,0.0,0.0,0.0,0.0,0.0,0.0,0.0,0.0,0.0,0.0,0.0,0.0,0.0,0.0,0.0,0.0,0.0,0.0,0.0,0.0,0.0,0.0,0.0,0.0,0.0,0.0,0.0,0.0,0.0,0.0,0.0,0.0,0.0,0.0,0.0,0.0,0.0,0.0,0.0,0.0,0.0,0.0,0.0,0.0,0.0,0.0,0.0,0.0,0.0,-3.2881,-3.3209,-3.3228,-3.3948,-3.4253,-3.4144,-3.2986,-3.2395,-3.2306,-3.3255,0.0,0.0,0.0,0.0,0.0,0.0,0.0,0.0,0.0,0.0,0.0,0.0,0.0,0.0,0.0,0.0,0.0,0.0,0.0,0.0,0.0,0.0,-3.3789,-3.3737,-3.3742,-3.3361,-3.1957,0.0,0.0,0.0,0.0,0.0,0.0,0.0,0.0,0.0,0.0,0.0,-3.1515,-3.1447,-3.1405,-3.1405,-3.1373,-3.1305,-3.1192,-3.1174,-3.1078,-3.0896,-3.0878,-3.0548,0.0,0.0,0.0,0.0,0.0,0.0,0.0,0.0,0.0,0.0,0.0,0.0,0.0,0.0,0.0,0.0,0.0,0.0,0.0,0.0,0.0,0.0,0.0,0.0,0.0,0.0,0.0,0.0,0.0,0.0,0.0,0.0,-2.881,-2.881,0.0,0.0,0.0,0.0,0.0,0.0,0.0,0.0,0.0,0.0,0.0,0.0,0.0,-3.2449,-3.2668,-3.329,-3.371,-3.3883,-3.3985,-3.4035,-3.4054,-3.4165,-3.408,-3.3863,-3.3668,0.0,-3.3982,-3.4121,0.0,0.0,0.0,0.0,0.0,0.0,0.0,0.0,0.0,0.0,0.0,0.0,0.0,0.0,0.0,0.0,0.0,0.0,0.0,0.0,0.0,0.0,-3.3037,-3.3037,-3.3021,-3.2968,-3.2755,-3.298,-3.3162,-3.294,-3.288,-3.2928,0.0,0.0,0.0,0.0,0.0,0.0,-3.3168,-3.3071,-3.3,-3.3,-3.2889,-3.2556,-3.1923,-3.1869,-3.1567,-3.0851,-3.0797,-3.0761,-3.0639,-3.0639,0.0,0.0,0.0,0.0,0.0,0.0,0.0,0.0,0.0,0.0,0.0,0.0,0.0,0.0,0.0,0.0,0.0,0.0,0.0,0.0,0.0,0.0,0.0,0.0,0.0,0.0,0.0,0.0,0.0,-2.8798,-2.8949,-2.9368,-2.9484,-2.9698,0.0,0.0,0.0,0.0,0.0,0.0,0.0,0.0,0.0,-3.2479,-3.2843,-3.3267,-3.3807,-3.4126,-3.4552,-3.51,-3.5109,-3.5113,-3.5113,-3.5113,-3.5042,-3.4929,-3.4929,-3.5009,-3.5083,-3.4319,-3.408,-3.4188,0.0,0.0,0.0,0.0,-3.4189,-3.4092,-3.4116,-3.4068,-3.3994,-3.4019,0.0,0.0,0.0,0.0,0.0,0.0,0.0,-3.3262,-3.319,-3.307,-3.2948,-3.2916,-3.29,-3.29,-3.29,-3.3037,-3.3144,-3.3055,-3.307,-3.315,-3.3277,-3.3247,0.0,0.0,0.0,-3.3241,-3.3271,-3.3226,-3.3198,-3.3198,-3.3135,-3.2975,-3.2652,-3.2447,-3.2143,-3.1724,-3.1479,-3.1253,-3.0987,-3.0969,-3.0774,0.0,0.0,0.0,0.0,0.0,0.0,0.0,0.0,0.0,0.0,0.0,0.0,0.0,0.0,0.0,0.0,0.0,0.0,0.0,0.0,0.0,0.0,0.0,0.0,0.0,0.0,0.0,0.0,-2.9015,-2.9337,-3.0085,-3.0228,-3.0516,0.0,0.0,0.0,0.0,0.0,0.0,-3.2934,-3.2956,-3.3306,-3.4062,-3.4098,-3.4359,-3.4914,-3.4899,-3.5206,-3.5804,-3.5804,-3.5804,-3.5804,-3.5804,-3.577,-3.5754,-3.5754,-3.5738,-3.5645,-3.4706,-3.4325,-3.438,-3.4507,-3.4585,-3.4642,-3.4563,-3.447,-3.4366,-3.4393,-3.4321,-3.4238,-3.4284,-3.4284,-3.4284,-3.4284,0.0,0.0,0.0,0.0,-3.3683,-3.357,-3.3554,-3.3555,-3.3489,-3.3489,-3.3457,-3.3358,-3.3307,-3.3232,-3.3019,-3.3172,-3.3344,-3.3362,-3.3442,0.0,-3.3667,-3.3602,-3.3584,-3.3696,-3.3696,-3.3633,-3.352,-3.3325,-3.32,-3.3184,-3.2678,-3.2369,-3.2334,-3.195,-3.1565,-3.1185,-3.1253,-3.1093,-3.0648,0.0,0.0,0.0,0.0,0.0,0.0,0.0,0.0,0.0,0.0,0.0,0.0,0.0,0.0,0.0,0.0,0.0,0.0,0.0,0.0,0.0,0.0,0.0,0.0,0.0,0.0,0.0,0.0,0.0,-3.0853,-3.0998,0.0,0.0,0.0,0.0,-3.226,-3.2964,-3.3717,-3.4443,-3.448,-3.486,-3.5657,-3.5693,-3.5695,-3.5731,-3.5731,-3.575,-3.5804,-3.5804,-3.5804,-3.5804,-3.5804,-3.572,-3.5604,-3.5604,-3.5571,-3.5524,-3.5648,-3.576,-3.5871,-3.5634,-3.5649,-3.5781,-3.5525,-3.54,-3.5334,-3.5398,-3.5298,-3.5164,-3.5266,-3.5317,-3.5317,-3.5317,-3.5367,0.0,0.0,-3.5284,-3.5251,-3.5114,-3.5096,-3.5096,-3.5096,-3.5096,-3.4993,-3.4603,-3.4458,-3.4128,-3.3087,-3.3525,-3.3925,-3.3564,0.0,-3.4623,-3.4712,-3.4712,-3.4888,-3.5316,-3.5317,-3.5114,-3.4658,-3.3952,-3.3442,-3.3389,-3.2366,-3.1842,-3.2109,-3.1753,-3.1478,-3.1403,-3.168,-3.1662,-3.1253,-3.1881,0.0,0.0,0.0,0.0,0.0,0.0,0.0,0.0,0.0,0.0,0.0,0.0,0.0,0.0,0.0,0.0,0.0,0.0,0.0,0.0,0.0,0.0,0.0,0.0,0.0,0.0,0.0,0.0,-3.1673,-3.1791,0.0,-3.2534,-3.3343,-3.3814,-3.3785,-3.4528,-3.5093,-3.5351,-3.5369,-3.5496,-3.5786,-3.5804,-3.6055,-3.6562,-3.6562,-3.6834,-3.7341,-3.7341,-3.7341,-3.7341,-3.7273,-3.7187,-3.7136,-3.7104,-3.7071,-3.7054,-3.7105,-3.6576,-3.5666,-3.5571,-3.5571,-3.5636,-3.554,-3.546,-3.5393,-3.5426,-3.5341,-3.5221,-3.5273,-3.5256,-3.5256,-3.5256,-3.5289,-3.5306,-3.5273,-3.5256,-3.5256,-3.5204,-3.5186,-3.5186,-3.5186,-3.51,-3.4978,-3.4818,-3.4673,-3.4441,-3.4076,-3.4075,-3.416,-3.4143,-3.4516,-3.4907,-3.5153,-3.5118,-3.4995,-3.4818,-3.4764,-3.4545,-3.3997,-3.3677,-3.3503,-3.3466,-3.246,-3.1856,-3.1958,-3.114,-3.0767,-3.0991,-3.1125,-3.1201,-3.1162,-3.162,-3.1316,0.0,0.0,0.0,0.0,0.0,0.0,0.0,0.0,0.0,0.0,0.0,0.0,0.0,0.0,0.0,0.0,0.0,0.0,0.0,0.0,0.0,0.0,0.0,0.0,0.0,0.0,-3.1639,-3.2401,-3.2744,-3.3138,-3.371,-3.4488,-3.4958,-3.4989,-3.5496,-3.5912,-3.62,-3.62,-3.6311,-3.6532,-3.6532,-3.6787,-3.7294,-3.7294,-3.7565,-3.8107,-3.8107,-3.8107,-3.8107,-3.8003,-3.795,-3.7897,-3.7845,-3.781,-3.7811,-3.7811,-3.7183,-3.6197,-3.6231,-3.6231,-3.6197,-3.6197,-3.6181,-3.6129,-3.6129,-3.6077,-3.6006,-3.6006,-3.5954,-3.5919,-3.5919,-3.5847,-3.5812,-3.5812,-3.5812,-3.5812,-3.5812,-3.5812,-3.5812,-3.5812,-3.5703,-3.5557,-3.5407,-3.5236,-3.5022,-3.4746,-3.4738,-3.4702,-3.4569,-3.4894,-3.5203,-3.5316,-3.526,-3.5145,-3.4928,-3.4909,-3.4691,-3.4139,-3.3855,-3.3681,-3.3681,-3.2658,-3.2064,-3.2155,-3.1122,-3.0614,-3.0815,-3.0696,-3.0686,-3.0828,-3.0988,-3.073,-3.0064,0.0,0.0,0.0,0.0,0.0,0.0,0.0,0.0,0.0,0.0,0.0,0.0,0.0,0.0,0.0,0.0,0.0,0.0,0.0,0.0,0.0,0.0,0.0,-3.2056,-3.2011,-3.2298,-3.3016,-3.3806,-3.4341,-3.4506,-3.5191,-3.5674,-3.5824,-3.5858,-3.6202,-3.6995,-3.7015,-3.7326,-3.7983,-3.8001,-3.7967,-3.7899,-3.7899,-3.7899,-3.7899,-3.7899,-3.7899,-3.7899,-3.7881,-3.781,-3.7685,-3.7667,-3.7613,-3.7558,-3.7558,-3.7558,-3.7577,-3.7649,-3.7649,-3.7577,-3.7558,-3.7558,-3.7558,-3.7594,-3.7577,-3.7577,-3.7577,-3.7447,-3.7278,-3.7278,-3.7143,-3.697,-3.697,-3.697,-3.697,-3.697,-3.697,-3.697,-3.697,-3.6968,-3.6831,-3.6385,-3.6178,-3.5837,-3.5071,-3.5386,-3.5538,-3.4742,-3.5213,-3.5587,-3.5266,-3.522,0.0,-3.5803,-3.5868,-3.5693,-3.522,-3.4532,-3.4069,-3.4007,-3.2974,-3.2409,-3.2674,-3.1685,-3.105,-3.0914,-3.05,-3.0284,-3.0272,-3.0075,-2.9843,-2.9607,0.0,0.0,0.0,0.0,0.0,0.0,0.0,0.0,0.0,0.0,0.0,0.0,0.0,0.0,0.0,0.0,0.0,0.0,0.0,0.0,0.0,0.0,-3.2356,-3.2038,-3.2458,-3.2862,-3.309,-3.3721,-3.4304,-3.4675,-3.5421,-3.6042,-3.6422,-3.6996,-3.7428,-3.7626,-3.7644,-3.7753,-3.7916,-3.7934,-3.7916,-3.7899,-3.7899,-3.7899,-3.7899,-3.7899,-3.7899,-3.7881,-3.7503,-3.7299,-3.7243,-3.6803,-3.6586,-3.6583,-3.6583,-3.6701,-3.6895,-3.7054,-3.7111,-3.7054,-3.6704,-3.6701,-3.6895,-3.7106,-3.7164,-3.7164,-3.7164,-3.7143,-3.7085,-3.7085,-3.6834,-3.6557,-3.6557,-3.6557,-3.6557,-3.6557,-3.6557,-3.6557,-3.6557,-3.6232,-3.5873,-3.5742,-3.5577,-3.5368,-3.5155,-3.5245,-3.525,-3.4941,-3.5251,-3.5587,-3.5693,-3.5693,-3.5604,-3.5272,-3.5266,-3.5035,-3.4464,-3.4211,-3.3999,-3.3802,-3.3007,-3.2482,-3.2343,-3.1565,-3.107,-3.1046,-3.048,-3.0025,-2.9799,-2.9499,-2.9432,0.0,0.0,0.0,0.0,0.0,0.0,0.0,0.0,0.0,0.0,0.0,0.0,0.0,0.0,0.0,0.0,0.0,0.0,0.0,0.0,0.0,0.0,-3.2198,-3.2646,-3.2327,-3.2965,-3.3433,-3.3433,-3.4227,-3.4833,-3.4945,-3.5871,-3.6498,-3.6609,-3.7054,-3.7302,-3.7302,-3.7302,-3.7301,-3.7264,-3.7264,-3.7245,-3.7188,-3.7713,-3.7872,-3.7664,-3.8397,-3.8521,-3.8121,-3.802,-3.7862,-3.762,-3.727,-3.712,-3.712,-3.7055,-3.7137,-3.7232,0.0,0.0,0.0,0.0,-3.6169,-3.6329,-3.6492,-3.6533,-3.6533,-3.6533,-3.6454,-3.6374,-3.6374,-3.6143,-3.5907,-3.5907,-3.5907,-3.5907,-3.5907,-3.5907,-3.5864,-3.5764,-3.5459,-3.5186,-3.5054,-3.4948,-3.4816,-3.4649,-3.4601,0.0,-3.4333,-3.4681,-3.4988,-3.4988,-3.4878,-3.4664,-3.4333,-3.4284,-3.4152,-3.3797,-3.3771,-3.3694,-3.3555,-3.3147,0.0,0.0,0.0,-3.1426,-3.111,-3.074,0.0,0.0,0.0,-2.9312,-2.936,-2.8872,0.0,0.0,-2.9289,-2.9589,0.0,0.0,0.0,0.0,0.0,0.0,0.0,0.0,0.0,0.0,0.0,0.0,0.0,0.0,0.0,0.0,-3.2641,-3.324,-3.2862,-3.3503,-3.3976,-3.3891,-3.4906,-3.5516,-3.5258,-3.626,-3.6801,-3.649,-3.647,-3.647,-3.647,-3.647,0.0,0.0,0.0,-3.6492,-3.6452,-3.7565,-3.7875,-3.7425,-3.8986,-3.9262,-3.8384,-3.8816,-3.8734,-3.8271,-3.8225,-3.8203,-3.818,-3.8082,-3.8035,-3.7968,-3.7042,-3.6571,-3.6384,-3.6124,-3.5963,-3.5895,-3.5939,0.0,0.0,-3.582,-3.5632,-3.5414,-3.5414,-3.5243,-3.5045,-3.5045,-3.5045,-3.5045,-3.5045,-3.5045,-3.4981,-3.4736,-3.4664,-3.4568,-3.4325,-3.4276,-3.4178,-3.3809,-3.3732,-3.3646,-3.3346,-3.3797,-3.4075,-3.371,-3.345,-3.3309,-3.3309,-3.3309,-3.3309,-3.3309,-3.3309,0.0,-3.3256,-3.3256,-3.3256,-3.3187,-3.2578,-3.1866,-3.1127,-3.1096,-3.0888,-3.0454,-2.9923,-2.9454,-2.9113,-2.8521,-2.8232,-2.8232,-2.8548,-2.8912,0.0,0.0,0.0,0.0,0.0,0.0,0.0,0.0,0.0,0.0,0.0,0.0,0.0,0.0,0.0,-3.2404,-3.3184,-3.3688,-3.3597,-3.4232,-3.4474,-3.3896,-3.4549,-3.5189,-3.5506,-3.5752,-3.5994,-3.6236,-3.6256,-3.6256,-3.6256,-3.6256,-3.6512,-3.7107,-3.7124,-3.7395,-3.7959,-3.822,-3.8289,-3.82,-3.8538,0.0,-3.8243,-3.7948,-3.7713,-3.7489,-3.7112,-3.6936,-3.6952,-3.6918,-3.7036,-3.7236,-3.7187,-3.6917,-3.6572,-3.6737,-3.642,-3.5928,-3.6159,-3.5826,-3.5322,-3.5322,-3.5151,-3.4948,-3.4948,-3.452,0.0,-3.4086,-3.4086,-3.4086,-3.4086,-3.4086,-3.4061,-3.4011,-3.3774,-3.3591,-3.3523,-3.3497,-3.3487,-3.3408,-3.3398,-3.3372,-3.3293,-3.3398,-3.3477,-3.3372,-3.3319,-3.3309,-3.3309,-3.3309,-3.3309,-3.3309,-3.3309,-3.3203,-3.3005,-3.2978,-3.2854,-3.259,-3.2345,-3.1839,-3.1056,-3.1025,-3.0727,-3.0099,-2.9977,-2.989,-2.9811,-2.9689,-2.9613,-2.9583,-2.9005,-2.8756,0.0,0.0,0.0,0.0,0.0,0.0,0.0,0.0,0.0,0.0,0.0,-3.1155,0.0,0.0,-3.2745,-3.3176,-3.3856,-3.4336,-3.4336,-3.4667,-3.475,-3.4386,-3.4885,-3.5264,-3.5264,-3.5453,-3.5594,-3.5554,-3.5554,-3.5701,-3.609,-3.6107,-3.6422,-3.7182,-3.7199,-3.7385,-3.7739,-3.834,-3.8503,-3.8199,-3.9067,-3.916,-3.8514,-3.8539,-3.8362,-3.8034,-3.7814,-3.7707,-3.7707,-3.7633,-3.7633,-3.7697,-3.7814,-3.738,-3.6704,-3.6659,-3.642,-3.6093,-3.6076,-3.5805,-3.5469,-3.5301,-3.5172,-3.5053,-3.5053,-3.4808,-3.4558,-3.4558,-3.4558,-3.4558,-3.4558,-3.4558,-3.4531,-3.4381,-3.3954,-3.3556,-3.3392,-3.31,-3.285,-3.285,-3.2796,-3.2742,-3.2742,-3.2687,-3.2757,-3.3043,-3.2973,-3.285,-3.285,-3.2796,-3.2742,-3.2742,-3.2703,-3.2594,-3.2471,-3.2444,-3.2388,-3.2219,-3.215,-3.1929,-3.1511,-3.1496,-3.1316,-3.0915,-3.0552,-3.0344,-3.0262,-2.9946,-2.9795,-2.978,-2.9357,-2.9225,0.0,0.0,0.0,0.0,0.0,0.0,0.0,0.0,-3.0909,-3.139,-3.1483,-3.1741,-3.2537,-3.3169,-3.3637,-3.3902,-3.4431,-3.4828,-3.4828,-3.4828,-3.4828,-3.4828,-3.5195,-3.5333,-3.4947,-3.5241,-3.536,-3.5122,-3.509,-3.5405,-3.6125,-3.6133,-3.6464,-3.7182,-3.7224,-3.7281,-3.7413,-3.8388,-3.8638,-3.8173,-3.9581,-3.9723,-3.8777,-3.9206,-3.9152,-3.8722,-3.8667,-3.8639,-3.8595,-3.8432,-3.829,-3.8221,-3.8221,-3.7674,-3.6904,-3.6675,-3.6491,-3.6281,-3.6002,-3.5824,-3.5657,-3.5407,-3.525,-3.5222,-3.5222,-3.521,-3.5137,-3.5137,-3.5137,-3.5137,-3.5137,-3.5109,-3.5023,-3.4823,-3.433,-3.3841,-3.3569,-3.3082,-3.2698,-3.2698,-3.2586,-3.2486,-3.2392,-3.2264,-3.2318,-3.2667,-3.2511,-3.2315,-3.2315,-3.2219,-3.2107,-3.1979,-3.1881,-3.1796,-3.1796,-3.1925,-3.1925,-3.1783,-3.1783,-3.1682,-3.1523,-3.1523,-3.1466,-3.1351,-3.0829,-3.0517,-3.0489,-3.0026,-2.9844,-2.9968,-2.9968,-2.9955,-3.0396,-3.0417,-3.0375,-3.0231,-3.0702,-3.1194,0.0,0.0,-3.2105,-3.2171,-3.2204,-3.2417,-3.3154,-3.3374,-3.3636,-3.4316,-3.4496,-3.4546,-3.4546,-3.4546,-3.4546,-3.4546,-3.4811,-3.4954,-3.4899,-3.4947,-3.5236,-3.5827,-3.5778,-3.6017,-3.6759,-3.6631,-3.6865,-3.7603,-3.7619,-3.7958,-3.8614,-3.8734,-3.8783,-3.8718,-3.892,-3.8887,-3.8616,-3.8699,-3.86,-3.842,-3.8132,-3.8001,-3.7972,-3.7653,-3.7535,-3.7506,-3.7506,-3.744,-3.7369,-3.7633,-3.7163,-3.6397,-3.634,-3.59,-3.5351,-3.5307,-3.5137,-3.4922,-3.4922,-3.4765,-3.4593,-3.4593,-3.4593,-3.4593,-3.4593,-3.446,-3.4312,-3.4282,-3.4087,-3.3907,-3.3833,-3.3787,-3.3726,-3.3726,-3.3726,-3.353,-3.2997,-3.2906,-3.2708,-3.2172,-3.2081,-3.2038,-3.2038,-3.2038,-3.1796,-3.1189,-3.1131,-3.1102,-3.1102,-3.1667,-3.1697,-3.0984,-3.0925,-3.0584,-2.9813,-2.9782,-2.9752,-2.9766,-2.9681,-2.9942,-3.0497,-3.0439,-3.072,-3.1286,-3.1286,-3.0702,-3.1428,-3.1444,-3.1422,0.0,-3.1538,-3.1812,-3.172,-3.1978,-3.2327,-3.268,-3.2778,-3.3013,-3.3787,-3.3917,-3.4039,0.0,-3.4497,-3.4497,-3.4497,-3.4497,-3.4497,-3.4497,-3.4972,-3.5309,-3.5309,-3.5309,-3.5605,-3.6288,-3.6286,-3.6589,-3.7328,-3.7291,-3.7593,-3.833,-3.8346,-3.8494,-3.8805,-3.8805,-3.875,-3.8683,-3.8683,-3.86,-3.8476,-3.8476,-3.8363,-3.8103,-3.774,-3.7623,-3.7594,-3.7476,-3.7417,-3.7417,-3.7417,-3.7314,-3.721,-3.7506,-3.7361,-3.6947,-3.6801,-3.6554,-3.6244,-3.6066,-3.5901,-3.5841,-3.5841,-3.5766,-3.5645,-3.5645,-3.5584,-3.5477,-3.5477,-3.537,-3.5262,-3.5262,-3.4896,-3.4394,-3.3947,-3.3555,-3.3118,-3.2698,-3.2555,-3.2419,-3.2171,-3.2065,-3.1915,-3.164,-3.1485,-3.1277,-3.0881,-3.0778,-3.0569,-3.0179,-3.0119,-3.0119,-3.0119,-3.036,-3.0405,-3.0072,-3.0042,-2.9889,-2.9504,-2.9504,-2.9456,-2.9376,-2.9376,-2.947,-2.9628,-2.9628,-2.9766,-3.0042,-3.045,-3.0337,-3.2159,0.0,0.0,-3.2035,-3.2228,-3.2422,-3.2327,-3.252,-3.286,-3.3283,-3.3372,-3.3542,-3.4144,-3.425,-3.4275,-3.4374,-3.4399,-3.4399,-3.4399,-3.4399,-3.448,-3.4676,-3.5166,-3.564,-3.6048,-3.5953,-3.6168,-3.6829,-3.6869,-3.7169,-3.7905,-3.791,-3.8128,-3.8678,-3.8694,-3.8694,-3.8694,-3.8694,-3.8628,-3.8532,-3.8532,-3.8448,-3.8278,-3.8357,-3.836,-3.833,-3.8002,-3.7744,-3.7591,-3.7483,-3.7344,-3.7219,-3.7172,-3.6971,-3.6691,-3.6877,-3.6921,-3.6891,-3.6523,-3.6414,-3.6383,-3.6148,-3.6148,-3.6226,-3.5975,-3.6006,-3.607,-3.58,-3.5625,-3.5514,-3.5514,-3.54,-3.5317,-3.5317,-3.4894,-3.433,-3.3766,-3.3238,-3.2742,-3.2231,-3.2046,-3.1903,-3.1734,-3.1606,-3.1417,-3.1015,-3.0825,-3.0578,-3.0173,-2.9724,-2.9393,-2.9237,-2.9237,-2.9205,-2.9174,-2.938,-2.938,-2.9097,-2.9142,-2.9048,-2.8826,-2.8826,-2.8776,-2.8675,-2.8675,-2.868,-2.8716,-2.8716,-2.8812,-2.9002,-2.9504,-2.9721,0.0,0.0,-3.2176,-3.2035,-3.253,-3.3072,-3.3064,-3.3566,-3.4036,-3.4068,-3.4068,-3.4084,-3.4101,-3.4101,-3.4101,-3.4126,-3.4126,-3.4126,-3.4126,-3.4126,-3.4385,-3.5082,-3.5195,-3.5746,0.0,-3.6835,-3.6888,-3.7609,-3.7546,-3.7791,-3.8523,-3.8444,-3.8403,-3.8391,-3.8391,-3.8391,-3.8391,-3.8391,-3.8391,-3.8408,-3.8408,-3.8234,-3.7931,-3.8263,-3.8777,-3.9408,-3.9108,-3.8611,-3.8071,-3.7721,-3.7266,-3.6709,-3.6645,-3.629,-3.5832,-3.5784,-3.5752,-3.5688,-3.5154,-3.4942,-3.4942,-3.4942,-3.5317,-3.5544,-3.4647,-3.4747,-3.4945,-3.4047,-3.3774,-3.3774,-3.3774,-3.3699,-3.3575,-3.3575,-3.3408,-3.3255,-3.322,-3.3206,-3.3192,-3.3157,-3.3157,-3.294,-3.2282,-3.217,-3.1701,-3.0254,-3.0042,-3.012,-3.0354,-2.932,-2.8546,-2.8546,-2.8546,-2.8481,-2.8352,-2.9048,-2.9097,-2.8117,-2.8241,-2.7973,-2.7113,-2.7079,-2.7079,-2.7079,-2.7079,-2.739,-2.8019,-2.8019,-2.8363,-2.9002,-2.9034,-2.9034,0.0,0.0,-3.3437,-3.3388,-3.3582,-3.3761,-3.3761,-3.3939,-3.4101,-3.4101,-3.4101,-3.4101,-3.4101,-3.4101,-3.4101,-3.4101,-3.4101,-3.4101,-3.4101,-3.4101,-3.436,-3.5114,-3.5623,0.0,0.0,0.0,0.0,-3.811,-3.8103,-3.8205,-3.8432,-3.842,-3.8391,-3.8391,-3.8391,-3.8391,-3.8391,-3.8877,-3.9017,-3.8723,-3.8585,-3.8482,-3.8357,-3.8258,-3.8344,-3.8527,-3.8231,-3.7748,-3.7154,-3.705,-3.6876,-3.6707,-3.6675,-3.6398,-3.5936,-3.5571,-3.5288,-3.5017,-3.4936,-3.4909,-3.4843,-3.4595,-3.4614,-3.4647,-3.4095,-3.4013,-3.4114,-3.3808,-3.365,-3.3561,-3.3561,-3.3422,-3.3297,-3.3297,-3.3262,-3.3038,-3.2398,-3.2254,-3.2074,-3.1479,-3.1331,-3.1265,-3.1043,-3.1003,-3.0708,-2.9816,-2.9327,-2.9095,-2.9201,-2.8515,-2.8025,-2.8025,-2.7712,-2.749,-2.7436,-2.7676,-2.7709,-2.7356,-2.739,-2.7302,-2.7024,-2.699,-2.6943,-2.6794,-2.6794,-2.685,-2.7007,-2.7007,-2.7129,-2.7351,-2.7802,-2.7986,0.0,-3.4101,-3.4101,-3.4101,-3.4101,-3.4101,-3.4101,-3.4101,-3.4101,-3.4101,-3.4101,-3.4101,-3.4101,-3.4101,-3.4101,-3.4101,-3.4101,-3.4101,-3.4101,-3.4327,-3.4764,-3.5493,-3.6222,-3.6934,0.0,0.0,0.0,-3.8375,-3.8391,-3.8391,-3.8391,-3.8307,-3.8278,-3.8391,-3.8405,-3.846,-3.8576,-3.9184,-3.9251,-3.8807,-3.8554,-3.8422,-3.8437,-3.813,-3.811,-3.8336,-3.8128,-3.7692,-3.7142,-3.7142,-3.6939,-3.6582,-3.6519,-3.6164,-3.5586,-3.5203,-3.4813,-3.444,-3.4491,-3.4538,-3.4446,-3.4008,-3.3957,-3.397,-3.3199,-3.3094,-3.3164,-3.2812,-3.2684,-3.2605,-3.2605,-3.2461,-3.2318,-3.2318,-3.2232,-3.2051,-3.1442,-3.1294,-3.1121,-3.0508,-3.0406,-3.0406,-3.0406,-3.033,-3.0177,-2.9781,-2.9324,-2.8905,-2.863,-2.8295,-2.8078,-2.8078,-2.7771,-2.7455,-2.7228,-2.7272,-2.7148,-2.6854,-2.6875,-2.6875,-2.6807,-2.6807,-2.6773,-2.6624,-2.6624,-2.6589,-2.6499,-2.6499,-2.6499,-2.6499,-2.6939,-2.7129,-3.4101,-3.4101,-3.4101,-3.4101,-3.4101,-3.4101,-3.4101,-3.4101,-3.4101,-3.4101,-3.4101,-3.4101,0.0,0.0,-3.4101,-3.4101,-3.4101,-3.4101,-3.4101,-3.4716,-3.5461,0.0,0.0,0.0,0.0,0.0,0.0,-3.8307,-3.8335,-3.8335,-3.8335,-3.8046,-3.8033,-3.84,-3.8382,-3.8551,-3.893,-3.9296,-3.9202,-3.8589,-3.8241,-3.8137,-3.8165,-3.7925,-3.8171,-3.8745,-3.8745,-3.8412,-3.781,-3.781,-3.725,-3.6336,-3.6203,-3.562,-3.4801,-3.4741,-3.4382,-3.3925,-3.3925,-3.3923,-3.3813,-3.3216,-3.3371,-3.3505,-3.2092,-3.2,-3.2164,-3.1312,-3.0999,-3.0986,-3.0986,-3.0849,-3.0698,-3.0698,-3.0533,-3.0406,-3.0406,-3.0368,-3.0368,-3.0368,-3.0368,-3.0368,-3.0368,-3.0228,-3.0075,-3.0075,-2.9934,-2.9517,-2.8773,-2.8643,-2.863,-2.863,-2.8592,-2.8316,-2.7678,-2.7742,-2.7452,-2.6596,-2.6662,-2.6649,-2.6499,-2.6499,-2.6499,-2.6499,-2.6499,-2.6499,-2.6499,-2.6499,-2.6499,-2.6499,-2.6499,-2.6499,-3.405,-3.4101,-3.4101,-3.4101,-3.4101,-3.4101,-3.4101,-3.4101,-3.4101,-3.4101,-3.4101,-3.4101,0.0,0.0,0.0,-3.4101,-3.4101,0.0,-3.4101,-3.4716,0.0,-3.5878,0.0,-3.7102,-3.7618,-3.7594,0.0,0.0,-3.7653,-3.7653,-3.7653,-3.7565,-3.7803,-3.8386,-3.8395,-3.8713,-3.9359,-3.9256,-3.8941,-3.846,-3.8106,-3.7952,-3.7964,-3.7904,-3.7968,-3.8113,-3.8113,-3.7634,-3.6772,-3.6772,-3.6443,-3.5871,-3.5853,-3.5479,-3.5036,-3.4996,-3.47,-3.4294,-3.4294,-3.4126,-3.3842,-3.3386,-3.3332,-3.3292,-3.2605,-3.221,-3.1906,-3.1652,-3.1199,-3.0773,-3.0773,-3.0609,-3.0482,-3.0482,-3.0444,-3.0368,-3.0228,-3.019,-3.0113,-2.9972,-2.9934,-2.9934,-2.9934,-2.9895,-2.9869,-2.9869,-2.983,-2.973,-2.9504,-2.9088,-2.8824,-2.8824,-2.8458,-2.8156,-2.7981,-2.8005,-2.7765,-2.714,-2.7138,-2.6961,-2.6512,-2.6499,-2.6499,-2.6499,-2.6499,-2.6499,-2.6499,-2.6499,-2.6499,-2.6499,-2.6499,-2.6499,-3.3848,-3.3924,-3.3949,-3.4075,-3.4101,-3.4101,-3.4101,-3.4101,-3.4101,-3.4101,-3.4101,0.0,0.0,0.0,0.0,0.0,0.0,0.0,-3.3761,-3.4627,-3.5277,0.0,-3.6127,0.0,-3.6706,-3.6585,-3.6631,0.0,-3.7208,-3.7514,-3.7814,-3.7725,-3.8055,-3.8856,-3.8874,-3.9102,-3.957,-3.9161,-3.8695,-3.8182,-3.7985,-3.7772,-3.7519,-3.7519,-3.7404,-3.725,-3.725,-3.6797,-3.6098,-3.6098,-3.5844,-3.544,-3.544,-3.5154,-3.4784,-3.4784,-3.4618,-3.4397,-3.4397,-3.4266,-3.4047,-3.3569,-3.3423,-3.3331,-3.2856,-3.2398,-3.2058,-3.2058,-3.15,-3.0907,-3.0907,-3.0599,-3.0254,-3.0254,-3.019,-3.0113,-2.9972,-2.9972,-2.9934,-2.983,-2.9792,-2.9792,-2.9792,-2.9792,-2.9792,-2.9792,-2.9792,-2.9792,-2.9792,-2.9503,-2.9302,-2.9302,-2.9026,-2.875,-2.8486,-2.8461,-2.8235,-2.767,-2.7645,-2.7507,-2.7228,-2.6989,-2.6851,-2.6851,-2.6612,-2.6499,-2.6499,-2.6499,-2.6499,-2.6499,-2.6499,-2.6499,-3.3633,-3.3694,-3.3771,-3.4025,-3.4101,-3.4101,-3.4101,-3.4101,-3.4101,-3.4101,0.0,-3.4101,-3.4101,-3.3899,-3.3745,-3.371,0.0,-3.3319,-3.3309,-3.451,-3.5166,-3.4603,-3.5719,-3.6322,-3.5726,-3.5452,-3.5529,-3.6006,-3.6754,-3.7464,-3.8137,-3.7857,-3.8199,-3.9232,-3.936,-3.9408,-3.9451,-3.8929,-3.8375,-3.7772,-3.7772,-3.7481,-3.6915,-3.6915,-3.6693,-3.6312,-3.6312,-3.6058,-3.5642,-3.5642,-3.5399,-3.499,-3.499,-3.4784,-3.4397,-3.4397,-3.4397,-3.4397,-3.4397,-3.4397,-3.4277,-3.3849,-3.3705,-3.3559,-3.3037,-3.2682,-3.247,-3.247,-3.1884,-3.1277,-3.1277,-3.0712,-3.0151,-3.0151,-2.9997,-2.9792,-2.9792,-2.9792,-2.9792,-2.9792,-2.9792,-2.9792,-2.9792,-2.9792,-2.9792,-2.9792,-2.9792,-2.9792,-2.9792,-2.9792,-2.9792,-2.9792,-2.9792,-2.9591,-2.9051,-2.9001,-2.8775,-2.8247,-2.821,-2.8185,-2.8109,-2.7645,-2.7394,-2.7394,-2.6952,-2.6713,-2.6713,-2.6637,-2.66,-2.66,-2.6524,-2.6499,-3.3581,-3.3694,-3.3771,-3.4025,-3.4101,-3.4101,-3.4101,-3.4101,0.0,0.0,0.0,-3.4101,-3.4101,-3.405,0.0,-3.3736,0.0,0.0,0.0,0.0,-3.5096,0.0,0.0,0.0,0.0,0.0,0.0,0.0,-3.5728,-3.6319,-3.6882,-3.6439,-3.6771,-3.8062,-3.8641,-3.8701,-3.8225,-3.8113,-3.7734,-3.7173,-3.7173,-3.6915,-3.651,-3.651,-3.6258,-3.5804,-3.5804,-3.5602,-3.5195,-3.5195,-3.4949,-3.4522,-3.4522,-3.4481,-3.4397,-3.4397,-3.4397,-3.4397,-3.4397,-3.4272,-3.4134,-3.4251,-3.4142,-3.4004,-3.39,-3.3385,-3.2818,-3.2818,-3.2232,-3.1584,-3.1584,-3.1072,-3.0509,-3.0509,-3.017,-2.9792,-2.9792,-2.9792,-2.9792,-2.9792,-2.9792,-2.9792,-2.9792,-2.9792,-2.9792,-2.9792,-2.9792,-2.9792,-2.9792,-2.9792,-2.9792,-2.9792,-2.9792,-2.9754,-2.9654,-2.9641,-2.9402,-2.8787,-2.875,-2.8549,-2.8122,-2.8009,-2.7959,-2.7959,-2.7871,-2.7821,-2.7821,-2.7369,-2.7178,-2.7165,-2.6713,-2.6499,-3.3176,-3.3372,-3.3555,-3.3822,-3.3899,-3.3924,-3.4075,0.0,0.0,0.0,0.0,-3.4101,-3.4101,0.0,0.0,0.0,0.0,0.0,0.0,0.0,0.0,0.0,0.0,0.0,0.0,0.0,-3.4187,-3.4476,-3.4779,-3.5494,-3.6643,-3.7103,-3.7662,-3.831,-3.8325,-3.8188,-3.7886,-3.7582,-3.7173,-3.6693,-3.6693,-3.6457,-3.6058,-3.6058,-3.5804,-3.5399,-3.5399,-3.5154,-3.4743,-3.4743,-3.4605,-3.4397,-3.4397,-3.4397,-3.4397,-3.4397,-3.3995,-3.356,-3.405,-3.3755,-3.3275,-3.3839,-3.3979,-3.3894,-3.3894,-3.3546,-3.3173,-3.3173,-3.2558,-3.1949,-3.1949,-3.1505,-3.1022,-3.1022,-3.0608,-3.0091,-2.9661,-2.9599,-2.9573,-2.9456,-2.9429,-2.9429,-2.9429,-2.9429,-2.9429,-2.9429,-2.9429,-2.9429,-2.9429,-2.9429,-2.9495,-2.9573,-2.9495,-2.9429,-2.9429,-2.9534,-2.9487,-2.9173,-2.9288,-2.9264,-2.9001,-2.8699,-2.8536,-2.8536,-2.8247,-2.8109,-2.8109,-2.7846,-2.7708,-2.7708,-2.7444,-2.7318,-3.2816,-3.3112,-3.3346,-3.3617,-3.3694,-3.3771,-3.405,-3.3899,0.0,0.0,0.0,-3.4101,-3.4101,0.0,0.0,0.0,0.0,0.0,0.0,0.0,0.0,0.0,0.0,0.0,0.0,0.0,0.0,-3.3894,-3.4236,-3.5074,-3.656,-3.7711,-3.83,-3.83,-3.772,-3.7414,-3.7414,-3.6978,-3.6561,-3.6232,-3.6232,-3.6018,-3.5562,-3.5562,-3.5358,-3.4949,-3.4949,-3.4743,-3.4397,-3.423,-3.4189,-3.4189,-3.4008,-3.3869,-3.3784,-3.3784,-3.3109,-3.2308,-3.3122,-3.2735,-3.2028,-3.2778,-3.3318,-3.3641,-3.3641,-3.3513,-3.3356,-3.3356,-3.2869,-3.239,-3.239,-3.1989,-3.1537,-3.1383,-3.1004,-3.0538,-2.9826,-2.9688,-2.9584,-2.9327,-2.9263,-2.9226,-2.9116,-2.9091,-2.9091,-2.9091,-2.9091,-2.9091,-2.9091,-2.9052,-2.9079,-2.9263,-2.9157,-2.9091,-2.9091,-2.9236,-2.9341,-2.9341,-2.9534,-2.9663,-2.9663,-2.9187,-2.895,-2.895,-2.8525,-2.835,-2.8374,-2.8262,-2.8236,-2.8285,-2.816,-2.8109,-3.2816,-3.3112,-3.3346,-3.3617,-3.3694,-3.3771,-3.405,0.0,0.0,0.0,-3.4101,-3.4101,-3.4101,-3.4075,0.0,0.0,0.0,0.0,0.0,0.0,0.0,0.0,0.0,0.0,0.0,0.0,-3.3312,-3.3382,-3.4444,-3.5409,-3.6128,-3.6448,-3.6628,-3.6628,-3.6165,-3.5911,-3.5911,-3.5831,-3.579,-3.575,-3.575,-3.5562,-3.5154,-3.5154,-3.4908,-3.4481,-3.4481,-3.4439,-3.4356,-3.3725,-3.3484,-3.3441,-3.2747,-3.2246,-3.184,-3.184,-3.1464,-3.0998,-3.1086,-3.092,-3.0676,-3.0765,-3.1984,-3.3441,-3.3441,-3.3283,-3.3111,-3.3111,-3.3074,-3.3006,-3.3006,-3.2566,-3.1972,-3.1278,-3.1087,-3.0955,-3.0647,-3.0593,-3.0446,-2.9914,-2.9828,-2.9668,-2.9177,-2.9091,-2.9091,-2.9091,-2.9091,-2.9091,-2.9091,-2.8922,-2.8831,-2.8831,-2.9,-2.9091,-2.9091,-2.9131,-2.9131,-2.9131,-2.9131,-2.917,-2.917,-2.9121,-2.9096,-2.9096,-2.9047,-2.9088,-2.9269,-2.8773,-2.865,-2.88,-2.8335,-2.8109,-3.2551,-3.2812,-3.3069,-3.3203,-3.3319,-3.3529,-3.3797,0.0,0.0,0.0,-3.4101,-3.4101,-3.4101,-3.4101,-3.4075,0.0,0.0,0.0,0.0,0.0,0.0,0.0,0.0,0.0,0.0,0.0,-3.336,-3.3459,-3.4293,-3.4968,-3.5347,-3.602,-3.6272,-3.5978,-3.5804,-3.571,-3.571,-3.571,-3.5602,-3.5358,-3.5358,-3.5113,-3.4701,-3.4701,-3.4564,-3.4397,-3.3979,-3.381,-3.3725,-3.3018,-3.2575,-3.2302,-3.1984,-3.1577,-3.1098,-3.1098,-3.0574,-2.9863,-3.0428,-3.009,-2.9521,-3.0102,-3.0833,-3.1468,-3.1468,-3.1789,-3.222,-3.222,-3.2624,-3.3081,-3.2896,-3.2605,-3.2166,-3.1494,-3.1358,-3.1188,-3.0619,-3.0516,-3.0401,-3.0099,-3.001,-2.9949,-2.9743,-2.9428,-2.9221,-2.9221,-2.8955,-2.8749,-2.8749,-2.8657,-2.8618,-2.8618,-2.8697,-2.8749,-2.8749,-2.8855,-2.8922,-2.8922,-2.904,-2.9091,-2.9091,-2.9091,-2.9091,-2.9091,-2.9091,-2.9131,-2.9236,-2.9026,-2.8954,-2.9031,-2.8923,-2.8823,-3.2398,-3.2648,-3.2897,-3.2897,-3.3032,-3.3282,0.0,0.0,0.0,-3.4025,-3.4101,-3.4101,-3.4101,-3.4101,-3.4101,-3.4101,0.0,-3.2583,0.0,0.0,0.0,0.0,0.0,0.0,0.0,-3.3206,-3.3195,-3.3427,-3.3994,-3.4421,-3.4683,-3.5531,-3.5858,-3.5521,-3.5386,-3.5304,-3.5304,-3.5304,-3.5182,-3.4908,-3.4908,-3.4743,-3.4397,-3.4189,-3.4105,-3.4063,-3.3245,-3.2846,-3.2803,-3.1909,-3.1368,-3.1045,-3.0833,-3.0451,-2.9977,-2.9977,-2.9372,-2.8667,-2.9326,-2.9026,-2.8398,-2.913,-2.9349,-2.9349,-2.9257,-3.0351,-3.1581,-3.1536,-3.2176,-3.2865,-3.268,-3.2519,-3.2246,-3.1767,-3.1669,-3.1473,-3.0895,-3.0779,-3.0689,-3.0392,-3.0326,-3.0266,-3.011,-2.9785,-2.9532,-2.9532,-2.9088,-2.8751,-2.8751,-2.8607,-2.851,-2.851,-2.851,-2.851,-2.851,-2.8618,-2.8724,-2.8724,-2.8855,-2.8934,-2.8934,-2.8934,-2.8934,-2.8934,-2.8934,-2.8934,-2.9013,-2.9013,-2.9052,-2.9091,-2.9236,-2.9236,-3.2398,-3.2648,-3.2897,-3.2897,-3.2897,-3.3043,0.0,0.0,0.0,-3.4,-3.4101,-3.4101,-3.4101,-3.4101,-3.4101,-3.4101,-3.2971,0.0,0.0,0.0,0.0,0.0,0.0,0.0,-3.329,-3.2931,-3.2822,-3.3098,-3.3618,-3.3983,-3.418,-3.4766,-3.5127,-3.5127,-3.466,-3.4397,-3.4397,-3.4397,-3.4397,-3.4397,-3.4397,-3.4397,-3.4397,-3.3725,-3.3398,-3.3343,-3.2127,-3.1621,-3.1533,-3.0339,-2.9806,-2.9772,-2.9106,-2.8513,-2.8034,-2.8034,-2.7715,-2.7309,-2.7309,-2.7309,-2.7309,-2.7309,-2.7309,-2.7262,-2.6986,-2.913,-3.1581,-3.1347,-3.1825,-3.2388,-3.24,-3.24,-3.2344,-3.2069,-3.1981,-3.1937,-3.1737,-3.1693,-3.1536,-3.1019,-3.091,-3.0699,-3.017,-3.0086,-3.0074,-3.0074,-2.9629,-2.9292,-2.9292,-2.8835,-2.851,-2.851,-2.851,-2.851,-2.851,-2.851,-2.851,-2.851,-2.851,-2.851,-2.851,-2.851,-2.851,-2.851,-2.851,-2.8618,-2.8791,-2.8791,-2.8922,-2.9091,-2.9091,-2.9091,-3.1582,-3.1801,-3.1963,-3.2427,-3.2346,-3.219,-3.2358,0.0,0.0,-3.2114,-3.2622,-3.3099,-3.3124,-3.3374,-3.3513,-3.3387,-3.2501,0.0,0.0,0.0,0.0,0.0,0.0,0.0,0.0,0.0,-3.2209,-3.2095,-3.2557,-3.2781,-3.2567,-3.312,-3.3844,-3.4592,-3.4481,-3.4397,-3.4397,-3.4397,-3.4397,-3.4397,-3.3937,-3.3738,-3.3683,-3.2661,-3.2171,-3.2127,-3.0878,-3.0384,-3.0294,-2.9395,-2.8852,-2.8538,-2.8326,-2.7951,-2.7536,-2.7536,-2.7441,-2.7309,-2.7309,-2.7309,-2.7262,-2.7081,-2.7044,-2.6986,-2.6699,-2.8387,-3.0588,-3.1737,-3.2069,-3.2125,-3.2125,-3.2025,-3.1893,-3.1805,-3.1805,-3.1761,-3.1705,-3.1705,-3.1657,-3.1488,-3.1452,-3.1404,-3.1235,-3.091,-3.0669,-3.0669,-3.017,-2.9701,-2.9352,-2.9148,-2.8919,-2.8546,-2.851,-2.851,-2.851,-2.851,-2.851,-2.851,-2.851,-2.851,-2.851,-2.851,-2.851,-2.851,-2.851,-2.855,-2.8578,-2.8578,-2.8697,-2.8882,-2.8736,-2.8828,0.0,-3.1028,-3.112,-3.1551,-3.1469,0.0,0.0,0.0,0.0,-3.1573,-3.2085,-3.2583,-3.2879,-3.3139,-3.3198,-3.2911,-3.2213,0.0,0.0,0.0,0.0,0.0,0.0,0.0,0.0,-3.1909,-3.1776,-3.1421,-3.1876,-3.2053,-3.1797,-3.2385,-3.3012,-3.3731,-3.3979,-3.4188,-3.4397,-3.4397,-3.4272,-3.4021,-3.3416,-3.2975,-3.2673,-3.1456,-3.0911,-3.0866,-2.9658,-2.913,0.0,-2.8445,-2.7998,-2.7715,-2.7715,-2.7536,-2.7309,-2.7309,-2.7309,-2.7309,-2.7167,-2.7177,-2.7071,-2.6842,-2.6938,-2.7204,-2.7421,-2.8434,-2.9909,-3.1749,-3.2081,-3.1893,-3.1893,-3.1805,-3.1705,-3.1705,-3.1705,-3.1705,-3.1705,-3.1705,-3.1705,-3.1705,-3.1705,-3.1705,-3.1705,-3.1428,-3.1211,-3.1211,-3.0766,-3.0266,-2.9941,-2.9725,-2.94,-2.8871,-2.8811,-2.8727,-2.8522,-2.851,-2.851,-2.851,-2.851,-2.851,-2.851,-2.851,-2.851,-2.851,-2.851,-2.851,-2.851,-2.851,-2.8538,-2.8685,-2.8538,-2.863,0.0,0.0,0.0,0.0,0.0,0.0,0.0,0.0,0.0,0.0,0.0,0.0,-3.3077,-3.3182,-3.3038,-3.2602,0.0,0.0,0.0,0.0,0.0,0.0,0.0,0.0,-3.1629,-3.1556,-3.1421,-3.1024,-3.1445,-3.1745,-3.1745,-3.228,-3.2594,-3.262,-3.3169,-3.3731,-3.4267,-3.4184,-3.385,-3.3229,-3.261,-3.2005,-3.1384,-3.0146,-2.9636,-2.9635,-2.8445,-2.7951,-2.7904,-2.7441,-2.7262,-2.7309,-2.7262,-2.7262,-2.7262,-2.7262,-2.7262,-2.7214,-2.6948,-2.6853,-2.6853,-2.664,-2.704,-2.7778,-2.8841,-2.9176,-2.9589,-3.1439,-3.1849,-3.1705,-3.1705,-3.1705,-3.1705,-3.1705,-3.1705,-3.1705,-3.1705,-3.1705,-3.1705,-3.1705,-3.1705,-3.1705,-3.1705,-3.1705,-3.1705,-3.1705,-3.1296,-3.0958,-3.0879,-3.0446,-2.9941,-2.9412,-2.9352,-2.9136,-2.8607,-2.8534,-2.851,-2.851,-2.851,-2.851,-2.851,-2.851,-2.851,-2.851,-2.851,-2.851,-2.851,-2.851,-2.851,-2.851,-2.851,-2.851,0.0,0.0,0.0,0.0,0.0,0.0,0.0,0.0,0.0,0.0,0.0,0.0,0.0,0.0,0.0,0.0,0.0,0.0,0.0,0.0,0.0,0.0,-3.129,-3.1703,-3.1593,-3.131,-3.1099,-3.1024,-3.1117,-3.1196,-3.1196,-3.1313,-3.1588,-3.1993,-3.2137,-3.2529,-3.3091,-3.2271,-3.1807,-3.1642,-3.0107,-2.95,-2.9673,-2.8429,-2.8099,-2.8398,-2.7762,-2.7441,-2.7394,-2.6668,-2.6726,-2.7262,-2.663,-2.664,-2.6986,-2.6986,-2.6842,-2.6688,-2.6602,-2.6592,-2.6688,-2.7183,-2.7305,-2.7615,-2.9383,-2.9943,-3.0181,-3.1427,-3.1761,-3.1705,-3.1705,-3.1705,-3.1705,-3.1705,-3.1705,-3.1705,-3.1705,-3.1705,-3.1705,-3.1705,-3.1705,-3.1705,-3.1705,-3.1705,-3.1705,-3.1705,-3.1609,-3.138,-3.0927,-3.0814,-3.0494,-2.9965,-2.9893,-2.9689,-2.916,-2.8739,-2.851,-2.851,-2.851,-2.851,-2.851,-2.851,-2.851,-2.851,-2.851,-2.851,-2.851,-2.851,-2.851,-2.851,-2.851,-2.851,0.0,0.0,0.0,0.0,0.0,0.0,0.0,0.0,0.0,0.0,0.0,0.0,0.0,0.0,0.0,0.0,0.0,0.0,0.0,0.0,0.0,0.0,-3.0994,-3.1519,0.0,-3.1123,-3.0986,-3.0986,-3.0986,-3.0986,-3.0986,-3.0986,-3.113,-3.1431,-3.0958,-3.1097,-3.1955,-3.1405,-3.0684,-2.9852,-2.8632,-2.8052,-2.7922,-2.7046,-2.6785,-2.7027,-2.6759,-2.6481,-2.6107,-2.5894,-2.5984,-2.6252,-2.6011,-2.6245,-2.6699,-2.6699,-2.6602,-2.6496,-2.6352,-2.6255,-2.6255,-2.7115,-2.7615,-2.8168,-2.9749,-3.0543,-3.1003,-3.1572,-3.1705,-3.1705,-3.1705,-3.1705,-3.1705,-3.1705,-3.1705,-3.1705,-3.1705,-3.1705,-3.1705,-3.1705,-3.1705,-3.1705,-3.1705,-3.1705,-3.1705,-3.1705,-3.1705,-3.1609,-3.132,-3.1284,-3.1079,-3.0506,-3.0446,-3.0242,-2.9701,-2.94,-2.9027,-2.8546,-2.851,-2.851,-2.851,-2.851,-2.851,-2.851,-2.851,-2.851,-2.851,-2.851,-2.851,-2.851,-2.851,-2.851,0.0,0.0,0.0,0.0,0.0,0.0,0.0,0.0,0.0,0.0,0.0,0.0,0.0,0.0,0.0,0.0,0.0,0.0,0.0,0.0,0.0,-2.988,-3.0814,0.0,-3.1123,-3.1061,-3.0986,-3.0986,-3.0986,-3.0986,-3.0986,-3.0986,-3.0911,-3.0748,-2.9845,-2.9685,-3.0356,-3.0356,-2.9571,-2.8028,-2.7467,-2.691,-2.6388,-2.5951,-2.5813,-2.5875,-2.5875,-2.5502,-2.4828,-2.5132,-2.5149,-2.5047,-2.5313,-2.5748,-2.6247,-2.6247,-2.624,-2.6262,-2.6081,-2.5868,-2.5868,-2.7057,-2.8028,-2.8912,-3.0079,-3.1003,-3.1705,-3.1705,-3.1705,-3.1705,-3.1705,-3.1705,-3.1705,-3.1705,-3.1705,-3.1705,-3.1705,-3.1705,-3.1705,-3.1705,-3.1705,-3.1705,-3.1705,-3.1705,-3.1705,-3.1705,-3.1705,-3.1705,-3.1705,-3.1705,-3.1536,-3.1091,-3.1043,-3.0783,-3.0254,-3.0206,-2.9785,-2.8811,-2.8679,-2.8595,-2.851,-2.8391,-2.8299,-2.8299,-2.8179,-2.8087,-2.8087,-2.8087,-2.8087,-2.8087,-2.8087,-2.8087,-2.8756,0.0,0.0,0.0,0.0,0.0,0.0,0.0,0.0,0.0,0.0,0.0,0.0,0.0,0.0,0.0,0.0,0.0,0.0,0.0,-2.9614,-2.9784,0.0,-3.1198,-3.1482,-3.1198,-3.0986,-3.0986,-3.0986,-3.0986,-3.0986,-3.0849,-3.0406,-2.9653,-2.9303,-2.8419,-2.6903,-2.6862,-2.6749,-2.6426,-2.5445,-2.5161,-2.5415,-2.5326,-2.5533,-2.5875,-2.5875,-2.5502,-2.4808,-2.4621,-2.4558,-2.4548,-2.4347,-2.4609,-2.5046,-2.5046,-2.5181,-2.5367,-2.5654,-2.5732,-2.6014,-2.7851,-2.8577,-2.905,-3.0913,-3.1572,-3.1705,-3.1705,-3.1705,-3.1705,-3.1705,-3.1705,-3.1705,-3.1705,-3.1705,-3.1705,-3.1705,-3.1705,-3.1705,-3.1705,-3.1705,-3.1705,-3.1705,-3.1705,-3.1705,-3.1705,-3.1705,-3.1705,-3.1705,-3.1705,-3.1681,-3.1597,-3.1585,-3.138,-3.0838,-3.0802,-3.0494,-2.9881,-2.9424,-2.8979,-2.8522,-2.7805,-2.7389,-2.7389,-2.6618,-2.6193,-2.6193,-2.6193,-2.6193,-2.6193,-2.6193,-2.6193,-2.8503,-2.8082,0.0,0.0,0.0,0.0,0.0,0.0,0.0,0.0,0.0,0.0,0.0,0.0,0.0,0.0,0.0,-2.8471,-2.8145,-2.8845,-2.9499,0.0,0.0,-3.0966,-3.1246,-3.1099,-3.0986,-3.0986,-3.0986,-3.0949,-3.0849,-3.0317,-2.9742,-2.9264,-2.8096,-2.7046,-2.611,-2.5505,-2.5232,-2.5221,-2.4743,-2.4611,-2.4817,-2.4817,-2.4877,-2.4985,-2.4985,-2.4202,-2.2936,-2.3035,-2.2991,-2.2917,-2.301,-2.3672,-2.4562,-2.4562,-2.4634,-2.4746,-2.4951,-2.5498,-2.6435,-2.7885,-2.8886,-2.9795,-3.1238,-3.1705,-3.1705,-3.1705,-3.1705,-3.1705,-3.1705,-3.1572,-3.1528,-3.1673,-3.1572,-3.1528,-3.1661,-3.1705,-3.1705,-3.1705,-3.1705,-3.1705,-3.1705,-3.1705,-3.1705,-3.1705,-3.1705,-3.1705,-3.1705,-3.1705,-3.1705,-3.1705,-3.1705,-3.1609,-3.1368,-3.1344,-3.0995,-3.0146,-2.9373,-2.8831,-2.8544,-2.764,-2.7039,-2.6825,-2.6392,-2.605,-2.5777,-2.5777,-2.5777,-2.5777,-2.5777,-2.5777,-2.8213,-2.7835,-2.7554,0.0,0.0,0.0,0.0,0.0,0.0,0.0,0.0,0.0,0.0,0.0,0.0,0.0,-2.8164,-2.836,-2.8013,-2.8705,-2.9362,-2.9653,-3.0201,-3.0675,-3.0959,-3.0986,-3.0986,-3.0986,-3.0785,-3.0545,-3.0406,-2.9459,-2.877,-2.8398,-2.6842,-2.5913,-2.5715,-2.4903,-2.4497,-2.4497,-2.4497,-2.4358,-2.409,-2.409,-2.382,-2.343,-2.343,-2.2492,-2.0997,-2.1426,-2.1551,-2.1504,-2.1908,-2.2908,-2.4131,-2.4228,-2.4268,-2.4287,-2.4605,-2.5487,-2.6591,-2.7773,-2.8959,-3.0088,-3.106,-3.1432,-3.154,-3.154,-3.154,-3.154,-3.1572,-3.1395,-3.1261,-3.1496,-3.1395,-3.135,-3.1572,-3.1661,-3.1705,-3.1705,-3.1705,-3.1705,-3.1705,-3.1705,-3.1705,-3.1705,-3.1705,-3.1705,-3.1705,-3.1705,-3.1705,-3.1705,-3.1705,-3.1705,-3.1705,-3.1472,-3.0993,-3.0195,-2.9037,-2.839,-2.8266,-2.7294,-2.6646,-2.6335,-2.6107,-2.5838,-2.5477,-2.537,-2.5317,-2.5317,-2.52,-2.5158,-2.8048,-2.7484,-2.7192,0.0,0.0,0.0,0.0,0.0,0.0,0.0,0.0,0.0,0.0,0.0,0.0,0.0,-2.8295,-2.8013,-2.7603,0.0,-2.8677,-2.928,-2.982,-3.0359,-3.0934,-3.0986,-3.0986,-3.0986,-3.0088,-2.9524,-2.9485,-2.8295,-2.7221,-2.6359,-2.5986,-2.5421,-2.4615,-2.454,-2.4497,-2.4497,-2.4497,-2.3907,-2.2824,-2.2824,-2.2199,-2.1159,-2.1159,-2.0728,-2.0031,-2.0492,-2.0835,-2.1077,-2.1553,-2.2321,-2.3237,-2.3682,-2.3838,-2.4022,-2.5259,-2.5785,-2.6121,-2.7734,-2.8641,-2.9259,-3.0077,-3.0661,-3.1074,-3.1074,-3.1074,-3.1107,-3.1261,-3.1184,-3.1017,-3.1074,-3.1184,-3.1306,-3.1306,-3.1528,-3.1705,-3.1705,-3.1705,-3.1705,-3.1705,-3.1705,-3.1705,-3.1705,-3.1705,-3.1705,-3.1705,-3.1705,-3.1705,-3.1705,-3.1705,-3.1705,-3.1705,-3.0824,-3.0283,-3.0202,-2.8802,-2.7719,-2.7227,-2.6372,-2.5879,-2.5847,-2.4997,-2.4529,-2.45,-2.4106,-2.3954,-2.3944,-2.3496,-2.3309,-2.762,-2.6916,0.0,0.0,0.0,0.0,0.0,0.0,0.0,0.0,0.0,0.0,0.0,0.0,0.0,-2.7901,-2.7802,-2.7669,-2.7523,-2.7686,-2.8059,-2.8682,-2.9248,-2.9823,-3.0398,-3.0175,-3.0012,-3.0012,-2.9005,-2.8362,-2.8227,-2.7209,-2.64,-2.5944,-2.5306,-2.4818,-2.4497,-2.4368,-2.4325,-2.4292,-2.3691,-2.3367,-2.3377,-2.279,-2.2526,-2.2492,-2.1854,-2.1364,-2.0926,-1.9923,-1.9877,-2.0565,-2.1373,-2.228,-2.311,-2.3276,-2.3344,-2.3497,-2.4473,-2.5357,-2.629,-2.7353,-2.8608,-2.9799,-3.0118,-3.0593,-3.0984,-3.0984,-3.0883,-3.0826,-3.105,-3.0916,-3.0769,-3.0972,-3.0916,-3.0937,-3.1261,-3.1395,-3.1484,-3.1661,-3.1705,-3.1705,-3.1705,-3.1705,-3.1705,-3.1705,-3.1705,-3.1705,-3.1705,-3.1705,-3.1705,-3.1705,-3.1705,-3.1705,-3.1705,-3.0215,-2.951,-3.017,-2.846,-2.7361,-2.7182,-2.6245,-2.5607,-2.5375,-2.5002,-2.4687,-2.4414,-2.4258,-2.418,-2.417,-2.374,-2.3589,-2.703,-2.6522,0.0,0.0,0.0,0.0,0.0,0.0,0.0,0.0,0.0,0.0,0.0,0.0,0.0,0.0,-2.7603,-2.749,-2.749,-2.749,-2.7699,-2.8307,-2.8717,-2.9151,-2.9689,-2.9188,-2.8883,-2.9018,-2.7795,-2.7077,-2.7058,-2.6121,-2.5547,-2.5379,-2.4818,-2.4454,-2.4411,-2.4282,-2.412,-2.398,-2.2658,-2.2296,-2.2755,-2.2129,-2.1721,-2.1498,-2.0818,-2.0458,-2.024,-1.9201,-1.9559,-2.0782,-2.1784,-2.2511,-2.3057,-2.3353,-2.3387,-2.3464,-2.4531,-2.5551,-2.6449,-2.7147,-2.8372,-2.9628,-2.9694,-3.0082,-3.0549,-3.0701,-3.0634,-3.0532,-3.0691,-3.0589,-3.0532,-3.0691,-3.0679,-3.0713,-3.1128,-3.1261,-3.1395,-3.1661,-3.1705,-3.1705,-3.1705,-3.1705,-3.1705,-3.1705,-3.1705,-3.1705,-3.1705,-3.1705,-3.1705,-3.1705,-3.1705,-3.1705,-3.1705,-3.017,-2.9475,-3.017,-2.8308,-2.7189,-2.7189,-2.6235,-2.5596,-2.5283,-2.5283,-2.5127,-2.4787,-2.4687,-2.4619,-2.4609,-2.4281,-2.4165,-2.6349,-2.6283,0.0,0.0,0.0,0.0,0.0,0.0,0.0,0.0,0.0,0.0,0.0,0.0,0.0,-2.8013,-2.7769,-2.749,-2.749,-2.749,-2.7699,-2.8307,-2.8213,-2.8342,-2.8935,-2.8132,-2.7755,-2.8146,-2.6489,-2.5654,-2.6036,-2.5052,-2.4487,-2.4487,-2.4487,-2.4401,-2.4196,-2.4196,-2.3937,-2.345,-2.1543,-2.0593,-2.0593,-2.0593,-1.9368,-1.7326,-1.7326,-1.7326,-1.7419,-1.8427,-1.9968,-2.1784,-2.2731,-2.2969,-2.2925,-2.3864,-2.4026,-2.4049,-2.5883,-2.6487,-2.661,-2.7278,-2.7841,-2.8333,-2.8605,-2.9079,-2.9596,-3.0078,-3.0216,-3.0216,-3.0216,-3.0216,-3.0216,-3.0216,-3.0397,-3.0668,-3.0927,-3.1139,-3.1395,-3.1661,-3.1705,-3.1705,-3.1705,-3.1705,-3.1705,-3.1705,-3.1705,-3.1705,-3.1705,-3.1705,-3.1705,-3.1705,-3.1705,-3.1705,-3.1705,-3.0779,-3.0215,-3.0215,-2.8308,-2.7189,-2.7189,-2.6235,-2.5693,-2.5693,-2.5693,-2.5693,-2.5693,-2.5293,-2.5125,-2.5106,-2.4917,-2.4802,-2.6496,0.0,0.0,0.0,0.0,0.0,0.0,0.0,0.0,0.0,0.0,0.0,0.0,0.0,0.0,-2.7669,-2.757,-2.749,-2.749,-2.749,-2.7522,-2.7603,-2.7911,-2.793,-2.7433,-2.6796,-2.6244,-2.5842,-2.4618,-2.3911,-2.4048,-2.3742,-2.3505,-2.3392,-2.3381,-2.3267,-2.306,-2.3195,-2.2867,-2.2021,-2.1601,-2.1373,-2.1329,-1.9968,-1.933,-1.9276,-1.865,-1.8742,-1.9368,-1.965,-2.0421,-2.1472,-2.1739,-2.2104,-2.2618,-2.3594,-2.3887,-2.4049,-2.5715,-2.6279,-2.6404,-2.7085,-2.7647,-2.8153,-2.8594,-2.9079,-2.9596,-3.0078,-3.0216,-3.0216,-3.0216,-3.0216,-3.0216,-3.0216,-3.0397,-3.0668,-3.0927,-3.1139,-3.1395,-3.1661,-3.1705,-3.1705,-3.1705,-3.1705,-3.1705,-3.1705,-3.1705,-3.1705,-3.1705,-3.1705,-3.1705,-3.1705,-3.1705,-3.1705,-3.1705,-3.0125,-2.9749,-3.1149,-2.8038,-2.6466,-2.7189,-2.6235,-2.5693,-2.5693,-2.5693,-2.5693,-2.5693,-2.5605,-2.5624,-2.5796,-2.5466,-2.5455,-2.5974,0.0,0.0,0.0,0.0,0.0,0.0,0.0,0.0,0.0,0.0,0.0,-2.749,-2.749,0.0,-2.749,-2.749,-2.7503,-2.7436,-2.7436,-2.7255,-2.6756,-2.6958,-2.6764,-2.5864,-2.514,-2.4653,-2.4365,-2.348,-2.2987,-2.3174,-2.3103,-2.3032,-2.291,-2.2829,-2.2492,-2.1938,-2.2026,-2.1594,-2.0542,-2.0298,-2.014,-2.0113,-1.9199,-1.888,-1.901,-1.8473,-1.8926,-2.0059,-2.0059,-2.0746,-2.1748,-2.1748,-2.2192,-2.295,-2.3844,-2.4349,-2.4776,-2.6155,-2.658,-2.6663,-2.7056,-2.7438,-2.7816,-2.8494,-2.893,-2.932,-3.0021,-3.0216,-3.0216,-3.0216,-3.0216,-3.0216,-3.0216,-3.0397,-3.0668,-3.0927,-3.1139,-3.1395,-3.1661,-3.1705,-3.1705,-3.1705,-3.1705,-3.1705,-3.1705,-3.1705,-3.1705,-3.1705,-3.1705,-3.1705,-3.1705,-3.1705,-3.1705,-3.1705,-3.0215,-2.9795,-3.1015,-2.8085,-2.6552,-2.7189,-2.6235,-2.5693,-2.5693,-2.5693,-2.5693,-2.5693,-2.5693,-2.583,-2.6091,-2.5976,-2.6104,0.0,0.0,0.0,0.0,0.0,0.0,0.0,0.0,0.0,0.0,0.0,-2.749,-2.749,-2.749,-2.749,-2.749,-2.749,-2.739,-2.7235,-2.7154,-2.679,-2.5789,-2.5545,-2.5158,-2.4337,-2.3497,-2.3138,-2.3515,-2.2836,-2.2615,-2.3039,-2.2858,-2.2747,-2.2706,-2.2463,-2.182,-2.0749,-2.0703,-2.0168,-1.911,-1.8235,-1.7775,-1.7676,-1.8348,-1.8126,-1.7279,-1.7279,-1.8203,-1.9758,-1.9849,-2.0799,-2.2255,-2.2344,-2.2818,-2.3584,-2.4445,-2.52,-2.5913,-2.688,-2.719,-2.719,-2.719,-2.719,-2.7362,-2.8344,-2.8666,-2.8896,-2.9883,-3.0181,-3.0216,-3.0216,-3.0216,-3.0216,-3.0216,-3.0442,-3.0724,-3.0927,-3.1184,-3.1395,-3.1661,-3.1705,-3.1705,-3.1705,-3.1705,-3.1705,-3.1705,-3.1705,-3.1705,-3.1705,-3.1705,-3.1705,-3.1705,-3.1705,-3.1705,-3.1705,-3.0678,-3.0125,-3.0215,-2.8215,-2.7094,-2.7189,-2.6235,-2.5693,-2.5693,-2.5693,-2.5693,-2.5693,-2.5732,-2.5868,-2.6149,-2.64,-2.6699,0.0,0.0,0.0,0.0,0.0,0.0,0.0,0.0,0.0,0.0,0.0,-2.749,-2.749,-2.749,-2.749,-2.749,-2.7403,-2.7121,-2.6449,-2.6217,-2.5755,-2.4803,-2.466,-2.4312,-2.3386,-2.3113,-2.2772,-2.2237,-2.2067,-2.1927,-2.1875,-2.1837,-2.1653,-2.134,-2.0603,-2.0038,-1.9638,-1.927,-1.8632,-1.7631,-1.7733,-1.7391,-1.672,-1.7131,-1.7322,-1.7286,-1.7106,-1.7707,-1.875,-1.9347,-2.0158,-2.106,-2.1856,-2.2599,-2.3313,-2.4231,-2.5073,-2.5913,-2.688,-2.719,-2.719,-2.719,-2.719,-2.7305,-2.7954,-2.8402,-2.8827,-2.947,-2.9929,-3.0216,-3.0216,-3.0216,-3.0216,-3.0216,-3.0556,-3.0927,-3.0984,-3.1318,-3.1617,-3.1705,-3.1705,-3.1705,-3.1705,-3.1705,-3.1705,-3.1705,-3.1705,-3.1705,-3.1705,-3.1705,-3.1705,-3.1705,-3.1705,-3.1705,-3.1705,-3.0022,-2.9372,-3.017,-2.7579,-2.637,-2.7189,-2.6235,-2.5693,-2.5693,-2.5693,-2.5693,-2.5693,-2.5917,-2.6149,-2.64,-2.6699,-2.6938,0.0,0.0,0.0,0.0,0.0,0.0,0.0,0.0,0.0,0.0,-2.7323,-2.749,-2.749,-2.7469,-2.7403,-2.7403,-2.6939,-2.6402,-2.5941,-2.544,-2.4767,-2.3852,-2.3742,-2.3386,-2.2515,-2.244,-2.2252,-2.1845,-2.1693,-2.1617,-2.1512,-2.0905,-2.0479,-2.0294,-1.9323,-1.8598,-1.8078,-1.7819,-1.7218,-1.6331,-1.6542,-1.6417,-1.6031,-1.6343,-1.6889,-1.7598,-1.7383,-1.811,-1.9484,-1.9849,-2.0439,-2.1168,-2.1687,-2.2687,-2.3833,-2.4317,-2.5348,-2.6528,-2.7015,-2.719,-2.719,-2.719,-2.719,-2.7282,-2.7828,-2.8322,-2.8804,-2.9343,-2.9848,-3.0216,-3.0216,-3.0216,-3.0216,-3.0216,-3.0601,-3.0984,-3.0984,-3.1362,-3.1705,-3.1705,-3.1705,-3.1705,-3.1705,-3.1705,-3.1705,-3.1705,-3.1705,-3.1705,-3.1705,-3.1705,-3.1705,-3.1705,-3.1705,-3.1705,-3.1705,-2.9841,-2.8912,-2.9464,-2.7125,-2.5917,-2.6466,-2.5965,-2.5693,-2.5693,-2.5693,-2.5781,-2.5868,-2.6052,-2.6294,-2.6699,-2.6853,-2.7034,0.0,0.0,0.0,0.0,0.0,0.0,0.0,0.0,0.0,0.0,-2.7188,-2.7456,-2.7323,-2.7289,-2.7235,-2.7053,-2.6321,-2.565,-2.5228,-2.4588,-2.3815,-2.2916,-2.2777,-2.2515,-2.1845,-2.1807,-2.1807,-2.1769,-2.1578,-2.1387,-2.1185,-2.0157,-1.952,-1.9323,-1.8318,-1.7423,-1.6698,-1.6535,-1.6105,-1.5347,-1.5298,-1.5352,-1.544,-1.5654,-1.6411,-1.7618,-1.7484,-1.839,-2.0028,-2.0352,-2.0935,-2.1722,-2.1856,-2.3071,-2.4701,-2.4701,-2.5768,-2.719,-2.7097,-2.7097,-2.7056,-2.6985,-2.6985,-2.7053,-2.76,-2.8156,-2.8706,-2.924,-2.9768,-3.0216,-3.0216,-3.0216,-3.0216,-3.0216,-3.0601,-3.0984,-3.0984,-3.1362,-3.1705,-3.1705,-3.1705,-3.1705,-3.1705,-3.1705,-3.1705,-3.1705,-3.1705,-3.1705,-3.1705,-3.1705,-3.1705,-3.1705,-3.1705,-3.1705,-3.1705,-2.9841,-2.868,-2.868,-2.6791,-2.5693,-2.5693,-2.5693,-2.5732,-2.5781,-2.5732,-2.582,-2.61,-2.6149,-2.64,-2.69,-2.6948,-2.7081,0.0,0.0,0.0,0.0,0.0,0.0,0.0,0.0,0.0,0.0,-2.7456,-2.7289,-2.6654,-2.6952,-2.7019,-2.6148,-2.5789,-2.511,-2.3734,-2.3327,-2.2879,-2.2073,-2.1949,-2.1921,-2.1807,-2.1807,-2.1731,-2.154,-2.1512,-2.1031,-1.9923,-1.9678,-1.9155,-1.8238,-1.7342,-1.6821,-1.6698,-1.594,-1.5423,-1.5131,-1.4915,-1.4797,-1.4804,-1.467,-1.5131,-1.6033,-1.6522,-1.7093,-1.7757,-1.9237,-2.0527,-2.1693,-2.2561,-2.4029,-2.5621,-2.5621,-2.6268,-2.7138,-2.6745,-2.6569,-2.6539,-2.6188,-2.6063,-2.6157,-2.6576,-2.7406,-2.8258,-2.8706,-2.9481,-3.0216,-3.0216,-3.0216,-3.0216,-3.0216,-3.0601,-3.0984,-3.0984,-3.1362,-3.1705,-3.1705,-3.1705,-3.1705,-3.1705,-3.1705,-3.1705,-3.1705,-3.1705,-3.1705,-3.1705,-3.1705,-3.1705,-3.1705,-3.1705,-3.1705,-3.1705,-2.9841,-2.868,-2.868,-2.6791,-2.5693,-2.5693,-2.5693,-2.583,-2.6052,-2.583,-2.582,-2.61,-2.6342,-2.6602,-2.69,-2.7129,-2.7262,0.0,0.0,0.0,0.0,0.0,0.0,0.0,0.0,0.0,-2.6321,-2.6102,-2.5985,-2.6195,-2.6311,-2.6057,-2.5158,-2.4516,-2.3888,-2.3191,-2.2654,-2.2187,-2.1845,-2.1807,-2.1769,-2.1655,-2.1617,-2.154,-2.1359,-2.0799,-2.0196,-1.9638,-1.855,-1.7747,-1.731,-1.6427,-1.5982,-1.5982,-1.5499,-1.5131,-1.4866,-1.465,-1.4524,-1.4524,-1.4321,-1.5142,-1.6774,-1.6938,-1.7773,-1.9124,-2.0088,-2.0798,-2.1452,-2.265,-2.3737,-2.4723,-2.5253,-2.5874,-2.6437,-2.6218,-2.6177,-2.6135,-2.5979,-2.5895,-2.5979,-2.6362,-2.7234,-2.816,-2.8571,-2.9424,-3.0216,-3.0216,-3.0216,-3.0261,-3.0397,-3.0736,-3.1017,-3.1139,-3.1439,-3.1705,-3.1705,-3.1705,-3.1705,-3.1705,-3.1705,-3.1705,-3.1705,-3.1705,-3.1705,-3.1705,-3.1805,-3.1849,-3.1849,-3.1849,-3.1849,-3.1849,-2.9932,-2.8773,-2.8923,-2.703,-2.5965,-2.6159,-2.6169,-2.6207,-2.6294,-2.6062,-2.611,-2.6554,-2.6651,-2.6842,-2.7129,-2.7262,-2.7309,0.0,0.0,0.0,0.0,0.0,0.0,0.0,0.0,-2.5952,0.0,-2.5028,-2.5028,-2.5322,-2.5334,-2.5028,-2.4168,-2.346,-2.2927,-2.274,-2.2176,-2.1769,-2.1731,-2.1731,-2.1655,-2.1436,-2.1223,-2.0992,-2.0799,-1.9835,-1.9155,-1.8877,-1.7504,-1.6617,-1.6378,-1.5748,-1.5389,-1.5305,-1.5048,-1.4824,-1.4608,-1.4398,-1.4321,-1.4321,-1.4166,-1.5197,-1.7046,-1.7122,-1.8255,-2.0048,-2.0601,-2.1074,-2.1589,-2.2687,-2.3543,-2.4248,-2.5073,-2.5591,-2.5895,-2.577,-2.5728,-2.5686,-2.5601,-2.5559,-2.5644,-2.603,-2.6879,-2.7818,-2.8375,-2.9255,-3.0067,-3.0181,-3.0216,-3.0261,-3.0532,-3.0781,-3.1062,-3.135,-3.1572,-3.1705,-3.1705,-3.1705,-3.1705,-3.1705,-3.1705,-3.1705,-3.1749,-3.1761,-3.1805,-3.1893,-3.1994,-3.2081,-3.2081,-3.2081,-3.1981,-3.1749,-2.9977,-2.8866,-2.8806,-2.7173,-2.6294,-2.6496,-2.6496,-2.6544,-2.6602,-2.64,-2.6496,-2.69,-2.69,-2.7034,-2.7309,-2.7309,-2.7309,0.0,0.0,0.0,0.0,0.0,0.0,0.0,0.0,0.0,-2.492,-2.5181,-2.511,-2.3624,-2.3963,-2.4168,-2.3213,-2.3038,-2.274,-2.1959,-2.1845,-2.1731,-2.154,-2.1512,-2.1436,-2.1244,-2.0469,-1.9904,-1.9678,-1.8868,-1.794,-1.6903,-1.6731,-1.6337,-1.5506,-1.5431,-1.5305,-1.5131,-1.465,-1.444,-1.4398,-1.4201,-1.413,-1.413,-1.4088,-1.4629,-1.5541,-1.6394,-1.7466,-1.8738,-1.9601,-2.0942,-2.2481,-2.3006,-2.3981,-2.518,-2.5679,-2.5895,-2.5853,-2.5369,-2.5242,-2.5158,-2.4711,-2.4583,-2.4668,-2.5115,-2.5925,-2.6898,-2.7851,-2.8807,-2.9642,-3.0089,-3.0216,-3.0261,-3.0532,-3.0781,-3.1107,-3.1584,-3.1705,-3.1705,-3.1705,-3.1705,-3.1705,-3.1705,-3.1705,-3.1761,-3.195,-3.1981,-3.2081,-3.2344,-3.2344,-3.24,-3.24,-3.24,-3.1969,-3.1036,-2.9966,-2.9004,-2.8128,-2.7061,-2.6496,-2.6496,-2.6496,-2.6602,-2.6853,-2.6853,-2.6853,-2.69,-2.69,-2.7034,-2.7309,-2.7309,-2.7309,0.0,0.0,0.0,0.0,0.0,0.0,0.0,0.0,-2.4439,-2.4085,-2.3566,-2.2995,-2.2408,-2.2979,-2.3202,-2.2365,-2.2214,-2.2138,-2.1845,-2.1693,-2.1578,-2.1502,-2.1397,-2.1002,-2.0245,-1.9874,-1.9392,-1.8638,-1.7787,-1.7098,-1.6739,-1.6188,-1.5707,-1.5431,-1.5257,-1.5048,-1.4657,-1.4482,-1.4356,-1.4201,-1.4124,-1.4088,-1.4088,-1.4088,-1.458,-1.5436,-1.618,-1.7073,-1.8114,-1.9226,-2.0235,-2.1168,-2.247,-2.3356,-2.4033,-2.5083,-2.5253,-2.4967,-2.4786,-2.4743,-2.47,-2.454,-2.4497,-2.4583,-2.5073,-2.5861,-2.6811,-2.7808,-2.8795,-2.9607,-3.0089,-3.0216,-3.0306,-3.0736,-3.1139,-3.1496,-3.1661,-3.1705,-3.1705,-3.1705,-3.1705,-3.1705,-3.1705,-3.1705,-3.1749,-3.1994,-3.1994,-3.2081,-3.2356,-3.2519,-3.2593,-3.2593,-3.2593,-3.2176,-3.1258,-3.0102,-2.9061,-2.829,-2.7309,-2.6842,-2.7023,-2.7023,-2.7071,-2.7177,-2.7177,-2.7177,-2.7177,-2.7177,-2.7214,-2.7309,-2.7309,-2.7309,0.0,0.0,0.0,0.0,0.0,0.0,0.0,0.0,-2.3406,-2.3165,-2.251,-2.1912,-2.1814,-2.2252,-2.2402,-2.1883,-2.1807,-2.1769,-2.1693,-2.1578,-2.1349,-2.0905,-2.076,-2.0245,-1.9164,-1.8798,-1.831,-1.7626,-1.6747,-1.6263,-1.6263,-1.5707,-1.5389,-1.5298,-1.4999,-1.4699,-1.4398,-1.4314,-1.4243,-1.4088,-1.3786,-1.3786,-1.4088,-1.3701,-1.3984,-1.4894,-1.585,-1.6796,-1.7797,-1.8868,-1.9674,-2.0335,-2.1717,-2.2639,-2.3318,-2.4388,-2.466,-2.4497,-2.4497,-2.4497,-2.4497,-2.4497,-2.4497,-2.454,-2.4871,-2.5637,-2.6571,-2.7578,-2.8528,-2.9378,-3.0044,-3.0318,-3.0556,-3.0927,-3.1362,-3.1705,-3.1705,-3.1705,-3.1705,-3.1705,-3.1705,-3.1705,-3.1805,-3.1805,-3.1893,-3.2201,-3.2245,-3.2344,-3.2605,-3.2766,-3.2853,-3.2853,-3.2853,-3.2307,-3.1024,-3.0158,-2.92,-2.8102,-2.7404,-2.7129,-2.7309,-2.7309,-2.7309,-2.7309,-2.7309,-2.7309,-2.7309,-2.7309,-2.7309,-2.7309,-2.7309,-2.7309,0.0,0.0,0.0,0.0,0.0,0.0,0.0,0.0,-2.2968,-2.222,-2.2154,-2.2146,-2.1855,-2.1787,-2.1787,-2.1807,-2.1807,-2.1731,-2.154,-2.1512,-2.0992,-1.9756,-1.9599,-1.9155,-1.8078,-1.7188,-1.6698,-1.6657,-1.5865,-1.5389,-1.5389,-1.5389,-1.5257,-1.5048,-1.4608,-1.4349,-1.4356,-1.4117,-1.3997,-1.4004,-1.3094,-1.3137,-1.4004,-1.2881,-1.2875,-1.3779,-1.5296,-1.6583,-1.77,-1.8402,-1.928,-2.0244,-2.0716,-2.1829,-2.3225,-2.3701,-2.4146,-2.4476,-2.4497,-2.4497,-2.4497,-2.4497,-2.4497,-2.4497,-2.4497,-2.5179,-2.6092,-2.7108,-2.8028,-2.893,-2.9952,-3.0601,-3.0984,-3.0984,-3.1362,-3.1705,-3.1705,-3.1705,-3.1705,-3.1705,-3.1705,-3.1761,-3.1994,-3.1994,-3.2157,-3.2624,-3.2711,-3.281,-3.3081,-3.3124,-3.3124,-3.3124,-3.3124,-3.2295,-3.0396,-3.0215,-2.9395,-2.7441,-2.7309,-2.7309,-2.7309,-2.7309,-2.7309,-2.7309,-2.7309,-2.7309,-2.7309,-2.7309,-2.7309,-2.7309,-2.7309,-2.7309,-2.4157,0.0,0.0,0.0,0.0,0.0,0.0,0.0,-2.2126,-2.1947,-2.1355,-2.1005,-2.1254,-2.13,-2.1339,-2.1565,-2.1578,-2.154,-2.1502,-2.1244,-2.0693,-1.9717,-1.945,-1.8767,-1.722,-1.6854,-1.646,-1.5824,-1.5548,-1.5389,-1.5389,-1.5264,-1.4699,-1.3613,-1.3444,-1.3324,-1.3167,-1.2443,-1.2057,-1.2057,-1.18,-1.21,-1.2875,-1.2534,-1.279,-1.3519,-1.4433,-1.5379,-1.6363,-1.7861,-1.9063,-2.0029,-2.0488,-2.151,-2.278,-2.3588,-2.396,-2.4105,-2.4383,-2.4497,-2.4497,-2.4497,-2.4497,-2.4497,-2.4497,-2.5179,-2.6026,-2.6659,-2.7727,-2.893,-2.9952,-3.0601,-3.0984,-3.0984,-3.1362,-3.1705,-3.1705,-3.1705,-3.1705,-3.1705,-3.1705,-3.1761,-3.1994,-3.1994,-3.2157,-3.2624,-3.2711,-3.281,-3.3081,-3.3124,-3.3124,-3.3124,-3.3124,-3.2581,-3.1303,-3.0576,-2.9669,-2.8398,-2.7678,-2.7309,-2.7309,-2.7309,-2.7309,-2.7309,-2.7309,-2.7309,-2.7309,-2.7309,-2.7309,-2.7309,-2.7309,-2.7309,0.0,0.0,0.0,0.0,0.0,0.0,-2.3539,-2.2751,-2.2081,-2.2194,-2.134,-2.0699,-2.1174,-2.098,-2.0781,-2.0947,-2.0943,-2.1012,-2.1213,-2.1061,-2.042,-1.9085,-1.8847,-1.8086,-1.6345,-1.6139,-1.5948,-1.5431,-1.5389,-1.5347,-1.5257,-1.4999,-1.4265,-1.3057,-1.2936,-1.2644,-1.21,-1.158,-1.1278,-1.1187,-1.0799,-1.1192,-1.2235,-1.1757,-1.2143,-1.3307,-1.3928,-1.4761,-1.567,-1.7115,-1.8559,-1.9923,-2.0208,-2.1224,-2.2563,-2.3101,-2.3546,-2.3919,-2.4178,-2.4342,-2.4497,-2.4497,-2.4497,-2.4497,-2.4497,-2.5179,-2.5994,-2.6452,-2.7783,-2.9217,-3.0009,-3.0499,-3.0871,-3.0972,-3.1273,-3.1572,-3.1661,-3.1705,-3.1705,-3.1705,-3.1749,-3.1893,-3.2125,-3.2257,-3.2419,-3.281,-3.2853,-3.2939,-3.3081,-3.3124,-3.3124,-3.3124,-3.3124,-3.2711,-3.1681,-3.108,-3.017,-2.8771,-2.8175,-2.7715,-2.7309,-2.7309,-2.7309,-2.7309,-2.7309,-2.7309,-2.7309,-2.7309,-2.7309,-2.7309,-2.7309,-2.7309,0.0,0.0,0.0,0.0,0.0,0.0,-2.3433,-2.2854,-2.2431,-2.2651,-2.1658,-2.0859,-2.135,-2.0723,-2.015,-2.0201,-2.0189,-2.0339,-2.0767,-2.0838,-2.0177,-1.8359,-1.8158,-1.748,-1.5831,-1.559,-1.5548,-1.5548,-1.5423,-1.5215,-1.4873,-1.4482,-1.3789,-1.2845,-1.2522,-1.1972,-1.1149,-1.102,-1.0885,-1.0697,-0.984,-1.0193,-1.1623,-1.0722,-1.1241,-1.2924,-1.3584,-1.442,-1.5477,-1.6247,-1.7859,-1.9825,-1.9864,-2.0889,-2.235,-2.248,-2.3049,-2.3805,-2.3857,-2.4167,-2.4497,-2.4497,-2.4497,-2.4497,-2.4497,-2.5179,-2.6036,-2.6581,-2.8049,-2.9515,-3.0009,-3.0351,-3.0679,-3.0927,-3.1139,-3.1395,-3.1661,-3.1705,-3.1705,-3.1705,-3.1849,-3.2081,-3.2344,-3.255,-3.281,-3.3081,-3.3124,-3.3124,-3.3124,-3.3124,-3.3124,-3.3124,-3.3124,-3.2766,-3.1845,-3.1669,-3.0812,-2.8991,-2.8771,-2.8269,-2.7357,-2.7309,-2.7309,-2.7309,-2.7309,-2.7309,-2.7309,-2.7309,-2.7309,-2.7309,-2.7309,-2.7309,0.0,0.0,0.0,0.0,0.0,0.0,-2.3403,-2.2763,-2.2168,-2.2246,-2.1154,-2.0391,-2.0849,-2.0366,-1.9947,-2.0094,-2.002,-2.0049,-2.0282,-2.0534,-2.0255,-1.9173,-1.9054,-1.8647,-1.7602,-1.687,-1.646,-1.646,-1.5658,-1.4657,-1.3487,-1.3317,-1.2766,-1.166,-1.0847,-1.0376,-1.0159,-0.9244,-0.8807,-0.8763,-0.8416,-0.8679,-0.954,-1.0072,-1.0809,-1.1714,-1.2571,-1.388,-1.5394,-1.5602,-1.7066,-1.9222,-1.9717,-2.043,-2.1317,-2.22,-2.2842,-2.3381,-2.3784,-2.4167,-2.4497,-2.4497,-2.4497,-2.4497,-2.4497,-2.5179,-2.6173,-2.7366,-2.8274,-2.8976,-2.9504,-3.0108,-3.0679,-3.0927,-3.1139,-3.1395,-3.1661,-3.1705,-3.1705,-3.1705,-3.1849,-3.2081,-3.2344,-3.255,-3.281,-3.3081,-3.3124,-3.3124,-3.3124,-3.3124,-3.3124,-3.3124,-3.3124,-3.3025,-3.2797,-3.2077,-3.1125,-2.9988,-2.913,-2.8269,-2.7357,-2.7309,-2.7309,-2.7309,-2.7309,-2.7309,-2.7309,-2.7309,-2.7309,-2.7309,-2.7309,-2.7309,0.0,0.0,0.0,-2.3522,0.0,0.0,0.0,-2.2914,-2.2586,-2.2586,-2.1522,-2.0648,-2.0796,-1.9901,-1.9148,-1.9198,-1.9218,-1.9294,-1.9393,-1.9723,-1.9697,-1.901,-1.896,-1.871,-1.806,-1.722,-1.6494,-1.5933,-1.5284,-1.4349,-1.3057,-1.2893,-1.2174,-1.0636,-1.0159,-0.9637,-0.9074,-0.8504,-0.8069,-0.7852,-0.7768,-0.8069,-0.8715,-0.9676,-1.0544,-1.137,-1.2272,-1.3711,-1.5394,-1.5394,-1.6632,-1.8594,-1.9511,-2.0304,-2.1002,-2.1824,-2.2449,-2.2915,-2.3381,-2.3826,-2.425,-2.4425,-2.4497,-2.4497,-2.4497,-2.5179,-2.612,-2.7313,-2.8151,-2.8827,-2.9355,-2.9938,-3.0487,-3.0883,-3.1062,-3.1229,-3.1629,-3.1705,-3.1705,-3.1705,-3.1981,-3.2257,-3.24,-3.2692,-3.2939,-3.3081,-3.3124,-3.3124,-3.3124,-3.3124,-3.3124,-3.3124,-3.3124,-3.3124,-3.3124,-3.2624,-3.1933,-3.0946,-2.9988,-2.8991,-2.8034,-2.7536,-2.7309,-2.7309,-2.7309,-2.7309,-2.7309,-2.7309,-2.7309,-2.7309,-2.7309,-2.7309,0.0,0.0,0.0,0.0,0.0,-2.3108,0.0,0.0,0.0,-2.2944,-2.1896,0.0,0.0,0.0,0.0,-1.8261,0.0,0.0,-1.8433,-1.8769,-1.8937,-1.856,-1.8653,-1.857,-1.817,-1.7382,-1.637,-1.5082,-1.4741,-1.4132,-1.3021,-1.2607,-1.1671,-0.9941,-0.9685,-0.9117,-0.8201,-0.8113,-0.7896,-0.7507,-0.7459,-0.7716,-0.8281,-0.9405,-1.0318,-1.1106,-1.2229,-1.3626,-1.5137,-1.5311,-1.6345,-1.7861,-1.9204,-2.0148,-2.0779,-2.1415,-2.202,-2.2563,-2.3029,-2.3494,-2.395,-2.4352,-2.4497,-2.4497,-2.4625,-2.5168,-2.5972,-2.6883,-2.7847,-2.8717,-2.9228,-2.978,-3.0363,-3.0883,-3.0984,-3.1107,-3.1584,-3.1705,-3.1705,-3.1705,-3.2069,-3.24,-3.24,-3.2779,-3.3124,-3.3124,-3.3124,-3.3124,-3.3124,-3.3124,-3.3124,-3.3124,-3.3124,-3.3124,-3.3124,-3.3124,-3.2667,-3.1669,-3.0711,-2.9761,-2.8724,-2.7809,-2.7309,-2.7309,-2.7309,-2.7309,-2.7309,-2.7309,-2.7309,-2.7309,-2.7309,-2.7309,0.0,0.0,0.0,0.0,-2.3108,0.0,-2.3108,0.0,-2.2944,-2.2329,0.0,0.0,0.0,0.0,0.0,0.0,0.0,-1.8176,-1.778,-1.7972,-1.8168,-1.823,-1.8841,-1.9077,-1.8753,-1.803,-1.6723,-1.465,-1.444,-1.3928,-1.2784,-1.1929,-1.0982,-0.9946,-0.8942,-0.8328,-0.8201,-0.7768,-0.7547,-0.7507,-0.7279,-0.7183,-0.7316,-0.9096,-0.9966,-1.0139,-1.1918,-1.3252,-1.421,-1.5054,-1.5966,-1.6984,-1.8505,-1.949,-2.0099,-2.0741,-2.1622,-2.2563,-2.3029,-2.3494,-2.395,-2.4352,-2.4497,-2.4583,-2.4988,-2.52,-2.5464,-2.6346,-2.7343,-2.8258,-2.8694,-2.9504,-3.0363,-3.0883,-3.0984,-3.1107,-3.1584,-3.1705,-3.1705,-3.1705,-3.2069,-3.24,-3.24,-3.2779,-3.3124,-3.3124,-3.3124,-3.3124,-3.3124,-3.3124,-3.3124,-3.3124,-3.3124,-3.3124,-3.3124,-3.3124,-3.2667,-3.1669,-3.0711,-2.9761,-2.8724,-2.7809,-2.7309,-2.7309,-2.7309,-2.7309,-2.7309,-2.7309,-2.7309,-2.7309,-2.7309,-2.7309,0.0,0.0,0.0,0.0,0.0,0.0,-2.2032,-2.2199,-2.2187,-2.1499,0.0,0.0,0.0,0.0,0.0,0.0,-1.8049,-1.8041,-1.7854,-1.7924,-1.8094,-1.8409,-1.8629,-1.845,-1.7652,-1.7255,-1.6325,-1.4531,-1.4276,-1.35,-1.196,-1.1499,-1.0587,-0.8986,-0.846,-0.8069,-0.7812,-0.7591,-0.7415,-0.7279,-0.7143,-0.7095,-0.7183,-0.9052,-0.9879,-1.0009,-1.1875,-1.3209,-1.4084,-1.5012,-1.5925,-1.6821,-1.7983,-1.9015,-2.0021,-2.1059,-2.1691,-2.2159,-2.2625,-2.3091,-2.3598,-2.427,-2.4497,-2.454,-2.4743,-2.4988,-2.5327,-2.5968,-2.7097,-2.8203,-2.8626,-2.9458,-3.0363,-3.0883,-3.0984,-3.1107,-3.1584,-3.1705,-3.1705,-3.1705,-3.2069,-3.24,-3.24,-3.2779,-3.3124,-3.3124,-3.3124,-3.3124,-3.3124,-3.3124,-3.3124,-3.3124,-3.3124,-3.3124,-3.3124,-3.3124,-3.2939,-3.2481,-3.1024,-2.9761,-2.8724,-2.7809,-2.7309,-2.7309,-2.7309,-2.7309,-2.7309,-2.7309,-2.7309,-2.7309,-2.7309,-2.7309,-2.3756,0.0,0.0,0.0,-2.2048,-2.1784,-2.1255,-2.1343,-2.1333,-2.0611,-1.9966,0.0,0.0,0.0,0.0,0.0,0.0,-1.7969,0.0,-1.7862,-1.7978,-1.8139,-1.8116,-1.7615,-1.642,-1.6398,-1.5818,-1.4276,-1.3994,-1.3252,-1.174,-1.1456,-1.0458,-0.8632,-0.8285,-0.794,-0.7507,-0.7415,-0.7279,-0.7095,-0.7095,-0.7095,-0.7183,-0.9052,-0.9879,-1.0009,-1.1875,-1.3082,-1.3747,-1.4887,-1.5636,-1.6116,-1.7651,-1.8696,-1.9462,-2.0769,-2.1415,-2.164,-2.2296,-2.2884,-2.3505,-2.4249,-2.4497,-2.4497,-2.4497,-2.4743,-2.5115,-2.5728,-2.6742,-2.785,-2.8537,-2.9355,-3.0145,-3.0746,-3.0927,-3.1107,-3.1484,-3.1661,-3.1705,-3.1705,-3.2025,-3.23,-3.24,-3.2779,-3.3124,-3.3124,-3.3124,-3.3124,-3.3124,-3.3124,-3.3124,-3.3124,-3.3124,-3.3124,-3.3124,-3.3124,-3.2982,-3.2711,-3.1347,-3.0034,-2.8771,-2.8045,-2.7584,-2.7309,-2.7309,-2.7309,-2.7309,-2.7309,-2.7309,-2.7309,-2.7309,-2.7309,-2.2685,-2.2514,-2.2446,-2.2253,-2.1845,-2.145,-2.1252,-2.0927,-2.0462,-1.9792,-1.9464,-1.911,0.0,0.0,0.0,0.0,0.0,0.0,0.0,0.0,-1.7535,-1.7019,-1.7123,-1.6756,-1.5454,-1.5762,-1.5343,-1.375,-1.3606,-1.3348,-1.2687,-1.18,-1.0761,-0.9579,-0.8504,-0.7768,-0.7507,-0.7231,-0.7095,-0.7095,-0.7095,-0.7095,-0.7183,-0.9052,-0.9879,-1.0009,-1.1875,-1.2705,-1.2869,-1.4678,-1.4887,-1.4413,-1.7674,-1.8496,-1.794,-1.9423,-2.0382,-2.1081,-2.214,-2.3091,-2.3929,-2.4342,-2.4497,-2.4497,-2.4497,-2.4497,-2.4711,-2.5644,-2.6245,-2.6973,-2.8359,-2.9102,-2.9731,-3.0416,-3.0826,-3.1062,-3.1273,-3.1528,-3.1705,-3.1705,-3.1849,-3.2081,-3.2344,-3.2779,-3.3124,-3.3124,-3.3124,-3.3124,-3.3124,-3.3124,-3.3124,-3.3124,-3.3124,-3.3124,-3.3124,-3.3124,-3.2667,-3.1713,-3.1581,-3.0722,-2.8771,-2.8678,-2.8222,-2.7309,-2.7309,-2.7309,-2.7309,-2.7309,-2.7309,-2.7309,-2.7309,-2.7309,-2.2991,-2.2527,-2.2037,-2.1428,-2.1142,-2.0885,-2.0383,-2.0213,-1.9942,-1.9284,-1.8754,-1.8361,-1.8134,0.0,0.0,0.0,0.0,0.0,0.0,0.0,-1.7451,-1.7123,0.0,0.0,-1.5294,-1.5214,-1.4819,-1.3669,-1.3427,-1.3153,-1.2723,-1.1703,-1.0572,-0.9362,-0.8241,-0.7503,-0.7231,-0.7143,-0.7095,-0.7095,-0.7095,-0.7095,-0.7139,-0.8408,-0.9318,-0.9966,-1.123,-1.2143,-1.279,-1.3964,-1.43,-1.4252,-1.6568,-1.731,-1.7334,-1.9698,-2.0702,-2.1092,-2.2478,-2.3153,-2.3546,-2.4259,-2.4497,-2.4497,-2.4497,-2.4497,-2.4711,-2.5644,-2.6234,-2.6908,-2.8348,-2.9102,-2.9708,-3.0416,-3.0781,-3.1062,-3.1261,-3.1528,-3.1705,-3.1705,-3.1849,-3.2081,-3.2344,-3.2649,-3.2896,-3.3068,-3.3124,-3.3124,-3.3124,-3.3124,-3.3124,-3.3124,-3.3124,-3.3124,-3.3124,-3.3124,-3.2939,-3.2624,-3.1989,-3.1036,-2.9761,-2.9037,-2.8269,-2.7309,-2.7309,-2.7309,-2.7309,-2.7309,-2.7309,-2.7309,-2.7309,-2.7309,-2.2502,-2.2034,-2.1576,-2.0979,-2.07,-2.0431,-1.9942,-1.9772,-1.9545,-1.9142,-1.8595,-1.8208,-1.8139,0.0,0.0,0.0,0.0,0.0,0.0,-1.7392,0.0,0.0,0.0,0.0,0.0,-1.4852,-1.4408,-1.3548,-1.324,-1.3097,-1.3063,-1.166,-1.0491,-0.9623,-0.8241,-0.737,-0.7095,-0.7095,-0.7095,-0.7095,-0.7095,-0.7095,-0.7139,-0.8061,-0.9017,-0.9966,-1.0885,-1.1843,-1.279,-1.3626,-1.3837,-1.3747,-1.5861,-1.6494,-1.6576,-1.9234,-2.0518,-2.1112,-2.2663,-2.3184,-2.3339,-2.4208,-2.4497,-2.4497,-2.4497,-2.4497,-2.4711,-2.5644,-2.6114,-2.6699,-2.8302,-2.8953,-2.9433,-3.028,-3.0736,-3.1017,-3.1184,-3.1439,-3.1705,-3.1705,-3.1805,-3.1981,-3.2213,-3.2419,-3.2723,-3.3038,-3.3124,-3.3124,-3.3124,-3.3124,-3.3124,-3.3124,-3.3124,-3.3124,-3.3124,-3.3124,-3.3124,-3.3124,-3.2494,-3.1536,-3.026,-2.9589,-2.8707,-2.7537,-2.7382,-2.7382,-2.7489,-2.7382,-2.7309,-2.7309,-2.7309,-2.7309]},{"header":{"parameterUnit":"m.s-1","parameterCategory":1,"la1":30.6,"la2":29.2853,"lo1":-89.7004,"lo2":-87.6739,"dx":0.0162,"dy":0.0183,"nx":112,"ny":82,"refTime":"2023-02-14T06:00:00:Z","depth":0,"parameterNumber":3,"parameterNumberName":"V-component_of_WINDS"},"data":[0.0,0.0,0.0,0.0,0.0,0.0,0.0,0.0,0.0,0.0,0.0,0.0,0.0,0.0,0.0,0.0,0.0,0.0,0.0,0.0,0.0,0.0,0.0,0.0,0.0,0.0,0.0,0.0,0.0,0.0,0.0,0.0,0.0,0.0,0.0,0.0,0.0,0.0,0.0,0.0,0.0,0.0,0.0,0.0,0.0,0.0,0.0,0.0,0.0,0.0,0.0,0.0,0.0,0.0,0.0,0.0,0.0,0.0,0.0,0.0,0.0,0.0,0.0,0.0,0.0,0.0,0.0,0.0,0.0,0.0,0.0,0.0,0.0,0.0,0.0,0.0,0.0,0.0,0.0,0.0,0.0,0.0,0.0,0.0,0.0,0.0,0.0,0.0,0.0,0.0,0.5319,0.5617,0.5521,0.5428,0.5395,0.5405,0.5297,0.4993,0.0,0.0,0.0,0.0,0.0,0.0,0.0,0.0,0.0,0.0,0.0,0.0,0.0,0.0,0.0,0.0,0.0,0.0,0.0,0.0,0.0,0.0,0.0,0.0,0.0,0.0,0.0,0.0,0.0,0.0,0.0,0.0,0.0,0.0,0.0,0.0,0.0,0.0,0.0,0.0,0.0,0.0,0.0,0.0,0.0,0.0,0.0,0.0,0.0,0.0,0.0,0.0,0.0,0.0,0.0,0.0,0.0,0.0,0.0,0.0,0.0,0.0,0.0,0.0,0.0,0.0,0.0,0.0,0.0,0.0,0.0,0.0,0.0,0.0,0.0,0.0,0.0,0.0,0.0,0.0,0.0,0.0,0.0,0.0,0.0,0.0,0.0,0.0,0.0,0.0,0.0,0.0,0.0,0.0,0.0,0.0,0.0,0.0,0.0,0.0,0.0,0.0,0.0,0.0,0.5789,0.5855,0.5686,0.5521,0.5395,0.55,0.5484,0.5336,0.0,0.0,0.0,0.0,0.0,0.0,0.0,0.0,0.0,0.0,0.0,0.0,0.0,0.0,0.0,0.0,0.0,0.0,0.0,0.0,0.0,0.0,0.0,0.0,0.0,0.0,0.0,0.0,0.0,0.0,0.0,0.0,0.0,0.0,0.0,0.0,0.0,0.0,0.0,0.0,0.0,0.0,0.0,0.0,0.0,0.0,0.0,0.0,0.0,0.0,0.0,0.0,0.0,0.0,0.0,0.0,0.0,0.0,0.0,0.0,0.0,0.0,0.0,0.0,0.0,0.0,0.0,0.0,0.0,0.0,0.0,0.0,0.0,0.0,0.0,0.0,0.0,0.0,0.0,0.0,0.0,0.0,0.0,0.0,0.0,0.0,0.0,0.0,0.0,0.0,0.0,0.0,0.0,0.0,0.0,0.0,0.0,0.0,0.0,0.0,0.0,0.0,0.0,0.5723,0.5954,0.605,0.5782,0.5617,0.5657,0.5723,0.5654,0.5403,0.5443,0.0,0.0,0.0,0.0,0.0,0.0,0.0,0.0,0.0,0.0,0.0,0.0,0.0,0.0,0.0,0.0,0.0,0.0,0.0,0.0,0.0,0.0,0.0,0.0,0.0,0.0,0.0,0.0,0.0,0.0,0.0,0.0,0.0,0.0,0.0,0.0,0.0,0.0,0.0,0.0,0.0,0.0,0.0,0.0,0.0,0.0,0.0,0.0,0.0,0.0,0.0,0.0,0.0,0.0,0.0,0.0,0.0,0.0,0.0,0.0,0.0,0.0,0.0,0.0,0.0,0.0,0.0,0.0,0.0,0.0,0.0,0.0,0.0,0.0,0.0,0.0,0.0,0.0,0.0,0.0,0.0,0.0,0.0,0.0,0.0,0.0,0.0,0.0,0.0,0.0,0.0,0.0,0.0,0.0,0.0,0.0,0.0,0.0,0.0,0.0,0.0,0.0,0.6053,0.6053,0.6181,0.5914,0.5782,0.5888,0.5954,0.5869,0.5613,0.5862,0.0,0.0,0.0,0.0,0.0,0.0,0.0,0.0,0.0,0.0,0.0,0.0,0.0,0.0,0.0,0.0,0.0,0.0,0.0,0.0,0.0,0.0,0.0,0.0,0.0,0.0,0.0,0.0,0.0,0.0,0.0,0.0,0.0,0.0,0.0,0.0,0.0,0.0,0.0,0.0,0.0,0.0,0.0,0.0,0.0,0.0,0.0,0.0,0.0,0.0,0.0,0.0,0.0,0.0,0.0,0.0,0.0,0.0,0.0,0.0,0.0,0.0,0.0,0.0,0.0,0.0,0.0,0.0,0.0,0.0,0.0,0.0,0.0,0.0,0.0,0.0,0.0,0.0,0.0,0.0,0.0,0.0,0.0,0.0,0.0,0.0,0.0,0.0,0.0,0.0,0.0,0.0,0.0,0.0,0.0,0.0,0.0,0.0,0.0,0.0,0.0,0.0,0.6185,0.6317,0.6214,0.6178,0.6083,0.5921,0.6083,0.6174,0.6129,0.6297,0.0,0.0,0.0,0.0,0.0,0.0,0.0,0.0,0.0,0.0,0.0,0.0,0.0,0.0,0.0,0.0,0.0,0.0,0.0,0.0,0.0,0.0,0.0,0.0,0.0,0.0,0.0,0.0,0.0,0.0,0.0,0.0,0.0,0.0,0.0,0.0,0.0,0.0,0.0,0.0,0.0,0.0,0.0,0.0,0.0,0.0,0.0,0.0,0.0,0.0,0.0,0.0,0.0,0.0,0.0,0.0,0.0,0.0,0.0,0.0,0.0,0.0,0.0,0.0,0.0,0.0,0.0,0.0,0.0,0.0,0.0,0.0,0.0,0.0,0.0,0.0,0.0,0.0,0.0,0.0,0.0,0.0,0.0,0.0,0.0,0.0,0.0,0.0,0.0,0.0,0.0,0.0,0.0,0.0,0.0,0.0,0.0,0.0,0.0,0.0,0.0,0.0,0.6181,0.628,0.6317,0.6247,0.6375,0.6872,0.6863,0.6826,0.6826,0.0,0.0,0.0,0.0,0.0,0.0,0.0,0.0,0.0,0.0,0.0,0.0,0.0,0.0,0.0,0.0,0.0,0.0,0.0,0.0,0.0,0.0,0.0,0.0,0.0,0.0,0.0,0.0,0.0,0.0,0.0,0.0,0.0,0.0,0.0,0.0,0.0,0.0,0.0,0.0,0.0,0.0,0.0,0.0,0.0,0.0,0.0,0.0,0.0,0.0,0.0,0.0,0.0,0.0,0.0,0.0,0.0,0.0,0.0,0.0,0.0,0.0,0.0,0.0,0.0,0.0,0.0,0.0,0.0,0.0,0.0,0.0,0.0,0.0,0.0,0.0,0.0,0.0,0.0,0.0,0.0,0.0,0.0,0.0,0.0,0.0,0.0,0.0,0.0,0.0,0.0,0.0,0.0,0.0,0.0,0.0,0.0,0.0,0.0,0.0,0.0,0.0,0.6181,0.6247,0.6379,0.6708,0.6671,0.6933,0.7744,0.7739,0.7665,0.7605,0.0,0.0,0.0,0.0,0.0,0.0,0.0,0.0,0.0,0.0,0.0,0.0,0.0,0.0,0.0,0.0,0.0,0.0,0.0,0.0,0.0,0.0,0.0,0.0,0.0,0.0,0.0,0.0,0.0,0.0,0.0,0.0,0.0,0.0,0.0,0.0,0.0,0.0,0.0,0.0,0.0,0.0,0.0,0.0,0.0,0.0,0.0,0.0,0.0,0.0,0.0,0.0,0.0,0.0,0.0,0.0,0.0,0.0,0.0,0.0,0.0,0.0,0.0,0.0,0.0,0.0,0.0,0.0,0.0,0.0,0.0,0.0,0.0,0.0,0.0,0.0,0.0,0.0,0.0,0.0,0.0,0.0,0.0,0.0,0.0,0.0,0.0,0.0,0.0,0.0,0.0,0.0,0.0,0.0,0.0,0.0,0.0,0.0,0.0,0.0,0.0,0.0,0.6247,0.6317,0.6712,0.7423,0.7521,0.7777,0.8458,0.864,0.864,0.0,0.0,0.0,0.0,0.0,0.0,0.0,0.0,0.0,0.0,0.0,0.0,0.0,0.0,0.0,0.0,0.0,0.0,0.0,0.0,0.0,0.0,0.0,0.0,0.0,0.0,0.0,0.0,0.0,0.0,0.0,0.0,0.0,0.0,0.0,0.0,0.0,0.0,0.0,0.0,0.0,0.0,0.0,0.0,0.0,0.0,0.0,0.0,0.0,0.0,0.0,0.0,0.0,0.0,0.0,0.0,0.0,0.0,0.0,0.0,0.0,0.0,0.0,0.0,0.0,0.0,0.0,0.0,0.0,0.0,0.0,0.0,0.0,0.0,0.0,0.0,0.0,0.0,0.0,0.0,0.0,0.0,0.0,0.0,0.0,0.0,0.0,0.0,0.0,0.0,0.0,0.0,0.0,0.0,0.0,0.0,0.0,0.0,0.0,0.0,0.0,0.0,0.0,0.7064,0.7228,0.7549,0.8134,0.8199,0.8522,0.9358,0.9448,0.9512,0.9538,0.0,0.0,0.0,0.0,0.0,0.0,0.0,0.0,0.0,0.0,0.0,0.0,0.0,0.0,0.0,0.0,0.0,0.0,0.0,0.0,0.0,0.0,0.0,0.0,0.0,0.0,0.0,0.0,0.0,0.0,0.0,0.0,0.0,0.0,0.0,0.0,0.0,0.0,0.0,0.0,0.0,0.0,0.0,0.0,0.0,0.0,0.0,0.0,0.0,0.0,0.0,0.0,0.0,0.0,0.0,0.0,0.0,0.0,0.0,0.0,0.0,0.0,0.0,0.0,0.0,0.0,0.0,0.0,0.0,0.0,0.0,0.0,0.0,0.0,0.0,0.0,0.0,0.0,0.0,0.0,0.0,0.0,0.0,0.0,0.0,0.0,0.0,0.0,0.0,0.0,0.0,0.0,0.0,0.0,0.0,0.0,0.0,0.0,0.0,0.0,0.0,0.0,0.7934,0.8124,0.8447,0.9032,0.9096,0.9416,1.0256,1.0383,1.0408,1.044,0.0,0.0,0.0,0.0,0.0,0.0,0.0,0.0,0.0,0.0,0.0,0.0,0.0,0.0,0.0,0.0,0.0,0.0,0.0,0.0,0.0,0.0,0.0,0.0,0.0,0.0,0.0,0.0,0.0,0.0,0.0,0.0,0.0,0.0,0.0,0.0,0.0,0.0,0.0,0.0,0.0,0.0,0.0,0.0,0.0,0.0,0.0,0.0,0.0,0.0,0.0,0.0,0.0,0.0,0.0,0.0,0.0,0.0,0.0,0.0,0.0,0.0,0.0,0.0,0.0,0.0,0.0,0.0,0.0,0.0,0.0,0.0,0.0,0.0,0.0,0.0,0.0,0.0,0.0,0.0,0.0,0.0,0.0,0.0,0.0,0.0,0.0,0.0,0.0,0.0,0.0,0.0,0.0,0.0,0.0,0.0,0.0,0.0,0.0,0.0,0.0,0.0,0.8868,0.9095,0.945,1.013,1.0194,1.0442,1.1101,1.129,1.1276,1.1153,0.0,0.0,0.0,0.0,0.0,0.0,0.0,0.0,0.0,0.0,0.0,0.0,0.0,0.0,0.0,0.0,0.0,0.0,0.0,0.0,0.0,0.0,0.0,0.0,0.0,0.0,0.0,0.0,0.0,0.0,0.0,0.0,0.0,0.0,0.0,0.0,0.0,0.0,0.0,0.0,0.0,0.0,0.0,0.0,0.0,0.0,0.0,0.0,0.0,0.0,0.0,0.0,0.0,0.0,0.0,0.0,0.0,0.0,0.0,0.0,0.7332,0.6873,0.0,0.0,0.0,0.0,0.0,0.0,0.0,0.0,0.0,0.0,0.0,0.0,0.0,0.0,0.0,0.0,0.0,0.0,0.0,0.0,0.0,0.0,0.0,0.0,0.0,0.0,0.0,0.0,0.0,0.0,0.0,0.0,0.0,0.0,0.0,0.0,0.0,0.0,0.0,0.0,1.0236,1.0581,1.102,1.1505,1.1572,1.1582,1.1639,1.1682,1.1639,1.1488,1.1373,0.0,0.0,0.0,0.0,0.0,0.0,0.0,0.0,0.0,0.0,0.0,0.0,0.0,0.0,0.0,0.0,0.0,0.0,0.0,0.0,0.0,0.0,0.0,0.0,0.0,0.0,0.0,0.0,0.0,0.0,0.0,0.0,0.0,0.0,0.0,0.0,0.0,0.0,0.0,0.0,0.0,0.0,0.0,0.0,0.0,0.0,0.0,0.0,0.0,0.0,0.0,0.0,0.0,0.0,0.0,0.0,0.0,0.0,0.0,0.8423,0.8075,0.0,0.0,0.0,0.0,0.0,0.0,0.0,0.0,0.0,0.0,0.0,0.0,0.0,0.0,0.0,0.0,0.0,0.0,0.0,0.0,0.0,0.0,0.0,0.0,0.0,0.0,0.0,0.0,0.0,0.0,0.0,0.0,0.0,0.0,0.0,0.0,0.0,0.0,0.0,0.0,1.145,1.1696,1.1969,1.2214,1.2248,1.2217,1.2152,1.2137,1.2138,1.2166,1.2093,0.0,0.0,0.0,0.0,0.0,0.0,0.0,0.0,0.0,0.0,0.0,0.0,0.0,0.0,0.0,0.0,0.0,0.0,0.0,0.0,0.0,0.0,0.0,0.0,0.0,0.0,0.0,0.0,0.0,0.0,0.0,0.0,0.0,0.0,0.0,0.0,0.0,0.0,0.0,0.0,0.0,0.0,0.0,0.0,0.0,0.0,0.0,0.0,0.0,0.0,0.0,0.0,0.0,1.0289,1.0351,1.0357,1.0541,1.0677,1.0765,0.981,0.9673,1.0031,0.9301,0.0,0.0,0.0,0.0,0.0,0.0,0.0,0.0,0.0,0.0,0.0,0.0,0.0,0.0,0.0,0.0,0.0,0.0,0.0,0.0,0.0,0.0,1.2007,1.2154,1.2198,1.2101,1.179,0.0,0.0,0.0,0.0,0.0,0.0,0.0,0.0,0.0,0.0,0.0,1.2454,1.2626,1.2728,1.2728,1.2755,1.2767,1.2682,1.2674,1.2754,1.2837,1.283,1.281,0.0,0.0,0.0,0.0,0.0,0.0,0.0,0.0,0.0,0.0,0.0,0.0,0.0,0.0,0.0,0.0,0.0,0.0,0.0,0.0,0.0,0.0,0.0,0.0,0.0,0.0,0.0,0.0,0.0,0.0,0.0,0.0,1.1059,1.1059,0.0,0.0,0.0,0.0,0.0,0.0,0.0,0.0,0.0,0.0,0.0,0.0,0.0,1.181,1.1129,1.1544,1.1402,1.0683,1.0879,1.0977,1.0983,1.1019,1.1403,1.2033,1.1881,0.0,1.043,1.031,0.0,0.0,0.0,0.0,0.0,0.0,0.0,0.0,0.0,0.0,0.0,0.0,0.0,0.0,0.0,0.0,0.0,0.0,0.0,0.0,0.0,0.0,1.4194,1.4194,1.423,1.4207,1.4157,1.3367,1.2854,1.3518,1.3661,1.3597,0.0,0.0,0.0,0.0,0.0,0.0,1.3107,1.3403,1.3627,1.3627,1.3792,1.3777,1.3469,1.3446,1.3359,1.3096,1.3073,1.3057,1.3045,1.3045,0.0,0.0,0.0,0.0,0.0,0.0,0.0,0.0,0.0,0.0,0.0,0.0,0.0,0.0,0.0,0.0,0.0,0.0,0.0,0.0,0.0,0.0,0.0,0.0,0.0,0.0,0.0,0.0,0.0,1.109,1.1185,1.1457,1.1318,1.1251,0.0,0.0,0.0,0.0,0.0,0.0,0.0,0.0,0.0,1.2671,1.2813,1.2853,1.2808,1.3014,1.3048,1.2862,1.2952,1.2997,1.2997,1.2997,1.3189,1.3539,1.3539,1.322,1.2682,1.1733,1.1156,1.082,0.0,0.0,0.0,0.0,1.0944,1.1118,1.1044,1.1193,1.1415,1.1341,0.0,0.0,0.0,0.0,0.0,0.0,0.0,1.3608,1.3833,1.4165,1.4497,1.4569,1.4605,1.4605,1.4605,1.4194,1.3941,1.4201,1.4165,1.4029,1.3826,1.3899,0.0,0.0,0.0,1.3811,1.3739,1.3848,1.3964,1.3964,1.4065,1.404,1.3902,1.4277,1.4479,1.4458,1.4847,1.4823,1.4285,1.4277,1.4187,0.0,0.0,0.0,0.0,0.0,0.0,0.0,0.0,0.0,0.0,0.0,0.0,0.0,0.0,0.0,0.0,0.0,0.0,0.0,0.0,0.0,0.0,0.0,0.0,0.0,0.0,0.0,0.0,1.1393,1.1482,1.1927,1.1831,1.1791,0.0,0.0,0.0,0.0,0.0,0.0,1.2849,1.2899,1.3078,1.3503,1.3518,1.3708,1.4106,1.4144,1.4269,1.4511,1.4511,1.4511,1.4511,1.4511,1.4543,1.4582,1.4582,1.4621,1.4538,1.3192,1.2536,1.2386,1.1966,1.174,1.1633,1.1985,1.2249,1.2423,1.2348,1.2492,1.2716,1.2648,1.2648,1.2648,1.2648,0.0,0.0,0.0,0.0,1.4471,1.4684,1.472,1.4765,1.4867,1.4867,1.494,1.5158,1.5223,1.5057,1.4529,1.4423,1.4369,1.4377,1.4585,0.0,1.4508,1.461,1.4603,1.439,1.439,1.4537,1.4749,1.4707,1.4651,1.4688,1.5281,1.5613,1.564,1.6324,1.6432,1.5804,1.5625,1.5333,1.4865,0.0,0.0,0.0,0.0,0.0,0.0,0.0,0.0,0.0,0.0,0.0,0.0,0.0,0.0,0.0,0.0,0.0,0.0,0.0,0.0,0.0,0.0,0.0,0.0,0.0,0.0,0.0,0.0,0.0,1.2426,1.2328,0.0,0.0,0.0,0.0,1.2748,1.2985,1.3366,1.3916,1.3931,1.4084,1.4406,1.4421,1.4467,1.4482,1.4482,1.4489,1.4511,1.4511,1.4511,1.4511,1.4511,1.4613,1.4793,1.4793,1.4871,1.5033,1.4584,1.4041,1.359,1.4307,1.4268,1.3825,1.4624,1.5026,1.5181,1.498,1.5165,1.5473,1.5288,1.5219,1.5219,1.5219,1.5104,0.0,0.0,1.5296,1.5373,1.5588,1.5626,1.5626,1.5626,1.5626,1.5855,1.669,1.6899,1.6416,1.4905,1.4882,1.5327,1.5875,0.0,1.6514,1.6279,1.6279,1.5992,1.5173,1.5219,1.5634,1.6485,1.6331,1.622,1.6285,1.6625,1.6576,1.6009,1.6662,1.7136,1.7273,1.68,1.6835,1.7503,1.6332,0.0,0.0,0.0,0.0,0.0,0.0,0.0,0.0,0.0,0.0,0.0,0.0,0.0,0.0,0.0,0.0,0.0,0.0,0.0,0.0,0.0,0.0,0.0,0.0,0.0,0.0,0.0,0.0,1.2797,1.2764,0.0,1.3062,1.3302,1.3491,1.3564,1.3863,1.4134,1.4328,1.4335,1.4386,1.4504,1.4511,1.4567,1.4772,1.4772,1.4882,1.5087,1.5087,1.5087,1.5087,1.5201,1.5308,1.5382,1.5559,1.5688,1.5728,1.5607,1.515,1.4591,1.4871,1.4871,1.4715,1.4995,1.5235,1.5389,1.5312,1.5459,1.5682,1.5613,1.5605,1.5605,1.5605,1.5528,1.5489,1.5566,1.5605,1.5605,1.5674,1.5712,1.5712,1.5712,1.5904,1.6171,1.6468,1.6771,1.6845,1.6253,1.6482,1.6707,1.6699,1.6556,1.6277,1.5835,1.5865,1.6087,1.6468,1.6581,1.6989,1.7934,1.7954,1.7908,1.7935,1.8225,1.83,1.8081,1.848,1.8533,1.8118,1.7925,1.7833,1.7901,1.7079,1.7269,0.0,0.0,0.0,0.0,0.0,0.0,0.0,0.0,0.0,0.0,0.0,0.0,0.0,0.0,0.0,0.0,0.0,0.0,0.0,0.0,0.0,0.0,0.0,0.0,0.0,0.0,1.2984,1.3338,1.3479,1.3599,1.3748,1.4066,1.4257,1.4181,1.4386,1.4555,1.4626,1.4626,1.4717,1.4899,1.4899,1.505,1.5305,1.5305,1.5416,1.5639,1.5639,1.5639,1.5639,1.579,1.5865,1.594,1.6113,1.6245,1.6294,1.6294,1.6023,1.5645,1.5566,1.5566,1.5645,1.5645,1.5732,1.585,1.585,1.5921,1.6031,1.6031,1.6149,1.6274,1.6274,1.6384,1.6462,1.6462,1.6462,1.6462,1.6462,1.6462,1.6462,1.6462,1.6696,1.696,1.7269,1.7616,1.8038,1.8523,1.8035,1.7634,1.7852,1.7731,1.7552,1.7368,1.7436,1.7667,1.8134,1.8172,1.8543,1.9462,1.9448,1.9397,1.9397,1.9671,1.9745,1.956,1.9779,1.9739,1.9349,1.8949,1.8667,1.8432,1.8162,1.8556,1.9617,0.0,0.0,0.0,0.0,0.0,0.0,0.0,0.0,0.0,0.0,0.0,0.0,0.0,0.0,0.0,0.0,0.0,0.0,0.0,0.0,0.0,0.0,0.0,1.3855,1.3712,1.3835,1.4142,1.4481,1.4621,1.4381,1.4667,1.4777,1.4565,1.4533,1.4673,1.49,1.4955,1.5175,1.5684,1.5692,1.5824,1.6087,1.6087,1.6087,1.6087,1.6087,1.6087,1.6087,1.6128,1.6245,1.6435,1.6476,1.6599,1.6771,1.6771,1.6771,1.673,1.6517,1.6566,1.673,1.6771,1.6771,1.6771,1.6738,1.673,1.673,1.673,1.7066,1.7432,1.7432,1.7716,1.8031,1.8031,1.8031,1.8031,1.8031,1.8031,1.8031,1.8031,1.808,1.8313,1.9143,1.949,2.007,2.1492,1.9514,1.8059,1.9506,2.0024,2.0391,2.0981,2.1058,0.0,2.0051,1.9933,2.0246,2.1058,2.08,2.0623,2.0687,2.0906,2.0846,2.0318,2.0528,2.0747,2.095,1.9949,1.9386,1.9332,1.9671,1.9987,2.0301,0.0,0.0,0.0,0.0,0.0,0.0,0.0,0.0,0.0,0.0,0.0,0.0,0.0,0.0,0.0,0.0,0.0,0.0,0.0,0.0,0.0,0.0,1.7068,1.5756,1.5831,1.6117,1.6184,1.6538,1.65,1.5894,1.6142,1.6047,1.5367,1.5514,1.5695,1.5778,1.5786,1.5831,1.5997,1.6004,1.6046,1.6087,1.6087,1.6087,1.6087,1.6087,1.6087,1.6128,1.6894,1.7294,1.7367,1.8149,1.8541,1.859,1.859,1.8399,1.8095,1.7723,1.7602,1.7723,1.835,1.8399,1.8095,1.7749,1.7627,1.7627,1.7627,1.7716,1.7838,1.7838,1.8264,1.8727,1.8727,1.8727,1.8727,1.8727,1.8727,1.8727,1.8727,1.9265,1.9885,2.0119,2.0489,2.0885,2.128,2.0709,2.0352,2.0839,2.0661,2.0391,2.0246,2.0246,2.0401,2.0932,2.0981,2.1364,2.2381,2.2376,2.245,2.2746,2.2526,2.2428,2.2594,2.2308,2.2162,2.2196,2.1541,2.0829,2.0053,2.056,2.0656,0.0,0.0,0.0,0.0,0.0,0.0,0.0,0.0,0.0,0.0,0.0,0.0,0.0,0.0,0.0,0.0,0.0,0.0,0.0,0.0,0.0,0.0,1.8684,1.8611,1.8104,1.7712,1.7497,1.7497,1.7534,1.7462,1.728,1.7254,1.7116,1.6877,1.7033,1.7147,1.7147,1.7147,1.7196,1.7277,1.7277,1.7318,1.744,1.7236,1.7309,1.7713,1.7096,1.7201,1.7979,1.8237,1.8518,1.8962,1.9557,1.9841,1.9841,1.9962,1.985,1.9589,0.0,0.0,0.0,0.0,1.9383,1.9164,1.8895,1.8816,1.8816,1.8816,1.8926,1.9036,1.9036,1.9471,1.9904,1.9904,1.9904,1.9904,1.9904,1.9904,1.9982,2.008,2.0575,2.1038,2.1219,2.1469,2.1756,2.2021,2.2096,0.0,2.251,2.1935,2.1441,2.1441,2.1583,2.1924,2.251,2.2585,2.282,2.3446,2.3482,2.3593,2.3824,2.3589,0.0,0.0,0.0,2.2937,2.2707,2.2385,0.0,0.0,0.0,2.1789,2.1626,2.1757,0.0,0.0,2.0892,2.0431,0.0,0.0,0.0,0.0,0.0,0.0,0.0,0.0,0.0,0.0,0.0,0.0,0.0,0.0,0.0,0.0,1.9661,1.9726,2.0385,1.9392,1.8592,1.8545,1.8219,1.8145,1.8599,1.8276,1.8198,1.8643,1.8683,1.8683,1.8683,1.8683,0.0,0.0,0.0,1.9149,1.9433,1.8986,1.9194,2.0057,1.8752,1.899,2.0624,1.9885,2.0003,2.0834,2.0917,2.0959,2.1,2.1218,2.1301,2.11,1.9696,1.9292,1.9601,2.0076,2.0244,2.0205,2.0127,0.0,0.0,2.006,2.0314,2.0653,2.0653,2.1019,2.1423,2.1423,2.1423,2.1423,2.1423,2.1423,2.1489,2.1811,2.1924,2.2075,2.2451,2.2526,2.2675,2.329,2.3401,2.3559,2.4116,2.3446,2.3038,2.3604,2.397,2.42,2.42,2.42,2.42,2.42,2.42,0.0,2.4273,2.4273,2.4273,2.4334,2.3942,2.3526,2.2981,2.2957,2.3171,2.358,2.3117,2.3115,2.3575,2.3096,2.2862,2.2862,2.2054,2.1345,0.0,0.0,0.0,0.0,0.0,0.0,0.0,0.0,0.0,0.0,0.0,0.0,0.0,0.0,0.0,2.0199,2.0535,2.0796,2.0943,2.1029,2.0971,2.0569,2.081,2.0728,2.014,2.0022,1.9747,1.9216,1.9177,1.9177,1.9177,1.9177,1.9363,1.9782,1.9791,1.9988,2.0343,2.0268,2.0305,2.0472,2.0168,0.0,2.0926,2.1416,2.1828,2.2248,2.2909,2.3192,2.3202,2.3293,2.3143,2.2707,2.2069,2.2292,2.2853,2.2623,2.2318,2.1963,2.1619,2.1261,2.0962,2.0962,2.1173,2.1469,2.1469,2.2151,0.0,2.2883,2.2883,2.2883,2.2883,2.2883,2.292,2.2995,2.3375,2.374,2.3801,2.3838,2.3886,2.3995,2.4043,2.408,2.4189,2.4043,2.3934,2.408,2.4152,2.42,2.42,2.42,2.42,2.42,2.42,2.4345,2.4646,2.4682,2.4814,2.5064,2.5157,2.5043,2.4648,2.4624,2.4496,2.4157,2.4059,2.4043,2.414,2.4042,2.398,2.3956,2.2357,2.1522,0.0,0.0,0.0,0.0,0.0,0.0,0.0,0.0,0.0,0.0,0.0,1.98,0.0,0.0,2.0611,2.0731,2.1155,2.1455,2.1455,2.1662,2.1714,2.1487,2.1273,2.1136,2.1136,2.0779,2.0498,2.0527,2.0527,2.0664,2.0889,2.0899,2.1134,2.1575,2.1585,2.1693,2.1899,2.1636,2.1784,2.2389,2.1655,2.1931,2.3084,2.3042,2.3336,2.394,2.4323,2.4487,2.4487,2.4673,2.4673,2.4539,2.4323,2.3986,2.3665,2.3807,2.3708,2.3495,2.3484,2.3364,2.3199,2.342,2.3613,2.3755,2.3755,2.4147,2.4536,2.4536,2.4536,2.4536,2.4536,2.4536,2.4574,2.4751,2.4839,2.4887,2.5106,2.4942,2.4754,2.4754,2.4826,2.4897,2.4897,2.4969,2.4909,2.4562,2.4622,2.4754,2.4754,2.4826,2.4897,2.4897,2.4981,2.5123,2.5312,2.5348,2.5419,2.5571,2.5688,2.5683,2.5517,2.5505,2.5416,2.5259,2.4962,2.4847,2.4946,2.4685,2.4561,2.4549,2.3614,2.3091,0.0,0.0,0.0,0.0,0.0,0.0,0.0,0.0,1.9786,2.0337,2.0445,2.0514,2.0828,2.1182,2.1429,2.1339,2.1672,2.1921,2.1921,2.1921,2.1921,2.1921,2.1252,2.1021,2.1731,2.1175,2.1089,2.1893,2.198,2.2177,2.2683,2.2743,2.2951,2.346,2.343,2.3523,2.3606,2.318,2.3446,2.4377,2.3199,2.3574,2.5242,2.4498,2.4584,2.5327,2.5411,2.5454,2.5485,2.5801,2.601,2.6146,2.6146,2.5352,2.4253,2.4738,2.4904,2.4935,2.5268,2.5318,2.5317,2.5665,2.5847,2.5885,2.5885,2.5935,2.6,2.6,2.6,2.6,2.6,2.6039,2.6153,2.642,2.6164,2.5967,2.6286,2.6021,2.572,2.572,2.5862,2.5956,2.5823,2.5952,2.5822,2.5123,2.523,2.5418,2.5418,2.5571,2.5711,2.5838,2.599,2.6094,2.6094,2.5968,2.5968,2.6141,2.6141,2.6233,2.6393,2.6393,2.6461,2.6658,2.6156,2.5949,2.5983,2.5532,2.5264,2.5146,2.5146,2.4858,1.9318,1.9285,1.9351,1.9539,1.989,2.0209,0.0,0.0,2.0849,2.0892,2.0913,2.1052,2.153,2.1621,2.1791,2.2179,2.2295,2.2327,2.2327,2.2327,2.2327,2.2327,2.1911,2.1683,2.1807,2.1731,2.1858,2.2387,2.2574,2.289,2.3362,2.3562,2.3883,2.4361,2.4372,2.4532,2.4956,2.4914,2.4946,2.5083,2.4914,2.5073,2.5559,2.5433,2.5549,2.5853,2.6207,2.6362,2.6404,2.6857,2.7021,2.7062,2.7062,2.6953,2.6717,2.6412,2.6265,2.6262,2.6342,2.6083,2.5743,2.577,2.6,2.6256,2.6256,2.6496,2.6784,2.6784,2.6784,2.6784,2.6784,2.6923,2.7049,2.7086,2.7175,2.7274,2.7336,2.7299,2.725,2.725,2.725,2.7152,2.6661,2.6587,2.6428,2.5879,2.5805,2.5828,2.5828,2.5828,2.6094,2.6697,2.6765,2.6799,2.6799,2.622,2.6245,2.6994,2.7061,2.7417,2.8168,2.8201,2.8233,2.8247,2.8166,2.786,2.728,2.7228,2.6881,2.6311,2.6311,2.5762,2.0458,2.0469,2.0503,0.0,2.0825,2.0906,2.1045,2.1115,2.1295,2.1682,2.1747,2.1851,2.2204,2.229,2.2317,0.0,2.2402,2.2402,2.2402,2.2402,2.2402,2.2402,2.2495,2.2548,2.2548,2.2548,2.2738,2.3229,2.334,2.3591,2.4068,2.416,2.4413,2.4892,2.4902,2.4998,2.52,2.52,2.5285,2.5422,2.5422,2.5549,2.577,2.577,2.5937,2.6249,2.6734,2.6899,2.694,2.7103,2.7185,2.7185,2.7185,2.736,2.7534,2.7062,2.6896,2.6967,2.7232,2.7172,2.7065,2.7301,2.7486,2.7564,2.7564,2.7693,2.7849,2.7849,2.7927,2.8031,2.8031,2.8135,2.8301,2.8301,2.8133,2.8101,2.8548,2.8407,2.8348,2.8802,2.8993,2.8999,2.8777,2.8808,2.88,2.8551,2.737,2.6654,2.7082,2.717,2.7404,2.7776,2.7841,2.7841,2.7841,2.7577,2.7557,2.792,2.7953,2.8117,2.8492,2.8492,2.857,2.868,2.868,2.8583,2.8363,2.8363,2.8247,2.7953,2.7537,2.7137,2.1336,0.0,0.0,2.1557,2.1585,2.1612,2.1754,2.1781,2.1905,2.2397,2.251,2.2571,2.2761,2.2777,2.274,2.259,2.2553,2.2553,2.2553,2.2553,2.2606,2.2735,2.3056,2.3367,2.3634,2.346,2.3488,2.3974,2.4057,2.4311,2.4792,2.4855,2.5057,2.5359,2.5369,2.5369,2.5369,2.5369,2.5506,2.5686,2.5686,2.5812,2.6063,2.6362,2.6735,2.7152,2.761,2.7929,2.8134,2.8245,2.8397,2.8495,2.8203,2.8369,2.8731,2.8042,2.7822,2.7862,2.8407,2.8578,2.8618,2.8882,2.8882,2.8816,2.9067,2.9028,2.8949,2.925,2.9433,2.9537,2.9537,2.9704,2.9832,2.9832,2.9606,2.9515,3.0071,2.9928,2.9806,3.0387,3.061,3.0674,3.0512,3.0589,3.0672,3.0746,2.9316,2.8266,2.8384,2.8517,2.8634,2.8794,2.8794,2.8826,2.8857,2.862,2.862,2.8907,2.8889,2.8985,2.9205,2.9205,2.9282,2.9435,2.9435,2.9376,2.9286,2.9286,2.9192,2.9002,2.8492,2.8266,0.0,0.0,2.1347,2.1557,2.1942,2.2255,2.2302,2.2641,2.2957,2.2979,2.2979,2.299,2.3001,2.3001,2.3001,2.2964,2.2964,2.2964,2.2964,2.2964,2.3138,2.3607,2.3684,2.4054,0.0,2.4323,2.3956,2.4424,2.4734,2.5072,2.5558,2.5748,2.5843,2.5895,2.5895,2.5895,2.5895,2.5895,2.5895,2.5906,2.5906,2.6093,2.6498,2.7482,2.8238,2.8763,2.9137,2.9761,3.0418,3.082,3.1339,3.184,3.0681,3.0586,3.0943,2.9761,2.9341,2.9419,3.0024,3.0241,3.0241,3.0241,2.9832,2.9561,3.0519,3.0405,3.0177,3.113,3.1426,3.1426,3.1426,3.1563,3.1723,3.1723,3.1842,3.1974,3.201,3.1997,3.1983,3.2019,3.2019,3.1879,3.1379,3.127,3.1357,3.1603,3.1589,3.1054,2.9635,2.9513,2.956,2.956,2.956,2.9623,2.9747,2.8985,2.8907,2.9889,2.9825,3.0129,3.0984,3.1014,3.1014,3.1014,3.1014,3.0687,2.9981,2.9981,2.9628,2.9002,2.8971,2.8971,0.0,0.0,2.2448,2.2521,2.2652,2.2772,2.2772,2.2892,2.3001,2.3001,2.3001,2.3001,2.3001,2.3001,2.3001,2.3001,2.3001,2.3001,2.3001,2.3001,2.3176,2.3629,2.4028,0.0,0.0,0.0,0.0,2.5404,2.552,2.5648,2.5801,2.5853,2.5895,2.5895,2.5895,2.5895,2.5895,2.6223,2.6504,2.6863,2.797,2.854,2.8708,2.9356,2.9756,2.9966,3.0342,3.091,3.1592,3.1714,3.1915,3.205,3.1671,3.178,3.2215,3.224,3.2406,3.244,3.0841,3.0279,3.0355,3.0607,3.0557,3.0519,3.1106,3.1167,3.1055,3.1389,3.1586,3.1709,3.1709,3.1856,3.2015,3.2015,3.2051,3.2254,3.2897,3.3038,3.3213,3.3831,3.3968,3.3896,3.3729,3.3686,3.3585,3.326,3.2859,3.2385,3.1867,3.1461,3.1193,3.1193,3.0845,3.0598,3.0672,3.0403,3.0372,3.0717,3.0687,3.0791,3.1087,3.1117,3.1132,3.1234,3.1234,3.1161,3.0999,3.0999,3.0866,3.0644,3.0208,3.0011,0.0,2.3001,2.3001,2.3001,2.3001,2.3001,2.3001,2.3001,2.3001,2.3001,2.3001,2.3001,2.3001,2.3001,2.3001,2.3001,2.3001,2.3001,2.3001,2.3154,2.3449,2.394,2.4432,2.4912,0.0,0.0,0.0,2.5884,2.5895,2.5895,2.5895,2.6021,2.6063,2.5895,2.6395,2.6557,2.6389,2.7056,2.7676,2.8195,2.945,3.029,3.0711,3.1153,3.1485,3.1672,3.1922,3.2406,3.3005,3.3005,3.326,3.3595,3.3172,3.3357,3.3917,3.3921,3.421,3.4365,3.2659,3.2066,3.2051,3.2061,3.1944,3.1816,3.22,3.2169,3.2096,3.2456,3.2613,3.2747,3.2747,3.2889,3.303,3.303,3.3087,3.3262,3.3865,3.4002,3.4187,3.4787,3.4902,3.4902,3.4902,3.4968,3.4868,3.4487,3.4108,3.3695,3.3081,3.2622,3.2371,3.2371,3.2017,3.1722,3.1531,3.1442,3.1368,3.1234,3.119,3.119,3.1249,3.1249,3.1278,3.138,3.138,3.1409,3.1511,3.1511,3.1511,3.1511,3.1058,3.0866,2.3001,2.3001,2.3001,2.3001,2.3001,2.3001,2.3001,2.3001,2.3001,2.3001,2.3001,2.3001,0.0,0.0,2.3001,2.3001,2.3001,2.3001,2.3001,2.3416,2.3919,0.0,0.0,0.0,0.0,0.0,0.0,2.6021,2.5979,2.5979,2.5979,2.6332,2.6385,2.6023,2.7315,2.7817,2.7386,2.842,2.9273,3.0013,3.0487,3.1298,3.2453,3.2823,3.3255,3.3755,3.3755,3.4134,3.4799,3.4799,3.5426,3.6336,3.5191,3.5311,3.6037,3.4893,3.4835,3.5362,3.5362,3.5282,3.5091,3.4472,3.3885,3.3505,3.3818,3.3501,3.3234,3.4171,3.4428,3.4414,3.4414,3.4563,3.4698,3.4698,3.4817,3.4902,3.4902,3.4935,3.4935,3.4935,3.4935,3.4935,3.4935,3.5082,3.5213,3.5213,3.5359,3.4944,3.3319,3.3096,3.3081,3.3081,3.3037,3.2862,3.2406,3.2196,3.193,3.1556,3.1424,3.1409,3.1511,3.1511,3.1511,3.1511,3.1511,3.1511,3.1511,3.1511,3.1511,3.1511,3.1511,3.1511,2.3075,2.3001,2.3001,2.3001,2.3001,2.3001,2.3001,2.3001,2.3001,2.3001,2.3001,2.3001,0.0,0.0,0.0,2.3001,2.3001,0.0,2.3001,2.3416,0.0,2.4831,0.0,2.5979,2.6771,2.694,0.0,0.0,2.6857,2.6857,2.6857,2.6981,2.7151,2.7444,2.7832,2.8126,2.84,2.9851,3.1393,3.292,3.3418,3.3799,3.4108,3.4204,3.4337,3.4468,3.4468,3.5018,3.5978,3.5978,3.6284,3.6822,3.6484,3.674,3.7163,3.6878,3.7049,3.7425,3.7425,3.6436,3.5198,3.5336,3.5279,3.5236,3.5582,3.5229,3.4819,3.5076,3.4879,3.4631,3.4631,3.475,3.4835,3.4835,3.4868,3.4935,3.5082,3.5115,3.518,3.5326,3.5359,3.5359,3.5359,3.5392,3.5439,3.5439,3.5472,3.5352,3.4929,3.4437,3.4123,3.4123,3.3691,3.3333,3.3199,3.3154,3.287,3.2273,3.2198,3.1989,3.1525,3.1511,3.1511,3.1511,3.1511,3.1511,3.1511,3.1511,3.1511,3.1511,3.1511,3.1511,2.3372,2.3261,2.3224,2.3038,2.3001,2.3001,2.3001,2.3001,2.3001,2.3001,2.3001,0.0,0.0,0.0,0.0,0.0,0.0,0.0,2.353,2.4133,2.4873,0.0,2.6368,0.0,2.7912,2.8199,2.8171,0.0,2.747,2.7318,2.7536,2.7724,2.7967,2.836,2.8962,2.9666,3.0501,3.1712,3.2976,3.4304,3.4579,3.484,3.5141,3.5141,3.5263,3.5426,3.5426,3.5924,3.6654,3.6654,3.6875,3.7264,3.7264,3.7534,3.7877,3.7877,3.8028,3.8202,3.8202,3.7477,3.651,3.6474,3.6475,3.6454,3.6331,3.6139,3.5918,3.5918,3.5605,3.5242,3.5242,3.5122,3.5034,3.5034,3.5115,3.518,3.5326,3.5326,3.5359,3.5472,3.5504,3.5504,3.5504,3.5504,3.5504,3.5504,3.5504,3.5504,3.5504,3.516,3.4921,3.4921,3.4592,3.4262,3.3948,3.3918,3.3649,3.2976,3.2946,3.2781,3.2378,3.2093,3.1929,3.1929,3.1645,3.1511,3.1511,3.1511,3.1511,3.1511,3.1511,3.1511,2.3714,2.3593,2.3482,2.3113,2.3001,2.3001,2.3001,2.3001,2.3001,2.3001,0.0,2.3001,2.3001,2.3298,2.3519,2.3604,0.0,2.4152,2.42,2.5073,2.5962,2.6612,2.7594,2.8442,2.9125,2.955,2.9549,2.9028,2.8203,2.7912,2.8284,2.8722,2.9047,2.9363,3.0613,3.1841,3.2957,3.3543,3.4176,3.484,3.484,3.5182,3.5804,3.5804,3.6058,3.647,3.647,3.6693,3.707,3.707,3.7303,3.7687,3.7687,3.7877,3.8202,3.8202,3.8202,3.8202,3.8202,3.8202,3.8153,3.7593,3.7433,3.7353,3.6772,3.6697,3.6781,3.6781,3.6437,3.606,3.606,3.5722,3.538,3.538,3.5434,3.5504,3.5504,3.5504,3.5504,3.5504,3.5504,3.5504,3.5504,3.5504,3.5504,3.5504,3.5504,3.5504,3.5504,3.5504,3.5504,3.5504,3.5504,3.5265,3.4698,3.4638,3.4369,3.3664,3.3619,3.3589,3.3499,3.2946,3.2647,3.2647,3.2049,3.1765,3.1765,3.1675,3.163,3.163,3.154,3.1511,2.3787,2.3593,2.3482,2.3113,2.3001,2.3001,2.3001,2.3001,0.0,0.0,0.0,2.3001,2.3001,2.3075,0.0,2.3567,0.0,0.0,0.0,0.0,2.6088,0.0,0.0,0.0,0.0,0.0,0.0,0.0,3.0313,3.034,2.9933,3.044,3.1198,3.2151,3.2857,3.3568,3.4343,3.4468,3.4881,3.5507,3.5507,3.5804,3.6272,3.6272,3.6496,3.6915,3.6915,3.7109,3.7495,3.7495,3.7725,3.8089,3.8089,3.8127,3.8202,3.8202,3.8202,3.8202,3.8202,3.8315,3.8412,3.8123,3.8169,3.8266,3.8149,3.7901,3.767,3.767,3.7325,3.6981,3.6981,3.6622,3.6279,3.6279,3.5875,3.5504,3.5504,3.5504,3.5504,3.5504,3.5504,3.5504,3.5504,3.5504,3.5504,3.5504,3.5504,3.5504,3.5504,3.5504,3.5504,3.5504,3.5504,3.5459,3.534,3.5325,3.504,3.4384,3.4339,3.4099,3.3514,3.338,3.332,3.332,3.3215,3.3155,3.3155,3.2617,3.2318,3.2303,3.1765,3.1511,2.4381,2.408,2.3824,2.3409,2.3298,2.3261,2.3038,0.0,0.0,0.0,0.0,2.3001,2.3001,0.0,0.0,0.0,0.0,0.0,0.0,0.0,0.0,0.0,0.0,0.0,0.0,0.0,3.1121,3.0771,3.166,3.1889,3.1227,3.2041,3.2739,3.3303,3.3907,3.4384,3.4716,3.5046,3.5507,3.6058,3.6058,3.6298,3.6693,3.6693,3.6915,3.7303,3.7303,3.7534,3.7915,3.7915,3.8014,3.8202,3.8202,3.8202,3.8202,3.8202,3.8509,3.8863,3.8486,3.8745,3.9133,3.8671,3.8575,3.8649,3.8649,3.859,3.85,3.85,3.8204,3.7824,3.7824,3.7381,3.6971,3.6971,3.6477,3.5941,3.5664,3.5589,3.5636,3.5733,3.578,3.578,3.578,3.578,3.578,3.578,3.578,3.578,3.578,3.578,3.5701,3.5636,3.5701,3.578,3.578,3.5668,3.5454,3.5155,3.506,3.4876,3.4562,3.4203,3.4008,3.4008,3.3664,3.3499,3.3499,3.3185,3.3021,3.3021,3.2706,3.2557,2.4897,2.4502,2.4116,2.3703,2.3593,2.3482,2.3075,2.3298,0.0,0.0,0.0,2.3001,2.3001,0.0,0.0,0.0,0.0,0.0,0.0,0.0,0.0,0.0,0.0,0.0,0.0,0.0,0.0,3.1468,3.2559,3.3066,3.2631,3.3658,3.4259,3.4259,3.4868,3.5196,3.5196,3.571,3.6165,3.6549,3.6549,3.6733,3.7148,3.7148,3.7341,3.7725,3.7725,3.7915,3.8202,3.8352,3.8389,3.8389,3.8523,3.862,3.8694,3.8694,3.9196,3.9809,3.9211,3.9535,4.0085,3.9499,3.9096,3.887,3.887,3.898,3.9141,3.9141,3.8913,3.8601,3.8601,3.8123,3.7584,3.7484,3.7113,3.6637,3.6263,3.6174,3.6209,3.6216,3.6218,3.6172,3.6035,3.6005,3.6005,3.6005,3.6005,3.6005,3.6005,3.6037,3.599,3.5816,3.5926,3.6005,3.6005,3.5863,3.5752,3.5752,3.5668,3.5587,3.5587,3.5093,3.4808,3.4808,3.4297,3.4011,3.3965,3.383,3.3725,3.3709,3.3559,3.3499,2.4897,2.4502,2.4116,2.3703,2.3593,2.3482,2.3075,0.0,0.0,0.0,2.3001,2.3001,2.3001,2.3038,0.0,0.0,0.0,0.0,0.0,0.0,0.0,0.0,0.0,0.0,0.0,0.0,3.2169,3.2096,3.3189,3.4045,3.4509,3.5583,3.6152,3.6152,3.6561,3.6783,3.6783,3.6861,3.69,3.694,3.694,3.7148,3.7534,3.7534,3.7763,3.8127,3.8127,3.8165,3.824,3.8797,3.9031,3.9068,3.955,3.9909,4.0209,4.0209,4.0454,4.0764,4.0696,4.0847,4.108,4.1013,4.012,3.9068,3.9068,3.9228,3.9373,3.9373,3.9328,3.9334,3.9334,3.8811,3.8187,3.7775,3.7628,3.7635,3.7761,3.778,3.7597,3.7023,3.6917,3.6719,3.6111,3.6005,3.6005,3.6005,3.6005,3.6005,3.6005,3.6116,3.6164,3.6164,3.6053,3.6005,3.6005,3.5973,3.5973,3.5973,3.5973,3.5941,3.5941,3.5881,3.585,3.585,3.579,3.5681,3.5507,3.4904,3.4524,3.4399,3.3769,3.3499,2.5147,2.4838,2.4526,2.4345,2.4152,2.3861,2.3446,0.0,0.0,0.0,2.3001,2.3001,2.3001,2.3001,2.3038,0.0,0.0,0.0,0.0,0.0,0.0,0.0,0.0,0.0,0.0,0.0,3.2427,3.3024,3.3847,3.4664,3.5502,3.6099,3.651,3.6772,3.6915,3.6978,3.6978,3.6978,3.7109,3.7341,3.7341,3.7572,3.7953,3.7953,3.8052,3.8202,3.8575,3.8723,3.8797,3.9349,3.9692,3.9889,4.012,4.0416,4.0712,4.0712,4.1131,4.1674,4.1215,4.1511,4.1965,4.1526,4.101,4.055,4.055,4.0324,4.0056,4.0056,3.9753,3.9424,3.9553,3.9465,3.9194,3.8633,3.8466,3.8429,3.8235,3.8193,3.8134,3.7925,3.7897,3.782,3.756,3.7162,3.6901,3.6901,3.6565,3.6304,3.6304,3.6352,3.6383,3.6383,3.632,3.6304,3.6304,3.6195,3.6116,3.6116,3.6022,3.6005,3.6005,3.6005,3.6005,3.6005,3.6005,3.5973,3.5863,3.5605,3.5437,3.5374,3.5008,3.4888,2.5312,2.5052,2.479,2.479,2.461,2.4236,0.0,0.0,0.0,2.3113,2.3001,2.3001,2.3001,2.3001,2.3001,2.3001,0.0,2.4945,0.0,0.0,0.0,0.0,0.0,0.0,0.0,3.2277,3.2763,3.372,3.4367,3.518,3.6151,3.6553,3.6889,3.7187,3.7289,3.7366,3.7366,3.7366,3.7481,3.7763,3.7763,3.7915,3.8202,3.8389,3.8464,3.8501,3.9184,3.9493,3.9529,4.0205,4.0603,4.0826,4.101,4.1247,4.1545,4.1545,4.2046,4.26,4.2078,4.2332,4.2803,4.2285,4.211,4.211,4.2173,4.1393,4.0512,4.0547,4.0091,3.9604,3.9732,3.9889,3.9909,3.9493,3.9371,3.9303,3.9014,3.8956,3.8928,3.8813,3.8816,3.8739,3.8539,3.8123,3.78,3.78,3.723,3.6799,3.6799,3.6615,3.6492,3.6492,3.6492,3.6492,3.6492,3.6383,3.6274,3.6274,3.6195,3.6132,3.6132,3.6132,3.6132,3.6132,3.6132,3.6132,3.6068,3.6068,3.6037,3.6005,3.5863,3.5863,2.5312,2.5052,2.479,2.479,2.479,2.4562,0.0,0.0,0.0,2.315,2.3001,2.3001,2.3001,2.3001,2.3001,2.3001,2.4397,0.0,0.0,0.0,0.0,0.0,0.0,0.0,3.2218,3.2503,3.311,3.4125,3.4736,3.5577,3.6653,3.7282,3.7586,3.7586,3.7991,3.8202,3.8202,3.8202,3.8202,3.8202,3.8202,3.8202,3.8202,3.8797,3.9104,3.9126,4.003,4.0382,4.0451,4.1377,4.1787,4.1835,4.2349,4.2774,4.3066,4.3066,4.3295,4.3598,4.3598,4.3598,4.3598,4.3598,4.3598,4.3628,4.3822,4.2285,4.0512,4.0668,4.037,3.9996,4.0011,4.0011,4.0031,4.0226,4.0296,4.0331,4.0439,4.0474,4.0274,3.9613,3.9474,3.9293,3.8616,3.8508,3.8492,3.8492,3.7923,3.7492,3.7492,3.6907,3.6492,3.6492,3.6492,3.6492,3.6492,3.6492,3.6492,3.6492,3.6492,3.6492,3.6492,3.6492,3.6492,3.6492,3.6492,3.6383,3.6196,3.6196,3.6116,3.6005,3.6005,3.6005,2.4675,2.4679,2.4693,2.5051,2.4708,2.4202,2.3944,0.0,0.0,2.2749,2.2842,2.2908,2.2872,2.3369,2.3849,2.3925,2.5052,0.0,0.0,0.0,0.0,0.0,0.0,0.0,0.0,0.0,3.3354,3.3895,3.4534,3.5153,3.5775,3.6382,3.7096,3.8,3.8127,3.8202,3.8202,3.8202,3.8202,3.8202,3.8612,3.8811,3.8833,3.9621,3.9995,4.003,4.0977,4.1344,4.1411,4.2078,4.2475,4.271,4.2898,4.3143,4.3432,4.3432,4.3492,4.3598,4.3598,4.3598,4.3628,4.3763,4.3809,4.3822,4.3998,4.2787,4.1243,4.0439,4.0226,4.0207,4.0207,4.0261,4.0366,4.0436,4.0436,4.047,4.0489,4.0489,4.0428,4.0213,4.0166,4.0105,3.989,3.9474,3.9167,3.9167,3.8616,3.8015,3.7569,3.7307,3.7015,3.6538,3.6492,3.6492,3.6492,3.6492,3.6492,3.6492,3.6492,3.6492,3.6492,3.6492,3.6492,3.6492,3.6492,3.646,3.6414,3.6414,3.632,3.6148,3.6289,3.6241,0.0,2.4242,2.4314,2.465,2.4311,0.0,0.0,0.0,0.0,2.2834,2.2992,2.3134,2.3291,2.3802,2.4286,2.4576,2.5452,0.0,0.0,0.0,0.0,0.0,0.0,0.0,0.0,3.3479,3.3632,3.3991,3.4634,3.5134,3.5392,3.5967,3.6664,3.7462,3.7738,3.797,3.8202,3.8202,3.8315,3.8538,3.9038,3.9385,3.9636,4.0535,4.0927,4.0961,4.1868,4.2285,0.0,4.2772,4.3113,4.3295,4.3295,4.3432,4.3598,4.3598,4.3598,4.3598,4.3687,4.3704,4.3747,4.391,4.3852,4.3641,4.3459,4.2756,4.1738,4.0455,4.0242,4.0366,4.0366,4.0436,4.0489,4.0489,4.0489,4.0489,4.0489,4.0489,4.0489,4.0489,4.0489,4.0489,4.0489,4.0136,3.9859,3.9859,3.929,3.8739,3.8323,3.8046,3.7631,3.6953,3.6876,3.6769,3.6507,3.6492,3.6492,3.6492,3.6492,3.6492,3.6492,3.6492,3.6492,3.6492,3.6492,3.6492,3.6492,3.6492,3.6445,3.6305,3.6445,3.6398,0.0,0.0,0.0,0.0,0.0,0.0,0.0,0.0,0.0,0.0,0.0,0.0,2.4087,2.4274,2.4503,2.5016,0.0,0.0,0.0,0.0,0.0,0.0,0.0,0.0,3.377,3.3839,3.3991,3.438,3.5,3.5334,3.5334,3.5851,3.6199,3.6228,3.6838,3.7462,3.8057,3.8132,3.8429,3.8992,3.9384,3.9878,4.0442,4.1398,4.1836,4.1933,4.2772,4.3143,4.3174,4.3492,4.3628,4.3598,4.3628,4.3628,4.3628,4.3628,4.3628,4.3658,4.3868,4.3927,4.3927,4.401,4.3697,4.3185,4.2459,4.2253,4.1965,4.0696,4.0401,4.0489,4.0489,4.0489,4.0489,4.0489,4.0489,4.0489,4.0489,4.0489,4.0489,4.0489,4.0489,4.0489,4.0489,4.0489,4.0489,4.0489,3.9967,3.9536,3.9524,3.897,3.8323,3.7646,3.7569,3.7292,3.6615,3.6522,3.6492,3.6492,3.6492,3.6492,3.6492,3.6492,3.6492,3.6492,3.6492,3.6492,3.6492,3.6492,3.6492,3.6492,3.6492,3.6492,0.0,0.0,0.0,0.0,0.0,0.0,0.0,0.0,0.0,0.0,0.0,0.0,0.0,0.0,0.0,0.0,0.0,0.0,0.0,0.0,0.0,0.0,3.2829,3.3701,3.3805,3.4094,3.4312,3.438,3.4559,3.4646,3.4646,3.4777,3.5082,3.561,3.577,3.6127,3.6751,3.737,3.7739,3.7878,3.906,3.9958,4.0655,4.1558,4.2252,4.2803,4.3265,4.3492,4.3522,4.3948,4.3935,4.3628,4.3993,4.401,4.3822,4.3822,4.391,4.3981,4.4056,4.4039,4.3981,4.3608,4.3486,4.3243,4.2062,4.1689,4.1541,4.0681,4.047,4.0489,4.0489,4.0489,4.0489,4.0489,4.0489,4.0489,4.0489,4.0489,4.0489,4.0489,4.0489,4.0489,4.0489,4.0489,4.0489,4.0489,4.0366,4.0074,3.9585,3.9351,3.9031,3.8354,3.8262,3.8,3.7323,3.6784,3.6492,3.6492,3.6492,3.6492,3.6492,3.6492,3.6492,3.6492,3.6492,3.6492,3.6492,3.6492,3.6492,3.6492,3.6492,3.6492,0.0,0.0,0.0,0.0,0.0,0.0,0.0,0.0,0.0,0.0,0.0,0.0,0.0,0.0,0.0,0.0,0.0,0.0,0.0,0.0,0.0,0.0,3.2947,3.3874,0.0,3.4264,3.4414,3.4414,3.4414,3.4414,3.4414,3.4414,3.4574,3.4907,3.5301,3.5931,3.6842,3.7261,3.7807,3.8467,3.9408,4.0156,4.0817,4.1449,4.1943,4.2321,4.2514,4.2688,4.2917,4.3524,4.3675,4.3583,4.4158,4.4224,4.3998,4.3998,4.4056,4.4097,4.4184,4.4241,4.4241,4.3604,4.3243,4.2862,4.1804,4.1276,4.0956,4.0593,4.0489,4.0489,4.0489,4.0489,4.0489,4.0489,4.0489,4.0489,4.0489,4.0489,4.0489,4.0489,4.0489,4.0489,4.0489,4.0489,4.0489,4.0489,4.0489,4.0366,3.9997,3.9951,3.969,3.9046,3.897,3.8708,3.8015,3.7631,3.7153,3.6538,3.6492,3.6492,3.6492,3.6492,3.6492,3.6492,3.6492,3.6492,3.6492,3.6492,3.6492,3.6492,3.6492,3.6492,0.0,0.0,0.0,0.0,0.0,0.0,0.0,0.0,0.0,0.0,0.0,0.0,0.0,0.0,0.0,0.0,0.0,0.0,0.0,0.0,0.0,3.1903,3.3116,0.0,3.4264,3.4346,3.4414,3.4414,3.4414,3.4414,3.4414,3.4414,3.4481,3.4601,3.5255,3.6252,3.757,3.757,3.8191,3.9385,3.9778,4.0274,4.0828,4.113,4.1309,4.1409,4.1409,4.1616,4.2045,4.2772,4.3124,4.3274,4.3955,4.4041,4.3791,4.3791,4.3887,4.4033,4.4276,4.4468,4.4468,4.3617,4.2953,4.2363,4.1591,4.0956,4.0489,4.0489,4.0489,4.0489,4.0489,4.0489,4.0489,4.0489,4.0489,4.0489,4.0489,4.0489,4.0489,4.0489,4.0489,4.0489,4.0489,4.0489,4.0489,4.0489,4.0489,4.0489,4.0489,4.0489,4.0274,3.9705,3.9644,3.94,3.8723,3.8662,3.8123,3.6876,3.6707,3.6599,3.6492,3.6585,3.6631,3.6631,3.6723,3.6769,3.6769,3.6769,3.6769,3.6769,3.6769,3.6769,2.162,0.0,0.0,0.0,0.0,0.0,0.0,0.0,0.0,0.0,0.0,0.0,0.0,0.0,0.0,0.0,0.0,0.0,0.0,0.0,3.2177,3.194,0.0,3.4196,3.3908,3.4196,3.4414,3.4414,3.4414,3.4414,3.4414,3.4563,3.4902,3.5417,3.5706,3.6538,3.798,3.8009,3.8113,3.8361,3.9088,3.9781,4.0475,4.0531,4.0862,4.1409,4.1409,4.1616,4.2011,4.2324,4.2429,4.2412,4.2707,4.2625,4.2415,4.2415,4.2856,4.3607,4.4322,4.457,4.4384,4.3092,4.2567,4.2269,4.1024,4.0593,4.0489,4.0489,4.0489,4.0489,4.0489,4.0489,4.0489,4.0489,4.0489,4.0489,4.0489,4.0489,4.0489,4.0489,4.0489,4.0489,4.0489,4.0489,4.0489,4.0489,4.0489,4.0489,4.0489,4.0489,4.0459,4.0351,4.0336,4.0074,3.9382,3.9336,3.9031,3.8246,3.7661,3.7092,3.6507,3.6983,3.7268,3.7268,3.7751,3.8023,3.8023,3.8023,3.8023,3.8023,3.8023,3.8023,2.192,2.2488,0.0,0.0,0.0,0.0,0.0,0.0,0.0,0.0,0.0,0.0,0.0,0.0,0.0,0.0,0.0,2.9741,3.005,3.0865,3.1565,0.0,0.0,3.372,3.4099,3.4312,3.4414,3.4414,3.4414,3.4448,3.4563,3.4953,3.5367,3.5738,3.6615,3.7397,3.808,3.8535,3.8761,3.8745,3.9121,3.9481,3.9812,3.9812,4.0005,4.0375,4.0375,4.0781,4.1484,4.1987,4.2234,4.2318,4.2823,4.2706,4.2223,4.2223,4.2453,4.2861,4.3217,4.3395,4.3244,4.223,4.1931,4.1771,4.0802,4.0489,4.0489,4.0489,4.0489,4.0489,4.0489,4.0593,4.0627,4.0539,4.0593,4.0627,4.0524,4.0489,4.0489,4.0489,4.0489,4.0489,4.0489,4.0489,4.0489,4.0489,4.0489,4.0489,4.0489,4.0489,4.0489,4.0489,4.0489,4.0366,4.0059,4.0028,3.9582,3.8585,3.854,3.8435,3.8138,3.875,3.8886,3.8488,3.8762,3.8711,3.8306,3.8306,3.8306,3.8306,3.8306,3.8306,2.2292,2.2793,2.3223,0.0,0.0,0.0,0.0,0.0,0.0,0.0,0.0,0.0,0.0,0.0,0.0,0.0,3.0005,2.982,3.0172,3.0515,3.1077,3.2008,3.2672,3.3403,3.4308,3.4414,3.4414,3.4414,3.4568,3.4754,3.4902,3.5578,3.6088,3.643,3.7544,3.8238,3.8395,3.8996,3.9299,3.9299,3.9299,3.9362,3.9504,3.9504,3.9644,3.9876,3.9876,4.0368,4.1209,4.1713,4.1957,4.209,4.2652,4.2412,4.1796,4.1965,4.2033,4.2066,4.2085,4.2105,4.2043,4.1272,4.1166,4.1223,4.0569,4.0504,4.0643,4.0643,4.0643,4.0643,4.0593,4.073,4.0833,4.0677,4.073,4.0765,4.0593,4.0524,4.0489,4.0489,4.0489,4.0489,4.0489,4.0489,4.0489,4.0489,4.0489,4.0489,4.0489,4.0489,4.0489,4.0489,4.0489,4.0489,4.0489,4.0646,4.03,3.9263,3.9692,3.9894,3.9719,4.037,4.0449,3.9883,4.0009,3.9788,3.9231,3.9067,3.8985,3.8985,3.8805,3.8739,2.2561,2.3215,2.3794,0.0,0.0,0.0,0.0,0.0,0.0,0.0,0.0,0.0,0.0,0.0,0.0,0.0,2.9882,3.0172,3.0522,0.0,3.171,3.2376,3.3046,3.3717,3.4356,3.4414,3.4414,3.4414,3.5073,3.5499,3.5531,3.6461,3.7294,3.7908,3.8165,3.859,3.9202,3.9272,3.9299,3.9299,3.9299,3.9592,4.0136,4.0136,4.0463,4.0972,4.0972,4.1236,4.1644,4.144,4.1335,4.1256,4.1075,4.0686,4.035,4.1018,4.1288,4.1295,4.1421,4.1465,4.13,4.0259,4.0339,4.0737,4.0186,4.0504,4.1049,4.1049,4.1049,4.1,4.0833,4.0916,4.1068,4.1049,4.0916,4.0799,4.0799,4.0627,4.0489,4.0489,4.0489,4.0489,4.0489,4.0489,4.0489,4.0489,4.0489,4.0489,4.0489,4.0489,4.0489,4.0489,4.0489,4.0489,4.0489,4.1091,4.1395,4.1284,4.1324,4.1096,4.0461,4.1001,4.1314,4.1264,4.1808,4.2061,4.2011,4.1336,4.0972,4.0955,4.029,3.9969,2.3022,2.3813,0.0,0.0,0.0,0.0,0.0,0.0,0.0,0.0,0.0,0.0,0.0,0.0,0.0,3.0249,3.0341,3.0462,3.0568,3.0816,3.1163,3.1785,3.2483,3.3122,3.3761,3.4636,3.5139,3.5139,3.5899,3.6384,3.6538,3.7279,3.7879,3.8193,3.8689,3.905,3.9299,3.9379,3.9405,3.9448,3.9722,3.9868,3.9885,4.0178,4.0326,4.0368,4.0672,4.0932,4.118,4.1652,4.1674,4.1361,4.0949,4.0507,4.013,4.0417,4.0536,4.0493,4.0231,4.0188,4.0099,3.9429,3.9739,4.0271,4.0058,4.0507,4.1117,4.1117,4.1169,4.1187,4.1018,4.112,4.1205,4.1102,4.112,4.1055,4.0833,4.073,4.0662,4.0524,4.0489,4.0489,4.0489,4.0489,4.0489,4.0489,4.0489,4.0489,4.0489,4.0489,4.0489,4.0489,4.0489,4.0489,4.0489,4.1492,4.1949,4.1525,4.2292,4.264,4.2361,4.3039,4.3149,4.2651,4.2871,4.276,4.2286,4.2016,4.188,4.1863,4.1119,4.0755,2.3653,2.425,0.0,0.0,0.0,0.0,0.0,0.0,0.0,0.0,0.0,0.0,0.0,0.0,0.0,0.0,3.0522,3.0598,3.0598,3.0598,3.083,3.1438,3.1963,3.2518,3.319,3.4327,3.5116,3.5359,3.6304,3.7013,3.7413,3.8096,3.8507,3.8618,3.905,3.9325,3.9352,3.9432,3.9554,3.9616,4.0252,4.0431,4.022,4.0546,4.0744,4.0861,4.119,4.137,4.1499,4.2011,4.1825,4.123,4.0754,4.0402,4.0138,3.9944,3.9901,3.9833,3.9162,3.8972,3.8937,3.8501,3.8872,3.9497,3.9765,4.0377,4.1004,4.1207,4.1305,4.1357,4.1288,4.1339,4.1357,4.1288,4.1272,4.1223,4.0935,4.0833,4.073,4.0524,4.0489,4.0489,4.0489,4.0489,4.0489,4.0489,4.0489,4.0489,4.0489,4.0489,4.0489,4.0489,4.0489,4.0489,4.0489,4.1525,4.1997,4.1525,4.2769,4.3512,4.3512,4.4207,4.4333,4.3792,4.3792,4.3521,4.3041,4.276,4.2642,4.2625,4.1844,4.1437,2.441,2.4509,0.0,0.0,0.0,0.0,0.0,0.0,0.0,0.0,0.0,0.0,0.0,0.0,0.0,3.0172,3.0371,3.0598,3.0598,3.0598,3.083,3.1438,3.168,3.2035,3.2633,3.3378,3.4122,3.4835,3.6209,3.7327,3.806,3.8854,3.9282,3.9282,3.9282,3.9335,3.9484,3.9484,3.9642,3.991,4.0838,4.1303,4.1303,4.1303,4.1892,4.2882,4.2882,4.2882,4.2844,4.2378,4.163,4.0754,4.0279,4.0188,4.0213,3.9618,3.9497,3.9437,3.8282,3.7915,3.7828,3.7373,3.7711,3.8465,3.9282,4.0024,4.0735,4.1399,4.1588,4.1588,4.1588,4.1588,4.1588,4.1588,4.1456,4.1256,4.1135,4.095,4.073,4.0524,4.0489,4.0489,4.0489,4.0489,4.0489,4.0489,4.0489,4.0489,4.0489,4.0489,4.0489,4.0489,4.0489,4.0489,4.0489,4.1125,4.1492,4.1492,4.2769,4.3512,4.3512,4.4207,4.4615,4.4615,4.4615,4.4615,4.4615,4.3809,4.3409,4.3375,4.2513,4.2105,2.4279,0.0,0.0,0.0,0.0,0.0,0.0,0.0,0.0,0.0,0.0,0.0,0.0,0.0,0.0,3.0462,3.0552,3.0598,3.0598,3.0598,3.07,3.0994,3.1478,3.2059,3.2766,3.3914,3.4906,3.5568,3.6497,3.7173,3.7387,3.7628,3.7799,3.7893,3.7876,3.7969,3.8095,3.8698,3.921,3.9624,4.052,4.0949,4.0972,4.163,4.1931,4.1934,4.2259,4.2218,4.1892,4.1782,4.141,4.0919,4.0778,4.0604,4.0387,3.9756,3.9558,3.9437,3.8395,3.8059,3.7972,3.7537,3.7878,3.8572,3.9266,4.0024,4.0735,4.1399,4.1588,4.1588,4.1588,4.1588,4.1588,4.1588,4.1456,4.1256,4.1135,4.095,4.073,4.0524,4.0489,4.0489,4.0489,4.0489,4.0489,4.0489,4.0489,4.0489,4.0489,4.0489,4.0489,4.0489,4.0489,4.0489,4.0489,4.1558,4.1804,4.087,4.297,4.4047,4.3512,4.4207,4.4615,4.4615,4.4615,4.4615,4.4615,4.435,4.4159,4.4013,4.3233,4.2786,2.4865,0.0,0.0,0.0,0.0,0.0,0.0,0.0,0.0,0.0,0.0,0.0,3.0598,3.0598,0.0,3.0598,3.0598,3.0612,3.0672,3.0672,3.0807,3.119,3.1634,3.218,3.2883,3.3975,3.4883,3.5535,3.6242,3.6787,3.7085,3.7153,3.7219,3.7295,3.7344,3.7526,3.7807,3.8343,3.8856,3.9356,4.0053,4.0394,4.0451,4.1647,4.2157,4.2077,4.2358,4.2136,4.1587,4.1587,4.1271,4.0795,4.0795,4.0556,4.0154,3.9584,3.9252,3.8984,3.8144,3.7873,3.7815,3.7583,3.7765,3.8286,3.9218,3.9819,4.0356,4.132,4.1588,4.1588,4.1588,4.1588,4.1588,4.1588,4.1456,4.1256,4.1135,4.095,4.073,4.0524,4.0489,4.0489,4.0489,4.0489,4.0489,4.0489,4.0489,4.0489,4.0489,4.0489,4.0489,4.0489,4.0489,4.0489,4.0489,4.1492,4.1771,4.0972,4.2939,4.3972,4.3512,4.4207,4.4615,4.4615,4.4615,4.4615,4.4615,4.4615,4.4514,4.4293,4.3771,4.3444,0.0,0.0,0.0,0.0,0.0,0.0,0.0,0.0,0.0,0.0,0.0,3.0598,3.0598,3.0598,3.0598,3.0598,3.0598,3.0687,3.0851,3.0896,3.116,3.1918,3.2114,3.2419,3.3039,3.3713,3.4385,3.5026,3.5588,3.6191,3.687,3.7028,3.712,3.7145,3.7292,3.7604,3.8117,3.823,3.8538,3.9073,3.9554,3.9805,3.9935,4.1453,4.2444,4.2901,4.2901,4.2496,4.1774,4.1731,4.1265,4.0566,4.0517,4.0229,3.974,3.9216,3.8712,3.8238,3.7685,3.751,3.751,3.751,3.751,3.7747,3.9013,3.9455,3.9771,4.113,4.1541,4.1588,4.1588,4.1588,4.1588,4.1588,4.1423,4.1239,4.1135,4.0916,4.073,4.0524,4.0489,4.0489,4.0489,4.0489,4.0489,4.0489,4.0489,4.0489,4.0489,4.0489,4.0489,4.0489,4.0489,4.0489,4.0489,4.1176,4.1558,4.1492,4.2831,4.3571,4.3512,4.4207,4.4615,4.4615,4.4615,4.4615,4.4615,4.457,4.4468,4.4281,4.4155,4.3998,0.0,0.0,0.0,0.0,0.0,0.0,0.0,0.0,0.0,0.0,0.0,3.0598,3.0598,3.0598,3.0598,3.0598,3.0702,3.0925,3.1451,3.1593,3.1946,3.2691,3.2799,3.3082,3.379,3.4025,3.4324,3.4905,3.5059,3.5262,3.5523,3.5547,3.5682,3.587,3.6231,3.6524,3.6741,3.7617,3.8307,3.8799,3.9481,3.9996,4.0366,4.1358,4.2209,4.2919,4.3012,4.2747,4.2236,4.1966,4.1561,4.1111,4.0782,4.0353,3.9876,3.9348,3.8794,3.8238,3.7685,3.751,3.751,3.751,3.751,3.7668,3.8476,3.9092,3.9677,4.0561,4.1193,4.1588,4.1588,4.1588,4.1588,4.1588,4.1388,4.1135,4.1117,4.0814,4.0558,4.0489,4.0489,4.0489,4.0489,4.0489,4.0489,4.0489,4.0489,4.0489,4.0489,4.0489,4.0489,4.0489,4.0489,4.0489,4.0489,4.1608,4.2046,4.1525,4.329,4.4105,4.3512,4.4207,4.4615,4.4615,4.4615,4.4615,4.4615,4.444,4.4281,4.4155,4.3998,4.3852,0.0,0.0,0.0,0.0,0.0,0.0,0.0,0.0,0.0,0.0,3.0747,3.0598,3.0598,3.0642,3.0702,3.0702,3.1058,3.1465,3.1821,3.2198,3.2718,3.3439,3.3517,3.379,3.4423,3.4472,3.4594,3.4875,3.497,3.5018,3.5105,3.5402,3.565,3.5778,3.6245,3.66,3.686,3.7463,3.8,3.8474,3.8852,3.9391,4.0055,4.0835,4.1542,4.2095,4.2226,4.2153,4.1903,4.1731,4.1445,4.11,4.0894,4.0303,3.9568,3.9295,3.8662,3.7886,3.7612,3.751,3.751,3.751,3.751,3.7636,3.8302,3.8981,3.9645,4.0388,4.1083,4.1588,4.1588,4.1588,4.1588,4.1588,4.1355,4.1117,4.1117,4.078,4.0489,4.0489,4.0489,4.0489,4.0489,4.0489,4.0489,4.0489,4.0489,4.0489,4.0489,4.0489,4.0489,4.0489,4.0489,4.0489,4.0489,4.1739,4.2363,4.1981,4.3621,4.444,4.4047,4.4412,4.4615,4.4615,4.4615,4.4542,4.4468,4.4338,4.4196,4.3998,4.3927,4.3793,0.0,0.0,0.0,0.0,0.0,0.0,0.0,0.0,0.0,0.0,3.0866,3.0628,3.0747,3.0777,3.0851,3.0984,3.1507,3.2031,3.2364,3.2853,3.3465,3.4134,3.425,3.4423,3.4875,3.4899,3.4899,3.4923,3.5041,3.5158,3.5258,3.581,3.6139,3.6245,3.6741,3.7152,3.7505,3.7578,3.7827,3.8225,3.8224,3.8602,3.9323,3.9995,4.0619,4.1131,4.1189,4.1306,4.1407,4.127,4.1087,4.0853,4.0782,4.0062,3.9055,3.9055,3.8383,3.751,3.7553,3.7553,3.7583,3.7658,3.7658,3.7753,3.825,3.8932,3.9692,4.0245,4.0972,4.1588,4.1588,4.1588,4.1588,4.1588,4.1355,4.1117,4.1117,4.078,4.0489,4.0489,4.0489,4.0489,4.0489,4.0489,4.0489,4.0489,4.0489,4.0489,4.0489,4.0489,4.0489,4.0489,4.0489,4.0489,4.0489,4.1739,4.252,4.252,4.3827,4.4615,4.4615,4.4615,4.457,4.4542,4.457,4.4497,4.431,4.4281,4.4155,4.3898,4.3868,4.3763,0.0,0.0,0.0,0.0,0.0,0.0,0.0,0.0,0.0,0.0,3.0628,3.0777,3.1277,3.1073,3.1014,3.165,3.1918,3.2431,3.3427,3.3783,3.4159,3.4732,3.4787,3.4828,3.4899,3.4899,3.4947,3.5065,3.5105,3.535,3.5941,3.6054,3.6312,3.6781,3.719,3.745,3.7505,3.7897,3.8174,3.829,3.8354,3.8421,3.8565,3.872,3.9548,4.0832,4.0637,4.0887,4.1455,4.0789,4.0615,4.0692,4.0285,3.9404,3.8435,3.8435,3.8042,3.7524,3.7756,3.7857,3.7902,3.8193,3.8278,3.8237,3.8043,3.8868,3.9892,3.9692,4.0577,4.1588,4.1588,4.1588,4.1588,4.1588,4.1355,4.1117,4.1117,4.078,4.0489,4.0489,4.0489,4.0489,4.0489,4.0489,4.0489,4.0489,4.0489,4.0489,4.0489,4.0489,4.0489,4.0489,4.0489,4.0489,4.0489,4.1739,4.252,4.252,4.3827,4.4615,4.4615,4.4615,4.4514,4.4338,4.4514,4.4497,4.431,4.4167,4.4056,4.3898,4.3734,4.3628,0.0,0.0,0.0,0.0,0.0,0.0,0.0,0.0,0.0,3.1507,3.1664,3.1734,3.1637,3.1566,3.1751,3.2419,3.2906,3.3413,3.3901,3.4308,3.4659,3.4875,3.4899,3.4923,3.4994,3.5018,3.5065,3.5198,3.5487,3.5788,3.6075,3.6603,3.6999,3.7227,3.7667,3.788,3.788,3.8122,3.829,3.8352,3.8415,3.8462,3.8462,3.8559,3.8937,3.9517,3.9425,3.9571,3.9869,3.9962,4.0059,4.0134,4.0033,3.9603,3.8995,3.8701,3.8359,3.802,3.8148,3.8177,3.8205,3.8335,3.8391,3.8335,3.8001,3.8894,3.9938,3.9596,4.0498,4.1588,4.1588,4.1588,4.1555,4.1456,4.1254,4.1068,4.095,4.0696,4.0489,4.0489,4.0489,4.0489,4.0489,4.0489,4.0489,4.0489,4.0489,4.0489,4.0489,4.0436,4.0401,4.0401,4.0401,4.0401,4.0401,4.1673,4.2458,4.238,4.368,4.4412,4.4298,4.4315,4.427,4.4196,4.4355,4.4327,4.4085,4.4027,4.391,4.3734,4.3628,4.3598,0.0,0.0,0.0,0.0,0.0,0.0,0.0,0.0,3.1483,0.0,3.247,3.247,3.2266,3.2281,3.2544,3.3188,3.3739,3.4151,3.4275,3.4643,3.4923,3.4947,3.4947,3.4994,3.5152,3.5234,3.5373,3.5487,3.5968,3.6312,3.6457,3.7114,3.7542,3.7667,3.802,3.8209,3.8242,3.8323,3.8368,3.843,3.851,3.8559,3.8559,3.8658,3.858,3.8398,3.8343,3.838,3.8512,3.895,3.9118,3.9149,3.9494,3.9377,3.8994,3.8794,3.8572,3.8391,3.8476,3.8504,3.8532,3.8588,3.8616,3.856,3.823,3.8926,3.982,3.9689,4.0451,4.1383,4.1541,4.1588,4.1555,4.1357,4.1221,4.1034,4.0765,4.0593,4.0489,4.0489,4.0489,4.0489,4.0489,4.0489,4.0489,4.0455,4.047,4.0436,4.0366,4.0312,4.0242,4.0242,4.0242,4.0296,4.0455,4.1641,4.2395,4.2506,4.3591,4.4196,4.4097,4.4097,4.4068,4.4056,4.4155,4.4097,4.3898,4.3898,4.3793,4.3598,4.3598,4.3598,0.0,0.0,0.0,0.0,0.0,0.0,0.0,0.0,0.0,3.2331,3.2376,3.2431,3.3505,3.3287,3.3188,3.3933,3.4075,3.4275,3.4804,3.4875,3.4947,3.5065,3.5105,3.5152,3.5268,3.5633,3.5907,3.6054,3.644,3.6884,3.7414,3.7469,3.7685,3.814,3.8192,3.8242,3.829,3.8415,3.8494,3.851,3.8624,3.8692,3.8692,3.8707,3.8485,3.8105,3.7703,3.7779,3.8102,3.7754,3.7587,3.76,3.8288,3.81,3.7507,3.816,3.8391,3.842,3.8694,3.8777,3.8832,3.9164,3.9245,3.9191,3.886,3.9076,3.9505,3.9868,4.0293,4.0798,4.1415,4.1588,4.1555,4.1357,4.1221,4.1,4.0608,4.0489,4.0489,4.0489,4.0489,4.0489,4.0489,4.0489,4.047,4.0347,4.0296,4.0242,4.0031,4.0031,4.0011,4.0011,4.0011,4.0281,4.0907,4.1625,4.23,4.3005,4.373,4.4097,4.4097,4.4097,4.4056,4.3927,4.3927,4.3927,4.3898,4.3898,4.3793,4.3598,4.3598,4.3598,0.0,0.0,0.0,0.0,0.0,0.0,0.0,0.0,3.1493,3.2107,3.3115,3.4011,3.4423,3.4068,3.3917,3.4521,3.4618,3.4667,3.4875,3.497,3.5041,3.5088,3.5175,3.5389,3.5783,3.5946,3.6186,3.658,3.698,3.7303,3.7487,3.7792,3.8037,3.8192,3.8241,3.8323,3.8433,3.8478,3.8525,3.8624,3.8673,3.8707,3.8707,3.8707,3.8483,3.8085,3.7774,3.7572,3.7451,3.753,3.7463,3.7415,3.8242,3.8395,3.8183,3.8532,3.8794,3.9002,3.9094,3.9121,3.9148,3.9272,3.9299,3.9245,3.8887,3.9072,3.947,3.9898,4.0277,4.0751,4.1415,4.1588,4.1522,4.1254,4.095,4.0677,4.0524,4.0489,4.0489,4.0489,4.0489,4.0489,4.0489,4.0489,4.0455,4.0312,4.0312,4.0242,4.0046,3.9889,3.9803,3.9803,3.9803,4.0091,4.0737,4.1526,4.2285,4.2945,4.3598,4.391,4.3776,4.3776,4.3747,4.3704,4.3704,4.3704,4.3704,4.3704,4.3658,4.3598,4.3598,4.3598,0.0,0.0,0.0,0.0,0.0,0.0,0.0,0.0,3.1273,3.2178,3.3372,3.4394,3.4826,3.4594,3.4497,3.4851,3.4899,3.4923,3.497,3.5041,3.5182,3.5402,3.5509,3.5783,3.6329,3.6498,3.6724,3.7057,3.7505,3.7739,3.7739,3.8037,3.8209,3.8224,3.8322,3.8417,3.851,3.8541,3.8609,3.8707,3.8795,3.8795,3.8707,3.8825,3.8683,3.83,3.7914,3.7504,3.7105,3.723,3.7098,3.6874,3.7709,3.8052,3.8144,3.8467,3.8896,3.9299,3.9299,3.9299,3.9299,3.9299,3.9299,3.9272,3.904,3.901,3.9208,3.9939,4.018,4.0435,4.1351,4.1538,4.1388,4.1135,4.078,4.0489,4.0489,4.0489,4.0489,4.0489,4.0489,4.0489,4.0436,4.0436,4.0366,4.0121,4.0086,4.0031,3.9818,3.9661,3.9589,3.9589,3.9589,3.9985,4.0891,4.1509,4.2189,4.3068,4.3539,4.3734,4.3598,4.3598,4.3598,4.3598,4.3598,4.3598,4.3598,4.3598,4.3598,4.3598,4.3598,4.3598,0.0,0.0,0.0,0.0,0.0,0.0,0.0,0.0,2.9865,3.2482,3.2999,3.338,3.4638,3.4866,3.4866,3.4899,3.4899,3.4947,3.5065,3.5105,3.5373,3.6011,3.6097,3.6312,3.686,3.7283,3.7505,3.7523,3.795,3.8209,3.8209,3.8209,3.8241,3.8323,3.843,3.8507,3.8525,3.8655,3.8719,3.8738,3.8993,3.8979,3.8738,3.9064,3.9045,3.8777,3.8099,3.7578,3.7108,3.6809,3.6356,3.5873,3.6616,3.6966,3.7168,3.793,3.8642,3.9265,3.9299,3.9299,3.9299,3.9299,3.9299,3.9299,3.9299,3.8865,3.8683,4.0,3.9935,3.9819,4.1225,4.1355,4.1117,4.1117,4.078,4.0489,4.0489,4.0489,4.0489,4.0489,4.0489,4.047,4.0312,4.0312,4.0156,3.9753,3.9681,3.9625,3.9424,3.9388,3.9388,3.9388,3.9388,3.997,4.136,4.1492,4.2078,4.3492,4.3598,4.3598,4.3598,4.3598,4.3598,4.3598,4.3598,4.3598,4.3598,4.3598,4.3598,4.3598,4.3598,4.3598,2.6712,0.0,0.0,0.0,0.0,0.0,0.0,0.0,3.0107,3.0839,3.196,3.305,3.3932,3.4087,3.4316,3.4934,3.5041,3.5065,3.5088,3.5268,3.5571,3.6032,3.6199,3.6536,3.7247,3.7414,3.7632,3.7967,3.8123,3.8209,3.8209,3.8259,3.8417,3.8711,3.877,3.8832,3.8927,3.9165,3.9285,3.9285,3.9363,3.9272,3.9045,3.9156,3.9073,3.8848,3.8476,3.8065,3.7632,3.7031,3.6426,3.5949,3.6677,3.67,3.6456,3.7748,3.8344,3.8576,3.9116,3.9299,3.9299,3.9299,3.9299,3.9299,3.9299,3.8865,3.8586,3.9431,3.9598,3.9819,4.1225,4.1355,4.1117,4.1117,4.078,4.0489,4.0489,4.0489,4.0489,4.0489,4.0489,4.047,4.0312,4.0312,4.0156,3.9753,3.9681,3.9625,3.9424,3.9388,3.9388,3.9388,3.9388,3.9788,4.0703,4.1227,4.1884,4.2803,4.3342,4.3598,4.3598,4.3598,4.3598,4.3598,4.3598,4.3598,4.3598,4.3598,4.3598,4.3598,4.3598,4.3598,0.0,0.0,0.0,0.0,0.0,0.0,2.7258,2.8347,2.9435,2.9789,3.0978,3.218,3.2919,3.3251,3.3582,3.4099,3.4514,3.4883,3.5218,3.54,3.5728,3.6371,3.6495,3.6878,3.7703,3.7792,3.7915,3.8192,3.8209,3.8225,3.8241,3.8322,3.8538,3.8882,3.8943,3.9059,3.9272,3.9408,3.9495,3.9501,3.9609,3.952,3.9251,3.9376,3.9259,3.8921,3.8661,3.833,3.7947,3.7339,3.662,3.5941,3.6363,3.6302,3.6108,3.697,3.7682,3.8278,3.8692,3.905,3.9299,3.9299,3.9299,3.9299,3.9299,3.8865,3.8537,3.9217,3.9678,4.0214,4.1304,4.1406,4.1153,4.1102,4.0848,4.0593,4.0524,4.0489,4.0489,4.0489,4.0455,4.0366,4.0207,4.0101,3.9945,3.9625,3.9589,3.9517,3.9424,3.9388,3.9388,3.9388,3.9388,3.9681,4.0459,4.0873,4.1525,4.2554,4.2974,4.3295,4.3598,4.3598,4.3598,4.3598,4.3598,4.3598,4.3598,4.3598,4.3598,4.3598,4.3598,4.3598,0.0,0.0,0.0,0.0,0.0,0.0,2.7376,2.7785,2.8327,2.9123,3.0085,3.0998,3.1727,3.2373,3.2801,3.2884,3.36,3.4443,3.5256,3.5464,3.5844,3.6721,3.6821,3.7169,3.7985,3.8106,3.8123,3.8123,3.8174,3.8257,3.837,3.8478,3.867,3.8952,3.9119,3.9311,3.9532,3.9568,3.9585,3.9576,3.9838,3.9769,3.9395,3.967,3.9526,3.905,3.8763,3.8439,3.8068,3.7703,3.6923,3.595,3.5929,3.5909,3.5942,3.5976,3.6887,3.8096,3.8179,3.8676,3.9299,3.9299,3.9299,3.9299,3.9299,3.8865,3.8509,3.913,3.9872,4.0625,4.1304,4.1393,4.1272,4.1135,4.095,4.073,4.0524,4.0489,4.0489,4.0489,4.0401,4.0242,4.0031,3.9839,3.9625,3.9424,3.9388,3.9388,3.9388,3.9388,3.9388,3.9388,3.9388,3.9661,4.0305,4.0443,4.1075,4.238,4.2554,4.2912,4.3568,4.3598,4.3598,4.3598,4.3598,4.3598,4.3598,4.3598,4.3598,4.3598,4.3598,4.3598,0.0,0.0,0.0,0.0,0.0,0.0,2.7401,2.786,2.831,2.8473,2.9317,3.0231,3.0982,3.1511,3.2077,3.279,3.3155,3.3616,3.4431,3.5121,3.58,3.6346,3.6409,3.6597,3.7111,3.745,3.7632,3.7632,3.8036,3.8433,3.8755,3.8814,3.8999,3.9364,3.9616,3.9762,3.9818,4.004,4.0139,4.0148,4.0243,4.0187,3.9931,3.984,3.9647,3.9389,3.9124,3.8658,3.8101,3.8017,3.7339,3.6343,3.6032,3.5745,3.5566,3.5874,3.6555,3.7417,3.7971,3.8676,3.9299,3.9299,3.9299,3.9299,3.9299,3.8865,3.844,3.8633,3.9185,3.9882,4.0609,4.1062,4.1272,4.1135,4.095,4.073,4.0524,4.0489,4.0489,4.0489,4.0401,4.0242,4.0031,3.9839,3.9625,3.9424,3.9388,3.9388,3.9388,3.9388,3.9388,3.9388,3.9388,3.9445,3.961,4.0146,4.0839,4.1656,4.2285,4.2912,4.3568,4.3598,4.3598,4.3598,4.3598,4.3598,4.3598,4.3598,4.3598,4.3598,4.3598,4.3598,0.0,0.0,0.0,2.7299,0.0,0.0,0.0,2.7735,2.7953,2.7953,2.8756,2.9557,2.9977,3.0718,3.14,3.1872,3.2383,3.2837,3.3254,3.3989,3.4814,3.5659,3.5752,3.6038,3.6825,3.7247,3.7596,3.7879,3.8188,3.8507,3.8882,3.8957,3.9208,3.9693,3.9818,3.9948,4.0099,4.0224,4.0334,4.0396,4.0432,4.0334,4.0139,3.9918,3.9698,3.9489,3.9219,3.8718,3.8101,3.8101,3.7577,3.669,3.6122,3.5705,3.5389,3.544,3.5926,3.6671,3.7417,3.8129,3.8808,3.9183,3.9299,3.9299,3.9299,3.8865,3.8452,3.8647,3.9104,3.9677,4.0403,4.1018,4.139,4.1169,4.1034,4.0882,4.0574,4.0489,4.0489,4.0489,4.0296,4.0101,4.0011,3.9747,3.9517,3.9424,3.9388,3.9388,3.9388,3.9388,3.9388,3.9388,3.9388,3.9388,3.9388,3.9753,4.0235,4.0974,4.1656,4.238,4.3066,4.3432,4.3598,4.3598,4.3598,4.3598,4.3598,4.3598,4.3598,4.3598,4.3598,4.3598,0.0,0.0,0.0,0.0,0.0,2.76,0.0,0.0,0.0,2.771,2.8472,0.0,0.0,0.0,0.0,3.0771,0.0,0.0,3.1847,3.251,3.3471,3.4815,3.4898,3.5296,3.6444,3.7064,3.765,3.8289,3.8401,3.8566,3.8915,3.9091,3.9401,3.9873,3.9956,4.009,4.0307,4.0325,4.0388,4.0502,4.0491,4.0402,4.0251,3.9943,3.9717,3.9544,3.9232,3.8748,3.8183,3.8135,3.7703,3.7031,3.6308,3.5793,3.5453,3.5118,3.5411,3.6108,3.6854,3.7599,3.8328,3.9067,3.9299,3.9299,3.9218,3.8849,3.8505,3.8662,3.913,3.9708,4.023,4.0988,4.1505,4.1169,4.1117,4.1,4.0608,4.0489,4.0489,4.0489,4.0226,4.0011,4.0011,3.9676,3.9388,3.9388,3.9388,3.9388,3.9388,3.9388,3.9388,3.9388,3.9388,3.9388,3.9388,3.9388,3.9717,4.0443,4.1127,4.1819,4.2585,4.3235,4.3598,4.3598,4.3598,4.3598,4.3598,4.3598,4.3598,4.3598,4.3598,4.3598,0.0,0.0,0.0,0.0,2.76,0.0,2.76,0.0,2.771,2.8134,0.0,0.0,0.0,0.0,0.0,0.0,0.0,3.0934,3.0261,3.0895,3.2111,3.3928,3.3816,3.4065,3.5177,3.6361,3.7451,3.8415,3.8494,3.8661,3.9055,3.9324,3.9599,3.9892,4.0129,4.0261,4.0307,4.0432,4.0474,4.0502,4.0503,4.0481,4.0457,3.9994,3.9786,3.9742,3.9287,3.8898,3.8517,3.8216,3.7844,3.7377,3.6713,3.6178,3.5798,3.5476,3.5632,3.6108,3.6854,3.7599,3.8328,3.9067,3.9299,3.9245,3.8942,3.8805,3.8655,3.8155,3.896,3.9892,3.9676,4.0609,4.1505,4.1169,4.1117,4.1,4.0608,4.0489,4.0489,4.0489,4.0226,4.0011,4.0011,3.9676,3.9388,3.9388,3.9388,3.9388,3.9388,3.9388,3.9388,3.9388,3.9388,3.9388,3.9388,3.9388,3.9717,4.0443,4.1127,4.1819,4.2585,4.3235,4.3598,4.3598,4.3598,4.3598,4.3598,4.3598,4.3598,4.3598,4.3598,4.3598,0.0,0.0,0.0,0.0,0.0,0.0,2.8391,2.8286,2.8271,2.8725,0.0,0.0,0.0,0.0,0.0,0.0,3.0873,3.1013,3.0692,3.0968,3.1659,3.2872,3.2927,3.3631,3.5502,3.5675,3.6453,3.8355,3.8055,3.8254,3.9274,3.9452,3.9686,4.0119,4.0233,4.0334,4.0424,4.0466,4.0499,4.0503,4.0508,4.0496,4.0481,4.0004,3.9808,3.9775,3.93,3.8913,3.8563,3.8232,3.7861,3.745,3.6972,3.643,3.5842,3.531,3.5224,3.5462,3.6208,3.6953,3.7765,3.8934,3.9299,3.9272,3.9121,3.8942,3.8722,3.8319,3.906,3.9907,3.9581,4.0546,4.1505,4.1169,4.1117,4.1,4.0608,4.0489,4.0489,4.0489,4.0226,4.0011,4.0011,3.9676,3.9388,3.9388,3.9388,3.9388,3.9388,3.9388,3.9388,3.9388,3.9388,3.9388,3.9388,3.9388,3.9517,3.9844,4.0891,4.1819,4.2585,4.3235,4.3598,4.3598,4.3598,4.3598,4.3598,4.3598,4.3598,4.3598,4.3598,4.3598,2.9468,0.0,0.0,0.0,2.8995,2.8974,2.9389,2.9108,2.8896,2.9368,2.981,0.0,0.0,0.0,0.0,0.0,0.0,3.1123,0.0,3.1094,3.1455,3.206,3.2432,3.3392,3.5314,3.5066,3.5738,3.8055,3.768,3.7948,3.932,3.9464,3.9721,4.0177,4.027,4.0379,4.0502,4.0499,4.0503,4.0496,4.0496,4.0496,4.0481,4.0004,3.9808,3.9775,3.93,3.8956,3.8685,3.8281,3.7982,3.7738,3.711,3.6594,3.6126,3.5436,3.5118,3.5141,3.5768,3.6622,3.7615,3.8901,3.9299,3.9299,3.9299,3.9121,3.886,3.8504,3.9092,3.9774,3.9549,4.0403,4.1302,4.1174,4.1135,4.1,4.0662,4.0524,4.0489,4.0489,4.0261,4.0066,4.0011,3.9676,3.9388,3.9388,3.9388,3.9388,3.9388,3.9388,3.9388,3.9388,3.9388,3.9388,3.9388,3.9388,3.9481,3.9681,4.0668,4.1624,4.2554,4.3082,4.3402,4.3598,4.3598,4.3598,4.3598,4.3598,4.3598,4.3598,4.3598,4.3598,3.1295,3.113,3.1179,3.1269,3.0768,3.0282,3.0421,2.9886,2.9496,2.9973,3.0187,3.0435,0.0,0.0,0.0,0.0,0.0,0.0,0.0,0.0,3.1391,3.1674,3.246,3.3242,3.391,3.4586,3.5711,3.7396,3.7511,3.7956,3.9045,3.9363,3.964,3.9901,4.0224,4.0432,4.0502,4.0492,4.0496,4.0496,4.0496,4.0496,4.0481,4.0004,3.9808,3.9775,3.93,3.9101,3.9027,3.8362,3.8281,3.8421,3.7055,3.6696,3.6884,3.6147,3.5661,3.5434,3.5865,3.6953,3.8295,3.905,3.9299,3.9299,3.9299,3.9299,3.9164,3.856,3.891,3.943,3.9484,4.0056,4.0734,4.1199,4.1187,4.1034,4.0848,4.0627,4.0489,4.0489,4.0401,4.0242,4.0031,3.9676,3.9388,3.9388,3.9388,3.9388,3.9388,3.9388,3.9388,3.9388,3.9388,3.9388,3.9388,3.9388,3.9717,4.0409,4.0512,4.1142,4.2554,4.2617,4.2943,4.3598,4.3598,4.3598,4.3598,4.3598,4.3598,4.3598,4.3598,4.3598,3.2158,3.2247,3.2442,3.2145,3.1867,3.1779,3.2149,3.1424,3.0855,3.1316,3.1136,3.0938,3.1095,0.0,0.0,0.0,0.0,0.0,0.0,0.0,3.1483,3.1618,0.0,0.0,3.3854,3.3676,3.4596,3.7301,3.7015,3.7403,3.9013,3.9351,3.963,3.9953,4.0279,4.0482,4.0492,4.0508,4.0496,4.0496,4.0496,4.0496,4.0489,4.0204,3.9963,3.9786,3.9489,3.9259,3.9073,3.8628,3.8504,3.8502,3.7542,3.7227,3.7173,3.5998,3.5498,3.5541,3.6414,3.7052,3.7682,3.8917,3.9299,3.9299,3.9299,3.9299,3.9164,3.856,3.8893,3.9427,3.9468,4.0056,4.0702,4.1199,4.1221,4.1034,4.0833,4.0627,4.0489,4.0489,4.0401,4.0242,4.0031,3.9783,3.9553,3.9409,3.9388,3.9388,3.9388,3.9388,3.9388,3.9388,3.9388,3.9388,3.9388,3.9388,3.9517,3.9753,4.0216,4.0907,4.1819,4.2349,4.2912,4.3598,4.3598,4.3598,4.3598,4.3598,4.3598,4.3598,4.3598,4.3598,3.3518,3.3688,3.3867,3.3574,3.3288,3.3178,3.352,3.2825,3.2209,3.2496,3.2046,3.1616,3.1656,0.0,0.0,0.0,0.0,0.0,0.0,3.1538,0.0,0.0,0.0,0.0,0.0,3.3068,3.3944,3.6846,3.6626,3.7112,3.89,3.9364,3.9671,3.9891,4.0279,4.0507,4.0496,4.0496,4.0496,4.0496,4.0496,4.0496,4.0489,4.0295,4.0052,3.9786,3.9585,3.935,3.9073,3.8748,3.8673,3.8685,3.7825,3.7596,3.756,3.627,3.5627,3.5574,3.6713,3.7102,3.735,3.8834,3.9299,3.9299,3.9299,3.9299,3.9164,3.856,3.8715,3.9121,3.9405,3.985,4.0419,4.1203,4.1254,4.1068,4.0916,4.0696,4.0489,4.0489,4.0436,4.0296,4.0137,3.9945,3.9696,3.946,3.9388,3.9388,3.9388,3.9388,3.9388,3.9388,3.9388,3.9388,3.9388,3.9388,3.9388,3.9388,3.9859,4.0547,4.1459,4.1965,4.2761,4.3962,4.3714,4.3714,4.3992,4.3714,4.3598,4.3598,4.3598,4.3598]}]]